<?xml version="1.0" encoding="UTF-8" standalone="no" ?>
<gpx xmlns="http://www.topografix.com/GPX/1/1" xmlns:xsi="http://www.w3.org/2001/XMLSchema-instance" xsi:schemaLocation="http://www.topografix.com/GPX/1/1 http://www.topografix.com/GPX/1/1/gpx.xsd" version="1.1" creator="VisuGPX - https://www.visugpx.com">
  <metadata>
    <name>Tour du Pelvas</name>
    <desc><![CDATA[
]]></desc>
  </metadata>
  <trk>
    <name><![CDATA[Move]]></name>
    <trkseg>
      <trkpt lat="44.81664" lon="6.94187">
        <ele>1661.1999511719</ele>
        <time>2020-02-16T08:17:21.010Z</time>
      </trkpt>
      <trkpt lat="44.81666" lon="6.94188">
        <ele>1667</ele>
        <time>2020-02-16T08:17:23.010Z</time>
      </trkpt>
      <trkpt lat="44.81665" lon="6.94172">
        <ele>1535.8088846281</ele>
        <time>2020-02-16T08:18:01.010Z</time>
      </trkpt>
      <trkpt lat="44.81667" lon="6.94168">
        <ele>1535.0857441322</ele>
        <time>2020-02-16T08:18:08.010Z</time>
      </trkpt>
      <trkpt lat="44.81672" lon="6.94167">
        <ele>1535</ele>
        <time>2020-02-16T08:18:13.010Z</time>
      </trkpt>
      <trkpt lat="44.81675" lon="6.94176">
        <ele>1535.0339314753</ele>
        <time>2020-02-16T08:18:19.010Z</time>
      </trkpt>
      <trkpt lat="44.81682" lon="6.94189">
        <ele>1536.8303375136</ele>
        <time>2020-02-16T08:18:28.010Z</time>
      </trkpt>
      <trkpt lat="44.81688" lon="6.94202">
        <ele>1537</ele>
        <time>2020-02-16T08:18:36.010Z</time>
      </trkpt>
      <trkpt lat="44.81693" lon="6.94217">
        <ele>1537.6163834937</ele>
        <time>2020-02-16T08:18:45.010Z</time>
      </trkpt>
      <trkpt lat="44.81694" lon="6.94232">
        <ele>1538.5165163511</ele>
        <time>2020-02-16T08:18:54.010Z</time>
      </trkpt>
      <trkpt lat="44.81695" lon="6.94249">
        <ele>1539.6157677504</ele>
        <time>2020-02-16T08:19:05.010Z</time>
      </trkpt>
      <trkpt lat="44.81697" lon="6.94264">
        <ele>1541.5480942994</ele>
        <time>2020-02-16T08:19:14.010Z</time>
      </trkpt>
      <trkpt lat="44.81694" lon="6.9428">
        <ele>1543</ele>
        <time>2020-02-16T08:19:23.010Z</time>
      </trkpt>
      <trkpt lat="44.81688" lon="6.94294">
        <ele>1543.315630503</ele>
        <time>2020-02-16T08:19:32.010Z</time>
      </trkpt>
      <trkpt lat="44.81685" lon="6.9431">
        <ele>1544.21699968</ele>
        <time>2020-02-16T08:19:41.010Z</time>
      </trkpt>
      <trkpt lat="44.81683" lon="6.94326">
        <ele>1545.21699968</ele>
        <time>2020-02-16T08:19:51.010Z</time>
      </trkpt>
      <trkpt lat="44.81683" lon="6.94342">
        <ele>1546.65099904</ele>
        <time>2020-02-16T08:20:01.010Z</time>
      </trkpt>
      <trkpt lat="44.81687" lon="6.94356">
        <ele>1549.31699968</ele>
        <time>2020-02-16T08:20:12.010Z</time>
      </trkpt>
      <trkpt lat="44.81692" lon="6.94368">
        <ele>1550.42</ele>
        <time>2020-02-16T08:20:23.040Z</time>
      </trkpt>
      <trkpt lat="44.81701" lon="6.94365">
        <ele>1551</ele>
        <time>2020-02-16T08:21:41.050Z</time>
      </trkpt>
      <trkpt lat="44.81692" lon="6.94363">
        <ele>1551</ele>
        <time>2020-02-16T08:21:48.010Z</time>
      </trkpt>
      <trkpt lat="44.81701" lon="6.94358">
        <ele>1550.18300032</ele>
        <time>2020-02-16T08:22:57.010Z</time>
      </trkpt>
      <trkpt lat="44.81692" lon="6.94362">
        <ele>1550</ele>
        <time>2020-02-16T08:23:55.010Z</time>
      </trkpt>
      <trkpt lat="44.81686" lon="6.94373">
        <ele>1549.48300032</ele>
        <time>2020-02-16T08:24:54.010Z</time>
      </trkpt>
      <trkpt lat="44.8168" lon="6.94383">
        <ele>1549.1371301266</ele>
        <time>2020-02-16T08:25:50.010Z</time>
      </trkpt>
      <trkpt lat="44.81686" lon="6.94394">
        <ele>1551</ele>
        <time>2020-02-16T08:26:04.010Z</time>
      </trkpt>
      <trkpt lat="44.81692" lon="6.94404">
        <ele>1551.51699968</ele>
        <time>2020-02-16T08:26:14.010Z</time>
      </trkpt>
      <trkpt lat="44.817" lon="6.94413">
        <ele>1554.46799872</ele>
        <time>2020-02-16T08:26:25.010Z</time>
      </trkpt>
      <trkpt lat="44.81709" lon="6.94418">
        <ele>1556</ele>
        <time>2020-02-16T08:26:33.010Z</time>
      </trkpt>
      <trkpt lat="44.81714" lon="6.94429">
        <ele>1556</ele>
        <time>2020-02-16T08:26:43.010Z</time>
      </trkpt>
      <trkpt lat="44.81719" lon="6.9444">
        <ele>1556.31699968</ele>
        <time>2020-02-16T08:26:52.010Z</time>
      </trkpt>
      <trkpt lat="44.81722" lon="6.94453">
        <ele>1557.51699968</ele>
        <time>2020-02-16T08:27:04.010Z</time>
      </trkpt>
      <trkpt lat="44.81714" lon="6.94464">
        <ele>1558.41699968</ele>
        <time>2020-02-16T08:27:13.010Z</time>
      </trkpt>
      <trkpt lat="44.81704" lon="6.94469">
        <ele>1558.71699968</ele>
        <time>2020-02-16T08:27:16.010Z</time>
      </trkpt>
      <trkpt lat="44.81695" lon="6.94473">
        <ele>1559</ele>
        <time>2020-02-16T08:27:19.010Z</time>
      </trkpt>
      <trkpt lat="44.81686" lon="6.94482">
        <ele>1559</ele>
        <time>2020-02-16T08:27:25.010Z</time>
      </trkpt>
      <trkpt lat="44.8168" lon="6.94492">
        <ele>1560.2078589591</ele>
        <time>2020-02-16T08:27:35.010Z</time>
      </trkpt>
      <trkpt lat="44.81672" lon="6.94502">
        <ele>1561.63399936</ele>
        <time>2020-02-16T08:27:42.010Z</time>
      </trkpt>
      <trkpt lat="44.81666" lon="6.94512">
        <ele>1563.6151540211</ele>
        <time>2020-02-16T08:27:55.010Z</time>
      </trkpt>
      <trkpt lat="44.81661" lon="6.94523">
        <ele>1564</ele>
        <time>2020-02-16T08:28:05.010Z</time>
      </trkpt>
      <trkpt lat="44.81656" lon="6.94534">
        <ele>1564.61699968</ele>
        <time>2020-02-16T08:28:15.010Z</time>
      </trkpt>
      <trkpt lat="44.81648" lon="6.94542">
        <ele>1565.91699968</ele>
        <time>2020-02-16T08:28:28.010Z</time>
      </trkpt>
      <trkpt lat="44.81645" lon="6.94555">
        <ele>1568.21699968</ele>
        <time>2020-02-16T08:28:41.010Z</time>
      </trkpt>
      <trkpt lat="44.81638" lon="6.94564">
        <ele>1570.25099904</ele>
        <time>2020-02-16T08:28:53.010Z</time>
      </trkpt>
      <trkpt lat="44.81634" lon="6.94575">
        <ele>1572</ele>
        <time>2020-02-16T08:29:06.010Z</time>
      </trkpt>
      <trkpt lat="44.81629" lon="6.94587">
        <ele>1574.11699968</ele>
        <time>2020-02-16T08:29:20.010Z</time>
      </trkpt>
      <trkpt lat="44.81623" lon="6.94597">
        <ele>1574.91699968</ele>
        <time>2020-02-16T08:29:28.010Z</time>
      </trkpt>
      <trkpt lat="44.81616" lon="6.94607">
        <ele>1575.9151687568</ele>
        <time>2020-02-16T08:29:38.010Z</time>
      </trkpt>
      <trkpt lat="44.8161" lon="6.94616">
        <ele>1576.4132802896</ele>
        <time>2020-02-16T08:29:53.010Z</time>
      </trkpt>
      <trkpt lat="44.81601" lon="6.94624">
        <ele>1577.3269423768</ele>
        <time>2020-02-16T08:30:00.010Z</time>
      </trkpt>
      <trkpt lat="44.81594" lon="6.94634">
        <ele>1580.2161351394</ele>
        <time>2020-02-16T08:30:11.010Z</time>
      </trkpt>
      <trkpt lat="44.8159" lon="6.94647">
        <ele>1581</ele>
        <time>2020-02-16T08:30:24.010Z</time>
      </trkpt>
      <trkpt lat="44.81585" lon="6.94659">
        <ele>1581.499999381</ele>
        <time>2020-02-16T08:30:34.010Z</time>
      </trkpt>
      <trkpt lat="44.81581" lon="6.94671">
        <ele>1582</ele>
        <time>2020-02-16T08:30:44.010Z</time>
      </trkpt>
      <trkpt lat="44.81584" lon="6.94683">
        <ele>1582.41699968</ele>
        <time>2020-02-16T08:30:53.010Z</time>
      </trkpt>
      <trkpt lat="44.8158" lon="6.94696">
        <ele>1582.9830511719</ele>
        <time>2020-02-16T08:30:59.010Z</time>
      </trkpt>
      <trkpt lat="44.81577" lon="6.94711">
        <ele>1582.0857433824</ele>
        <time>2020-02-16T08:31:08.010Z</time>
      </trkpt>
      <trkpt lat="44.81568" lon="6.94728">
        <ele>1582.0720517031</ele>
        <time>2020-02-16T08:31:20.010Z</time>
      </trkpt>
      <trkpt lat="44.81561" lon="6.9474">
        <ele>1584.65099904</ele>
        <time>2020-02-16T08:31:31.010Z</time>
      </trkpt>
      <trkpt lat="44.81555" lon="6.94751">
        <ele>1587</ele>
        <time>2020-02-16T08:31:41.010Z</time>
      </trkpt>
      <trkpt lat="44.81553" lon="6.94764">
        <ele>1588.43399936</ele>
        <time>2020-02-16T08:32:01.010Z</time>
      </trkpt>
      <trkpt lat="44.81547" lon="6.94773">
        <ele>1590</ele>
        <time>2020-02-16T08:32:11.010Z</time>
      </trkpt>
      <trkpt lat="44.81537" lon="6.94779">
        <ele>1590.0300582157</ele>
        <time>2020-02-16T08:32:19.010Z</time>
      </trkpt>
      <trkpt lat="44.81533" lon="6.94791">
        <ele>1591.4328647265</ele>
        <time>2020-02-16T08:32:26.010Z</time>
      </trkpt>
      <trkpt lat="44.81526" lon="6.94802">
        <ele>1591.48300032</ele>
        <time>2020-02-16T08:32:34.010Z</time>
      </trkpt>
      <trkpt lat="44.81521" lon="6.94812">
        <ele>1590.787879167</ele>
        <time>2020-02-16T08:32:41.010Z</time>
      </trkpt>
      <trkpt lat="44.81517" lon="6.94824">
        <ele>1590.0962122731</ele>
        <time>2020-02-16T08:32:50.010Z</time>
      </trkpt>
      <trkpt lat="44.81513" lon="6.94837">
        <ele>1592</ele>
        <time>2020-02-16T08:33:44.010Z</time>
      </trkpt>
      <trkpt lat="44.81512" lon="6.9485">
        <ele>1592.2936917332</ele>
        <time>2020-02-16T08:33:52.010Z</time>
      </trkpt>
      <trkpt lat="44.81511" lon="6.94864">
        <ele>1593.2112531368</ele>
        <time>2020-02-16T08:34:00.980Z</time>
      </trkpt>
      <trkpt lat="44.81513" lon="6.94877">
        <ele>1594.1050504371</ele>
        <time>2020-02-16T08:34:10.010Z</time>
      </trkpt>
      <trkpt lat="44.8151" lon="6.94889">
        <ele>1595.014041489</ele>
        <time>2020-02-16T08:34:19.010Z</time>
      </trkpt>
      <trkpt lat="44.81507" lon="6.94903">
        <ele>1595.9167499031</ele>
        <time>2020-02-16T08:34:28.010Z</time>
      </trkpt>
      <trkpt lat="44.81504" lon="6.94916">
        <ele>1596.61699968</ele>
        <time>2020-02-16T08:34:35.010Z</time>
      </trkpt>
      <trkpt lat="44.81499" lon="6.94928">
        <ele>1597</ele>
        <time>2020-02-16T08:34:42.010Z</time>
      </trkpt>
      <trkpt lat="44.81494" lon="6.9494">
        <ele>1597.01699968</ele>
        <time>2020-02-16T08:34:49.010Z</time>
      </trkpt>
      <trkpt lat="44.8149" lon="6.94951">
        <ele>1598.65099904</ele>
        <time>2020-02-16T08:35:01.010Z</time>
      </trkpt>
      <trkpt lat="44.81483" lon="6.9496">
        <ele>1600.75099904</ele>
        <time>2020-02-16T08:35:08.010Z</time>
      </trkpt>
      <trkpt lat="44.81477" lon="6.94971">
        <ele>1601.8153684213</ele>
        <time>2020-02-16T08:35:17.010Z</time>
      </trkpt>
      <trkpt lat="44.81471" lon="6.94983">
        <ele>1602</ele>
        <time>2020-02-16T08:35:27.010Z</time>
      </trkpt>
      <trkpt lat="44.81465" lon="6.94994">
        <ele>1602.71699968</ele>
        <time>2020-02-16T08:35:36.010Z</time>
      </trkpt>
      <trkpt lat="44.81459" lon="6.95005">
        <ele>1603.4195805537</ele>
        <time>2020-02-16T08:35:43.040Z</time>
      </trkpt>
      <trkpt lat="44.81454" lon="6.95015">
        <ele>1604</ele>
        <time>2020-02-16T08:35:49.040Z</time>
      </trkpt>
      <trkpt lat="44.81448" lon="6.95027">
        <ele>1604</ele>
        <time>2020-02-16T08:35:56.010Z</time>
      </trkpt>
      <trkpt lat="44.81443" lon="6.95039">
        <ele>1606.45099904</ele>
        <time>2020-02-16T08:36:07.010Z</time>
      </trkpt>
      <trkpt lat="44.8144" lon="6.95052">
        <ele>1607.91699968</ele>
        <time>2020-02-16T08:36:18.010Z</time>
      </trkpt>
      <trkpt lat="44.81437" lon="6.95065">
        <ele>1608</ele>
        <time>2020-02-16T08:36:27.010Z</time>
      </trkpt>
      <trkpt lat="44.81434" lon="6.95077">
        <ele>1608.6154615261</ele>
        <time>2020-02-16T08:36:35.010Z</time>
      </trkpt>
      <trkpt lat="44.81429" lon="6.9509">
        <ele>1609</ele>
        <time>2020-02-16T08:36:45.010Z</time>
      </trkpt>
      <trkpt lat="44.81425" lon="6.95102">
        <ele>1610.2086943509</ele>
        <time>2020-02-16T08:36:53.010Z</time>
      </trkpt>
      <trkpt lat="44.81421" lon="6.95115">
        <ele>1612</ele>
        <time>2020-02-16T08:37:01.010Z</time>
      </trkpt>
      <trkpt lat="44.81416" lon="6.95129">
        <ele>1612</ele>
        <time>2020-02-16T08:37:11.010Z</time>
      </trkpt>
      <trkpt lat="44.8141" lon="6.95139">
        <ele>1612</ele>
        <time>2020-02-16T08:37:18.010Z</time>
      </trkpt>
      <trkpt lat="44.81405" lon="6.95152">
        <ele>1612.0150291078</ele>
        <time>2020-02-16T08:37:29.010Z</time>
      </trkpt>
      <trkpt lat="44.814" lon="6.95164">
        <ele>1612.9168332934</ele>
        <time>2020-02-16T08:37:38.010Z</time>
      </trkpt>
      <trkpt lat="44.81396" lon="6.95176">
        <ele>1613</ele>
        <time>2020-02-16T08:37:46.010Z</time>
      </trkpt>
      <trkpt lat="44.81388" lon="6.95185">
        <ele>1613.6162318982</ele>
        <time>2020-02-16T08:37:55.010Z</time>
      </trkpt>
      <trkpt lat="44.81383" lon="6.95196">
        <ele>1614</ele>
        <time>2020-02-16T08:38:04.010Z</time>
      </trkpt>
      <trkpt lat="44.81373" lon="6.952">
        <ele>1615.5493625652</ele>
        <time>2020-02-16T08:38:12.010Z</time>
      </trkpt>
      <trkpt lat="44.81365" lon="6.95208">
        <ele>1619</ele>
        <time>2020-02-16T08:38:20.010Z</time>
      </trkpt>
      <trkpt lat="44.81358" lon="6.95216">
        <ele>1619.51699968</ele>
        <time>2020-02-16T08:38:34.010Z</time>
      </trkpt>
      <trkpt lat="44.81354" lon="6.95227">
        <ele>1620.51699968</ele>
        <time>2020-02-16T08:38:44.010Z</time>
      </trkpt>
      <trkpt lat="44.81348" lon="6.95238">
        <ele>1621.63399936</ele>
        <time>2020-02-16T08:38:52.010Z</time>
      </trkpt>
      <trkpt lat="44.81344" lon="6.9525">
        <ele>1622.98300032</ele>
        <time>2020-02-16T08:38:59.010Z</time>
      </trkpt>
      <trkpt lat="44.81339" lon="6.95264">
        <ele>1622.61399936</ele>
        <time>2020-02-16T08:39:14.980Z</time>
      </trkpt>
      <trkpt lat="44.81336" lon="6.95277">
        <ele>1623.51699968</ele>
        <time>2020-02-16T08:39:24.010Z</time>
      </trkpt>
      <trkpt lat="44.81329" lon="6.95286">
        <ele>1625.55099904</ele>
        <time>2020-02-16T08:39:34.010Z</time>
      </trkpt>
      <trkpt lat="44.81328" lon="6.95299">
        <ele>1627</ele>
        <time>2020-02-16T08:39:45.010Z</time>
      </trkpt>
      <trkpt lat="44.81319" lon="6.95307">
        <ele>1627.41699968</ele>
        <time>2020-02-16T08:39:53.010Z</time>
      </trkpt>
      <trkpt lat="44.81324" lon="6.95319">
        <ele>1629.5014516171</ele>
        <time>2020-02-16T08:40:04.010Z</time>
      </trkpt>
      <trkpt lat="44.81333" lon="6.95324">
        <ele>1630.6631170302</ele>
        <time>2020-02-16T08:40:08.010Z</time>
      </trkpt>
      <trkpt lat="44.81325" lon="6.95334">
        <ele>1632.21699968</ele>
        <time>2020-02-16T08:40:21.010Z</time>
      </trkpt>
      <trkpt lat="44.81315" lon="6.95337">
        <ele>1632.61699968</ele>
        <time>2020-02-16T08:40:25.010Z</time>
      </trkpt>
      <trkpt lat="44.81307" lon="6.95346">
        <ele>1633.43399936</ele>
        <time>2020-02-16T08:40:31.010Z</time>
      </trkpt>
      <trkpt lat="44.81299" lon="6.95354">
        <ele>1635</ele>
        <time>2020-02-16T08:40:39.010Z</time>
      </trkpt>
      <trkpt lat="44.81291" lon="6.95363">
        <ele>1635</ele>
        <time>2020-02-16T08:40:48.010Z</time>
      </trkpt>
      <trkpt lat="44.81284" lon="6.95375">
        <ele>1637.8766295291</ele>
        <time>2020-02-16T08:40:56.040Z</time>
      </trkpt>
      <trkpt lat="44.81278" lon="6.95386">
        <ele>1640.6321028492</ele>
        <time>2020-02-16T08:41:12.010Z</time>
      </trkpt>
      <trkpt lat="44.81272" lon="6.95396">
        <ele>1642.3939103122</ele>
        <time>2020-02-16T08:41:23.010Z</time>
      </trkpt>
      <trkpt lat="44.81267" lon="6.95408">
        <ele>1643.1331929754</ele>
        <time>2020-02-16T08:41:30.010Z</time>
      </trkpt>
      <trkpt lat="44.81265" lon="6.95421">
        <ele>1644.4016910602</ele>
        <time>2020-02-16T08:41:36.010Z</time>
      </trkpt>
      <trkpt lat="44.81262" lon="6.95434">
        <ele>1645</ele>
        <time>2020-02-16T08:41:44.010Z</time>
      </trkpt>
      <trkpt lat="44.81259" lon="6.95448">
        <ele>1645.31699968</ele>
        <time>2020-02-16T08:41:52.010Z</time>
      </trkpt>
      <trkpt lat="44.8126" lon="6.95461">
        <ele>1646</ele>
        <time>2020-02-16T08:41:59.010Z</time>
      </trkpt>
      <trkpt lat="44.8126" lon="6.95474">
        <ele>1646</ele>
        <time>2020-02-16T08:42:08.010Z</time>
      </trkpt>
      <trkpt lat="44.8126" lon="6.95487">
        <ele>1648.0665964877</ele>
        <time>2020-02-16T08:42:20.010Z</time>
      </trkpt>
      <trkpt lat="44.8126" lon="6.955">
        <ele>1650.5849984</ele>
        <time>2020-02-16T08:42:32.010Z</time>
      </trkpt>
      <trkpt lat="44.81263" lon="6.95512">
        <ele>1654.41699968</ele>
        <time>2020-02-16T08:42:43.010Z</time>
      </trkpt>
      <trkpt lat="44.81261" lon="6.95525">
        <ele>1657.91699968</ele>
        <time>2020-02-16T08:43:08.010Z</time>
      </trkpt>
      <trkpt lat="44.81263" lon="6.95538">
        <ele>1663.2078589591</ele>
        <time>2020-02-16T08:43:25.010Z</time>
      </trkpt>
      <trkpt lat="44.81262" lon="6.95551">
        <ele>1664.86799872</ele>
        <time>2020-02-16T08:43:41.010Z</time>
      </trkpt>
      <trkpt lat="44.81263" lon="6.95564">
        <ele>1669.83399936</ele>
        <time>2020-02-16T08:43:58.010Z</time>
      </trkpt>
      <trkpt lat="44.81262" lon="6.95577">
        <ele>1671.63399936</ele>
        <time>2020-02-16T08:44:12.010Z</time>
      </trkpt>
      <trkpt lat="44.8126" lon="6.9559">
        <ele>1674.03399936</ele>
        <time>2020-02-16T08:44:24.010Z</time>
      </trkpt>
      <trkpt lat="44.81259" lon="6.95604">
        <ele>1675.91699968</ele>
        <time>2020-02-16T08:44:38.010Z</time>
      </trkpt>
      <trkpt lat="44.81255" lon="6.95616">
        <ele>1679.0849984</ele>
        <time>2020-02-16T08:44:53.010Z</time>
      </trkpt>
      <trkpt lat="44.81253" lon="6.95629">
        <ele>1681.38300032</ele>
        <time>2020-02-16T08:45:05.010Z</time>
      </trkpt>
      <trkpt lat="44.81252" lon="6.95643">
        <ele>1682.43399936</ele>
        <time>2020-02-16T08:45:16.010Z</time>
      </trkpt>
      <trkpt lat="44.81253" lon="6.95656">
        <ele>1683.71699968</ele>
        <time>2020-02-16T08:45:26.010Z</time>
      </trkpt>
      <trkpt lat="44.81252" lon="6.95669">
        <ele>1684</ele>
        <time>2020-02-16T08:45:34.010Z</time>
      </trkpt>
      <trkpt lat="44.81255" lon="6.95683">
        <ele>1684</ele>
        <time>2020-02-16T08:45:41.010Z</time>
      </trkpt>
      <trkpt lat="44.81259" lon="6.95697">
        <ele>1684.014041489</ele>
        <time>2020-02-16T08:45:49.010Z</time>
      </trkpt>
      <trkpt lat="44.8126" lon="6.95711">
        <ele>1684.9167499031</ele>
        <time>2020-02-16T08:45:58.010Z</time>
      </trkpt>
      <trkpt lat="44.8126" lon="6.95724">
        <ele>1685</ele>
        <time>2020-02-16T08:46:07.010Z</time>
      </trkpt>
      <trkpt lat="44.8126" lon="6.95737">
        <ele>1685</ele>
        <time>2020-02-16T08:46:15.010Z</time>
      </trkpt>
      <trkpt lat="44.8126" lon="6.9575">
        <ele>1685.5972893235</ele>
        <time>2020-02-16T08:46:25.010Z</time>
      </trkpt>
      <trkpt lat="44.81261" lon="6.95763">
        <ele>1687.0010337949</ele>
        <time>2020-02-16T08:46:34.010Z</time>
      </trkpt>
      <trkpt lat="44.81262" lon="6.95777">
        <ele>1688.51699968</ele>
        <time>2020-02-16T08:46:44.010Z</time>
      </trkpt>
      <trkpt lat="44.81263" lon="6.95791">
        <ele>1689.05099904</ele>
        <time>2020-02-16T08:46:59.010Z</time>
      </trkpt>
      <trkpt lat="44.81259" lon="6.95803">
        <ele>1692</ele>
        <time>2020-02-16T08:47:11.010Z</time>
      </trkpt>
      <trkpt lat="44.81259" lon="6.95816">
        <ele>1691.4839685669</ele>
        <time>2020-02-16T08:47:24.010Z</time>
      </trkpt>
      <trkpt lat="44.81256" lon="6.95829">
        <ele>1692.25099904</ele>
        <time>2020-02-16T08:47:33.010Z</time>
      </trkpt>
      <trkpt lat="44.81256" lon="6.95842">
        <ele>1694.21699968</ele>
        <time>2020-02-16T08:47:41.010Z</time>
      </trkpt>
      <trkpt lat="44.81254" lon="6.95856">
        <ele>1695</ele>
        <time>2020-02-16T08:47:51.010Z</time>
      </trkpt>
      <trkpt lat="44.81251" lon="6.95869">
        <ele>1695.11699968</ele>
        <time>2020-02-16T08:48:00.010Z</time>
      </trkpt>
      <trkpt lat="44.8125" lon="6.95883">
        <ele>1695.91699968</ele>
        <time>2020-02-16T08:48:08.010Z</time>
      </trkpt>
      <trkpt lat="44.81251" lon="6.95896">
        <ele>1697.43399936</ele>
        <time>2020-02-16T08:48:16.010Z</time>
      </trkpt>
      <trkpt lat="44.81249" lon="6.95908">
        <ele>1698.71699968</ele>
        <time>2020-02-16T08:48:26.010Z</time>
      </trkpt>
      <trkpt lat="44.81248" lon="6.95922">
        <ele>1699</ele>
        <time>2020-02-16T08:48:38.010Z</time>
      </trkpt>
      <trkpt lat="44.81247" lon="6.95935">
        <ele>1699.71699968</ele>
        <time>2020-02-16T08:48:46.010Z</time>
      </trkpt>
      <trkpt lat="44.81242" lon="6.95947">
        <ele>1700.110900137</ele>
        <time>2020-02-16T08:49:00.010Z</time>
      </trkpt>
      <trkpt lat="44.81239" lon="6.9596">
        <ele>1701.1312156211</ele>
        <time>2020-02-16T08:49:10.010Z</time>
      </trkpt>
      <trkpt lat="44.81232" lon="6.95969">
        <ele>1703.21699968</ele>
        <time>2020-02-16T08:49:21.010Z</time>
      </trkpt>
      <trkpt lat="44.81225" lon="6.95979">
        <ele>1704.3068729702</ele>
        <time>2020-02-16T08:49:32.010Z</time>
      </trkpt>
      <trkpt lat="44.8122" lon="6.9599">
        <ele>1705.2874493927</ele>
        <time>2020-02-16T08:49:42.010Z</time>
      </trkpt>
      <trkpt lat="44.81215" lon="6.96002">
        <ele>1706.1921921306</ele>
        <time>2020-02-16T08:49:50.010Z</time>
      </trkpt>
      <trkpt lat="44.8121" lon="6.96013">
        <ele>1708</ele>
        <time>2020-02-16T08:50:00.010Z</time>
      </trkpt>
      <trkpt lat="44.81204" lon="6.96026">
        <ele>1708</ele>
        <time>2020-02-16T08:50:11.040Z</time>
      </trkpt>
      <trkpt lat="44.81198" lon="6.96037">
        <ele>1709.2457356857</ele>
        <time>2020-02-16T08:50:23.010Z</time>
      </trkpt>
      <trkpt lat="44.81194" lon="6.96049">
        <ele>1711</ele>
        <time>2020-02-16T08:50:34.010Z</time>
      </trkpt>
      <trkpt lat="44.81191" lon="6.96062">
        <ele>1711.31699968</ele>
        <time>2020-02-16T08:50:42.010Z</time>
      </trkpt>
      <trkpt lat="44.81192" lon="6.96077">
        <ele>1712.21699968</ele>
        <time>2020-02-16T08:50:51.010Z</time>
      </trkpt>
      <trkpt lat="44.81194" lon="6.96091">
        <ele>1712.91699968</ele>
        <time>2020-02-16T08:50:58.010Z</time>
      </trkpt>
      <trkpt lat="44.81193" lon="6.96104">
        <ele>1713</ele>
        <time>2020-02-16T08:51:07.040Z</time>
      </trkpt>
      <trkpt lat="44.81189" lon="6.96116">
        <ele>1713</ele>
        <time>2020-02-16T08:51:14.010Z</time>
      </trkpt>
      <trkpt lat="44.81192" lon="6.96129">
        <ele>1714.6656651321</ele>
        <time>2020-02-16T08:51:23.010Z</time>
      </trkpt>
      <trkpt lat="44.81197" lon="6.96141">
        <ele>1717.2129534954</ele>
        <time>2020-02-16T08:51:31.010Z</time>
      </trkpt>
      <trkpt lat="44.812" lon="6.96154">
        <ele>1718.0997957473</ele>
        <time>2020-02-16T08:51:40.010Z</time>
      </trkpt>
      <trkpt lat="44.812" lon="6.96168">
        <ele>1719</ele>
        <time>2020-02-16T08:51:49.010Z</time>
      </trkpt>
      <trkpt lat="44.81199" lon="6.96181">
        <ele>1719</ele>
        <time>2020-02-16T08:51:58.010Z</time>
      </trkpt>
      <trkpt lat="44.81197" lon="6.96193">
        <ele>1720.63399936</ele>
        <time>2020-02-16T08:52:07.010Z</time>
      </trkpt>
      <trkpt lat="44.81192" lon="6.96206">
        <ele>1721</ele>
        <time>2020-02-16T08:52:17.010Z</time>
      </trkpt>
      <trkpt lat="44.81188" lon="6.96219">
        <ele>1722</ele>
        <time>2020-02-16T08:52:29.010Z</time>
      </trkpt>
      <trkpt lat="44.81183" lon="6.9623">
        <ele>1722</ele>
        <time>2020-02-16T08:52:36.010Z</time>
      </trkpt>
      <trkpt lat="44.81177" lon="6.96241">
        <ele>1722</ele>
        <time>2020-02-16T08:52:44.980Z</time>
      </trkpt>
      <trkpt lat="44.81172" lon="6.96252">
        <ele>1722.292227413</ele>
        <time>2020-02-16T08:52:52.010Z</time>
      </trkpt>
      <trkpt lat="44.81167" lon="6.96262">
        <ele>1722.9139892772</ele>
        <time>2020-02-16T08:52:58.010Z</time>
      </trkpt>
      <trkpt lat="44.81162" lon="6.96274">
        <ele>1723</ele>
        <time>2020-02-16T08:53:07.010Z</time>
      </trkpt>
      <trkpt lat="44.81163" lon="6.96288">
        <ele>1723.51699968</ele>
        <time>2020-02-16T08:53:14.010Z</time>
      </trkpt>
      <trkpt lat="44.8116" lon="6.96302">
        <ele>1724.3986615059</ele>
        <time>2020-02-16T08:53:23.010Z</time>
      </trkpt>
      <trkpt lat="44.8116" lon="6.96316">
        <ele>1725</ele>
        <time>2020-02-16T08:53:30.010Z</time>
      </trkpt>
      <trkpt lat="44.81159" lon="6.9633">
        <ele>1725.43399936</ele>
        <time>2020-02-16T08:53:41.010Z</time>
      </trkpt>
      <trkpt lat="44.81159" lon="6.96344">
        <ele>1727</ele>
        <time>2020-02-16T08:53:49.010Z</time>
      </trkpt>
      <trkpt lat="44.81161" lon="6.96357">
        <ele>1727</ele>
        <time>2020-02-16T08:53:56.010Z</time>
      </trkpt>
      <trkpt lat="44.81161" lon="6.9637">
        <ele>1727</ele>
        <time>2020-02-16T08:54:03.010Z</time>
      </trkpt>
      <trkpt lat="44.81162" lon="6.96384">
        <ele>1727.63399936</ele>
        <time>2020-02-16T08:54:12.010Z</time>
      </trkpt>
      <trkpt lat="44.81163" lon="6.96397">
        <ele>1728.78300032</ele>
        <time>2020-02-16T08:54:21.010Z</time>
      </trkpt>
      <trkpt lat="44.81164" lon="6.96411">
        <ele>1728.08300032</ele>
        <time>2020-02-16T08:54:28.010Z</time>
      </trkpt>
      <trkpt lat="44.81162" lon="6.96424">
        <ele>1728.61699968</ele>
        <time>2020-02-16T08:54:35.010Z</time>
      </trkpt>
      <trkpt lat="44.81162" lon="6.96436">
        <ele>1729</ele>
        <time>2020-02-16T08:54:43.010Z</time>
      </trkpt>
      <trkpt lat="44.81162" lon="6.96449">
        <ele>1729.63399936</ele>
        <time>2020-02-16T08:54:52.010Z</time>
      </trkpt>
      <trkpt lat="44.81163" lon="6.96463">
        <ele>1731</ele>
        <time>2020-02-16T08:55:00.010Z</time>
      </trkpt>
      <trkpt lat="44.81165" lon="6.96475">
        <ele>1731</ele>
        <time>2020-02-16T08:55:07.010Z</time>
      </trkpt>
      <trkpt lat="44.81165" lon="6.96488">
        <ele>1731</ele>
        <time>2020-02-16T08:55:15.010Z</time>
      </trkpt>
      <trkpt lat="44.81166" lon="6.96501">
        <ele>1731.3007588923</ele>
        <time>2020-02-16T08:55:22.010Z</time>
      </trkpt>
      <trkpt lat="44.81168" lon="6.96514">
        <ele>1732</ele>
        <time>2020-02-16T08:55:30.010Z</time>
      </trkpt>
      <trkpt lat="44.81169" lon="6.96527">
        <ele>1732</ele>
        <time>2020-02-16T08:55:37.010Z</time>
      </trkpt>
      <trkpt lat="44.81171" lon="6.96541">
        <ele>1732</ele>
        <time>2020-02-16T08:55:48.010Z</time>
      </trkpt>
      <trkpt lat="44.81173" lon="6.96554">
        <ele>1732</ele>
        <time>2020-02-16T08:55:57.010Z</time>
      </trkpt>
      <trkpt lat="44.81176" lon="6.96566">
        <ele>1732.4994813677</ele>
        <time>2020-02-16T08:56:04.010Z</time>
      </trkpt>
      <trkpt lat="44.81178" lon="6.96579">
        <ele>1733</ele>
        <time>2020-02-16T08:56:10.010Z</time>
      </trkpt>
      <trkpt lat="44.8118" lon="6.96592">
        <ele>1733</ele>
        <time>2020-02-16T08:56:18.010Z</time>
      </trkpt>
      <trkpt lat="44.81182" lon="6.96605">
        <ele>1733</ele>
        <time>2020-02-16T08:56:27.010Z</time>
      </trkpt>
      <trkpt lat="44.81184" lon="6.96619">
        <ele>1733.71699968</ele>
        <time>2020-02-16T08:56:36.010Z</time>
      </trkpt>
      <trkpt lat="44.81187" lon="6.96633">
        <ele>1735.23399936</ele>
        <time>2020-02-16T08:56:45.010Z</time>
      </trkpt>
      <trkpt lat="44.81189" lon="6.96646">
        <ele>1735.28300032</ele>
        <time>2020-02-16T08:56:56.010Z</time>
      </trkpt>
      <trkpt lat="44.81192" lon="6.96659">
        <ele>1735.61699968</ele>
        <time>2020-02-16T08:57:05.010Z</time>
      </trkpt>
      <trkpt lat="44.81197" lon="6.9667">
        <ele>1736</ele>
        <time>2020-02-16T08:57:12.010Z</time>
      </trkpt>
      <trkpt lat="44.81201" lon="6.96682">
        <ele>1736</ele>
        <time>2020-02-16T08:57:19.010Z</time>
      </trkpt>
      <trkpt lat="44.81203" lon="6.96695">
        <ele>1736</ele>
        <time>2020-02-16T08:57:28.010Z</time>
      </trkpt>
      <trkpt lat="44.81204" lon="6.96709">
        <ele>1736</ele>
        <time>2020-02-16T08:57:38.010Z</time>
      </trkpt>
      <trkpt lat="44.81199" lon="6.9672">
        <ele>1736.2146433588</ele>
        <time>2020-02-16T08:57:51.010Z</time>
      </trkpt>
      <trkpt lat="44.81205" lon="6.9673">
        <ele>1737</ele>
        <time>2020-02-16T08:58:55.010Z</time>
      </trkpt>
      <trkpt lat="44.81197" lon="6.96724">
        <ele>1737</ele>
        <time>2020-02-16T08:59:52.010Z</time>
      </trkpt>
      <trkpt lat="44.81197" lon="6.96737">
        <ele>1737</ele>
        <time>2020-02-16T09:01:10.010Z</time>
      </trkpt>
      <trkpt lat="44.81196" lon="6.96749">
        <ele>1737</ele>
        <time>2020-02-16T09:02:05.010Z</time>
      </trkpt>
      <trkpt lat="44.81192" lon="6.96762">
        <ele>1738.7754113535</ele>
        <time>2020-02-16T09:02:18.010Z</time>
      </trkpt>
      <trkpt lat="44.81185" lon="6.96771">
        <ele>1737.7921410409</ele>
        <time>2020-02-16T09:02:25.010Z</time>
      </trkpt>
      <trkpt lat="44.81179" lon="6.96781">
        <ele>1736.68300032</ele>
        <time>2020-02-16T09:02:32.010Z</time>
      </trkpt>
      <trkpt lat="44.81177" lon="6.96794">
        <ele>1736.6163834937</ele>
        <time>2020-02-16T09:02:45.010Z</time>
      </trkpt>
      <trkpt lat="44.81175" lon="6.96808">
        <ele>1738.2332328382</ele>
        <time>2020-02-16T09:02:55.010Z</time>
      </trkpt>
      <trkpt lat="44.81172" lon="6.96821">
        <ele>1739</ele>
        <time>2020-02-16T09:03:04.010Z</time>
      </trkpt>
      <trkpt lat="44.81173" lon="6.96834">
        <ele>1739</ele>
        <time>2020-02-16T09:03:13.010Z</time>
      </trkpt>
      <trkpt lat="44.81171" lon="6.96846">
        <ele>1739.83399936</ele>
        <time>2020-02-16T09:03:23.010Z</time>
      </trkpt>
      <trkpt lat="44.81166" lon="6.96856">
        <ele>1742.3160514246</ele>
        <time>2020-02-16T09:03:42.010Z</time>
      </trkpt>
      <trkpt lat="44.81159" lon="6.96865">
        <ele>1743</ele>
        <time>2020-02-16T09:03:52.010Z</time>
      </trkpt>
      <trkpt lat="44.8115" lon="6.96871">
        <ele>1743</ele>
        <time>2020-02-16T09:03:59.040Z</time>
      </trkpt>
      <trkpt lat="44.81143" lon="6.96879">
        <ele>1743</ele>
        <time>2020-02-16T09:04:08.010Z</time>
      </trkpt>
      <trkpt lat="44.81133" lon="6.96878">
        <ele>1745.7507498696</ele>
        <time>2020-02-16T09:04:18.010Z</time>
      </trkpt>
      <trkpt lat="44.81124" lon="6.96881">
        <ele>1746</ele>
        <time>2020-02-16T09:04:28.010Z</time>
      </trkpt>
      <trkpt lat="44.81117" lon="6.96874">
        <ele>1746.91699968</ele>
        <time>2020-02-16T09:04:38.010Z</time>
      </trkpt>
      <trkpt lat="44.81112" lon="6.96862">
        <ele>1748.0980592121</ele>
        <time>2020-02-16T09:05:00.010Z</time>
      </trkpt>
      <trkpt lat="44.81104" lon="6.96854">
        <ele>1749</ele>
        <time>2020-02-16T09:05:12.010Z</time>
      </trkpt>
      <trkpt lat="44.81095" lon="6.96848">
        <ele>1749.9188393681</ele>
        <time>2020-02-16T09:05:22.010Z</time>
      </trkpt>
      <trkpt lat="44.81085" lon="6.96845">
        <ele>1752.6031083451</ele>
        <time>2020-02-16T09:05:35.010Z</time>
      </trkpt>
      <trkpt lat="44.81075" lon="6.96844">
        <ele>1753.51699968</ele>
        <time>2020-02-16T09:05:44.010Z</time>
      </trkpt>
      <trkpt lat="44.81065" lon="6.96845">
        <ele>1754</ele>
        <time>2020-02-16T09:05:55.010Z</time>
      </trkpt>
      <trkpt lat="44.81055" lon="6.96849">
        <ele>1755.6336331104</ele>
        <time>2020-02-16T09:06:07.010Z</time>
      </trkpt>
      <trkpt lat="44.81047" lon="6.96855">
        <ele>1756</ele>
        <time>2020-02-16T09:06:22.010Z</time>
      </trkpt>
      <trkpt lat="44.81041" lon="6.96864">
        <ele>1756.4157522901</ele>
        <time>2020-02-16T09:06:33.010Z</time>
      </trkpt>
      <trkpt lat="44.81034" lon="6.96874">
        <ele>1757.2286848477</ele>
        <time>2020-02-16T09:06:40.010Z</time>
      </trkpt>
      <trkpt lat="44.81026" lon="6.96882">
        <ele>1759</ele>
        <time>2020-02-16T09:06:58.010Z</time>
      </trkpt>
      <trkpt lat="44.81019" lon="6.9689">
        <ele>1760</ele>
        <time>2020-02-16T09:07:09.010Z</time>
      </trkpt>
      <trkpt lat="44.81011" lon="6.96897">
        <ele>1760.3327004109</ele>
        <time>2020-02-16T09:07:20.010Z</time>
      </trkpt>
      <trkpt lat="44.81003" lon="6.96904">
        <ele>1763.0656078106</ele>
        <time>2020-02-16T09:07:30.010Z</time>
      </trkpt>
      <trkpt lat="44.80994" lon="6.96911">
        <ele>1764.01699968</ele>
        <time>2020-02-16T09:07:39.010Z</time>
      </trkpt>
      <trkpt lat="44.80986" lon="6.96917">
        <ele>1764.91699968</ele>
        <time>2020-02-16T09:07:48.010Z</time>
      </trkpt>
      <trkpt lat="44.80981" lon="6.96927">
        <ele>1766</ele>
        <time>2020-02-16T09:08:00.010Z</time>
      </trkpt>
      <trkpt lat="44.80981" lon="6.96943">
        <ele>1766</ele>
        <time>2020-02-16T09:08:06.010Z</time>
      </trkpt>
      <trkpt lat="44.80977" lon="6.96956">
        <ele>1766</ele>
        <time>2020-02-16T09:08:14.010Z</time>
      </trkpt>
      <trkpt lat="44.80969" lon="6.96966">
        <ele>1766.32</ele>
        <time>2020-02-16T09:08:22.040Z</time>
      </trkpt>
      <trkpt lat="44.80966" lon="6.96979">
        <ele>1767</ele>
        <time>2020-02-16T09:08:31.010Z</time>
      </trkpt>
      <trkpt lat="44.80961" lon="6.9699">
        <ele>1767.0349726654</ele>
        <time>2020-02-16T09:08:40.010Z</time>
      </trkpt>
      <trkpt lat="44.80952" lon="6.96994">
        <ele>1767.9092892995</ele>
        <time>2020-02-16T09:08:48.010Z</time>
      </trkpt>
      <trkpt lat="44.80947" lon="6.97004">
        <ele>1769.42800128</ele>
        <time>2020-02-16T09:08:55.980Z</time>
      </trkpt>
      <trkpt lat="44.80945" lon="6.97017">
        <ele>1771.9012223862</ele>
        <time>2020-02-16T09:09:10.010Z</time>
      </trkpt>
      <trkpt lat="44.80942" lon="6.9703">
        <ele>1774.2534912597</ele>
        <time>2020-02-16T09:09:27.010Z</time>
      </trkpt>
      <trkpt lat="44.80934" lon="6.97035">
        <ele>1776.0361445783</ele>
        <time>2020-02-16T09:09:34.040Z</time>
      </trkpt>
      <trkpt lat="44.80926" lon="6.97042">
        <ele>1777</ele>
        <time>2020-02-16T09:09:43.010Z</time>
      </trkpt>
      <trkpt lat="44.80919" lon="6.97052">
        <ele>1779</ele>
        <time>2020-02-16T09:10:00.010Z</time>
      </trkpt>
      <trkpt lat="44.8091" lon="6.97056">
        <ele>1780.25099904</ele>
        <time>2020-02-16T09:10:13.010Z</time>
      </trkpt>
      <trkpt lat="44.80902" lon="6.97062">
        <ele>1784.139092481</ele>
        <time>2020-02-16T09:10:30.010Z</time>
      </trkpt>
      <trkpt lat="44.80895" lon="6.9707">
        <ele>1788.0849984</ele>
        <time>2020-02-16T09:10:53.010Z</time>
      </trkpt>
      <trkpt lat="44.80886" lon="6.97074">
        <ele>1792</ele>
        <time>2020-02-16T09:11:09.010Z</time>
      </trkpt>
      <trkpt lat="44.80877" lon="6.97077">
        <ele>1793.25099904</ele>
        <time>2020-02-16T09:11:23.010Z</time>
      </trkpt>
      <trkpt lat="44.80868" lon="6.97082">
        <ele>1795</ele>
        <time>2020-02-16T09:11:38.010Z</time>
      </trkpt>
      <trkpt lat="44.80859" lon="6.97085">
        <ele>1796</ele>
        <time>2020-02-16T09:11:50.010Z</time>
      </trkpt>
      <trkpt lat="44.8085" lon="6.9709">
        <ele>1796.0980592121</ele>
        <time>2020-02-16T09:12:00.010Z</time>
      </trkpt>
      <trkpt lat="44.80843" lon="6.97099">
        <ele>1797.0169827027</ele>
        <time>2020-02-16T09:12:09.010Z</time>
      </trkpt>
      <trkpt lat="44.80834" lon="6.97105">
        <ele>1798</ele>
        <time>2020-02-16T09:12:19.010Z</time>
      </trkpt>
      <trkpt lat="44.80826" lon="6.9711">
        <ele>1798</ele>
        <time>2020-02-16T09:12:31.010Z</time>
      </trkpt>
      <trkpt lat="44.80816" lon="6.97111">
        <ele>1798</ele>
        <time>2020-02-16T09:12:46.010Z</time>
      </trkpt>
      <trkpt lat="44.80807" lon="6.97112">
        <ele>1798</ele>
        <time>2020-02-16T09:13:01.010Z</time>
      </trkpt>
      <trkpt lat="44.808" lon="6.9712">
        <ele>1798.1331929754</ele>
        <time>2020-02-16T09:13:10.010Z</time>
      </trkpt>
      <trkpt lat="44.80798" lon="6.97133">
        <ele>1800</ele>
        <time>2020-02-16T09:14:07.010Z</time>
      </trkpt>
      <trkpt lat="44.80788" lon="6.97138">
        <ele>1800.81699968</ele>
        <time>2020-02-16T09:14:27.010Z</time>
      </trkpt>
      <trkpt lat="44.80781" lon="6.97152">
        <ele>1800</ele>
        <time>2020-02-16T09:14:43.040Z</time>
      </trkpt>
      <trkpt lat="44.80772" lon="6.97152">
        <ele>1800.499999381</ele>
        <time>2020-02-16T09:14:54.010Z</time>
      </trkpt>
      <trkpt lat="44.80769" lon="6.9714">
        <ele>1801</ele>
        <time>2020-02-16T09:15:22.010Z</time>
      </trkpt>
      <trkpt lat="44.80762" lon="6.97148">
        <ele>1801.5159674149</ele>
        <time>2020-02-16T09:15:44.010Z</time>
      </trkpt>
      <trkpt lat="44.80752" lon="6.9715">
        <ele>1802.5160314331</ele>
        <time>2020-02-16T09:15:54.010Z</time>
      </trkpt>
      <trkpt lat="44.80745" lon="6.9716">
        <ele>1805.6157677504</ele>
        <time>2020-02-16T09:16:25.010Z</time>
      </trkpt>
      <trkpt lat="44.80737" lon="6.97167">
        <ele>1806.8166328283</ele>
        <time>2020-02-16T09:16:37.010Z</time>
      </trkpt>
      <trkpt lat="44.80728" lon="6.97165">
        <ele>1807.62</ele>
        <time>2020-02-16T09:16:55.040Z</time>
      </trkpt>
      <trkpt lat="44.80719" lon="6.97172">
        <ele>1808</ele>
        <time>2020-02-16T09:17:05.010Z</time>
      </trkpt>
      <trkpt lat="44.80711" lon="6.97176">
        <ele>1808.9168332934</ele>
        <time>2020-02-16T09:17:18.010Z</time>
      </trkpt>
      <trkpt lat="44.80702" lon="6.97181">
        <ele>1812</ele>
        <time>2020-02-16T09:17:34.010Z</time>
      </trkpt>
      <trkpt lat="44.80694" lon="6.97189">
        <ele>1812</ele>
        <time>2020-02-16T09:17:52.010Z</time>
      </trkpt>
      <trkpt lat="44.80684" lon="6.97188">
        <ele>1813.7754113535</ele>
        <time>2020-02-16T09:18:08.010Z</time>
      </trkpt>
      <trkpt lat="44.80674" lon="6.97188">
        <ele>1815</ele>
        <time>2020-02-16T09:18:19.040Z</time>
      </trkpt>
      <trkpt lat="44.8068" lon="6.97178">
        <ele>1815.0150291078</ele>
        <time>2020-02-16T09:18:29.010Z</time>
      </trkpt>
      <trkpt lat="44.80673" lon="6.97188">
        <ele>1817.5479022449</ele>
        <time>2020-02-16T09:18:44.010Z</time>
      </trkpt>
      <trkpt lat="44.8067" lon="6.972">
        <ele>1820.01699968</ele>
        <time>2020-02-16T09:19:09.010Z</time>
      </trkpt>
      <trkpt lat="44.80665" lon="6.97211">
        <ele>1822.85099904</ele>
        <time>2020-02-16T09:19:25.010Z</time>
      </trkpt>
      <trkpt lat="44.80656" lon="6.97214">
        <ele>1828</ele>
        <time>2020-02-16T09:20:13.010Z</time>
      </trkpt>
      <trkpt lat="44.80654" lon="6.97227">
        <ele>1828.9491002321</ele>
        <time>2020-02-16T09:20:52.010Z</time>
      </trkpt>
      <trkpt lat="44.8065" lon="6.97239">
        <ele>1833.293877551</ele>
        <time>2020-02-16T09:22:10.010Z</time>
      </trkpt>
      <trkpt lat="44.80653" lon="6.97252">
        <ele>1841</ele>
        <time>2020-02-16T09:22:48.010Z</time>
      </trkpt>
      <trkpt lat="44.80646" lon="6.9726">
        <ele>1841.8617201518</ele>
        <time>2020-02-16T09:23:01.010Z</time>
      </trkpt>
      <trkpt lat="44.80643" lon="6.97272">
        <ele>1844.9151687568</ele>
        <time>2020-02-16T09:23:28.010Z</time>
      </trkpt>
      <trkpt lat="44.80637" lon="6.97282">
        <ele>1849.31699968</ele>
        <time>2020-02-16T09:23:42.010Z</time>
      </trkpt>
      <trkpt lat="44.80632" lon="6.97293">
        <ele>1851.55099904</ele>
        <time>2020-02-16T09:23:54.010Z</time>
      </trkpt>
      <trkpt lat="44.80641" lon="6.97294">
        <ele>1853.41699968</ele>
        <time>2020-02-16T09:24:23.010Z</time>
      </trkpt>
      <trkpt lat="44.80651" lon="6.97293">
        <ele>1856.4581660558</ele>
        <time>2020-02-16T09:24:35.010Z</time>
      </trkpt>
      <trkpt lat="44.8065" lon="6.97306">
        <ele>1861.41699968</ele>
        <time>2020-02-16T09:24:53.010Z</time>
      </trkpt>
      <trkpt lat="44.80648" lon="6.97319">
        <ele>1862</ele>
        <time>2020-02-16T09:25:08.010Z</time>
      </trkpt>
      <trkpt lat="44.80646" lon="6.97331">
        <ele>1863.31699968</ele>
        <time>2020-02-16T09:25:22.010Z</time>
      </trkpt>
      <trkpt lat="44.80638" lon="6.97339">
        <ele>1866.45099904</ele>
        <time>2020-02-16T09:25:37.010Z</time>
      </trkpt>
      <trkpt lat="44.8063" lon="6.97343">
        <ele>1869</ele>
        <time>2020-02-16T09:25:49.010Z</time>
      </trkpt>
      <trkpt lat="44.80623" lon="6.97354">
        <ele>1872.0849984</ele>
        <time>2020-02-16T09:26:05.010Z</time>
      </trkpt>
      <trkpt lat="44.80618" lon="6.97365">
        <ele>1874.7162836256</ele>
        <time>2020-02-16T09:26:16.010Z</time>
      </trkpt>
      <trkpt lat="44.8061" lon="6.97371">
        <ele>1875.7167164871</ele>
        <time>2020-02-16T09:26:26.010Z</time>
      </trkpt>
      <trkpt lat="44.80602" lon="6.97375">
        <ele>1877</ele>
        <time>2020-02-16T09:26:40.010Z</time>
      </trkpt>
      <trkpt lat="44.80594" lon="6.97381">
        <ele>1878.03399936</ele>
        <time>2020-02-16T09:26:54.010Z</time>
      </trkpt>
      <trkpt lat="44.80588" lon="6.97391">
        <ele>1881.75099904</ele>
        <time>2020-02-16T09:27:08.010Z</time>
      </trkpt>
      <trkpt lat="44.80596" lon="6.97397">
        <ele>1882.0339314753</ele>
        <time>2020-02-16T09:27:19.010Z</time>
      </trkpt>
      <trkpt lat="44.80603" lon="6.97405">
        <ele>1884.0725994417</ele>
        <time>2020-02-16T09:27:29.010Z</time>
      </trkpt>
      <trkpt lat="44.8061" lon="6.97412">
        <ele>1887.9448174853</ele>
        <time>2020-02-16T09:27:37.010Z</time>
      </trkpt>
      <trkpt lat="44.80619" lon="6.97418">
        <ele>1890</ele>
        <time>2020-02-16T09:27:50.010Z</time>
      </trkpt>
      <trkpt lat="44.80628" lon="6.97423">
        <ele>1890.2886368192</ele>
        <time>2020-02-16T09:28:00.010Z</time>
      </trkpt>
      <trkpt lat="44.80621" lon="6.97432">
        <ele>1893.1924245461</ele>
        <time>2020-02-16T09:28:20.010Z</time>
      </trkpt>
      <trkpt lat="44.80613" lon="6.97439">
        <ele>1895.83399936</ele>
        <time>2020-02-16T09:28:33.010Z</time>
      </trkpt>
      <trkpt lat="44.80605" lon="6.97445">
        <ele>1897.31699968</ele>
        <time>2020-02-16T09:28:42.010Z</time>
      </trkpt>
      <trkpt lat="44.80597" lon="6.97453">
        <ele>1899.43399936</ele>
        <time>2020-02-16T09:28:56.010Z</time>
      </trkpt>
      <trkpt lat="44.80591" lon="6.97463">
        <ele>1900.8153684213</ele>
        <time>2020-02-16T09:29:07.010Z</time>
      </trkpt>
      <trkpt lat="44.80582" lon="6.9747">
        <ele>1902.8336665867</ele>
        <time>2020-02-16T09:29:18.010Z</time>
      </trkpt>
      <trkpt lat="44.80574" lon="6.97475">
        <ele>1904.215430038</ele>
        <time>2020-02-16T09:29:31.010Z</time>
      </trkpt>
      <trkpt lat="44.80565" lon="6.97479">
        <ele>1905.3166830982</ele>
        <time>2020-02-16T09:29:42.010Z</time>
      </trkpt>
      <trkpt lat="44.80556" lon="6.97485">
        <ele>1906.416416283</ele>
        <time>2020-02-16T09:29:53.010Z</time>
      </trkpt>
      <trkpt lat="44.80547" lon="6.97487">
        <ele>1907</ele>
        <time>2020-02-16T09:30:06.010Z</time>
      </trkpt>
      <trkpt lat="44.80537" lon="6.97488">
        <ele>1910.4157522901</ele>
        <time>2020-02-16T09:30:23.010Z</time>
      </trkpt>
      <trkpt lat="44.80533" lon="6.97476">
        <ele>1909.7903385382</ele>
        <time>2020-02-16T09:30:41.010Z</time>
      </trkpt>
      <trkpt lat="44.80525" lon="6.97469">
        <ele>1909</ele>
        <time>2020-02-16T09:30:53.010Z</time>
      </trkpt>
      <trkpt lat="44.80534" lon="6.97476">
        <ele>1910.41699968</ele>
        <time>2020-02-16T09:32:13.010Z</time>
      </trkpt>
      <trkpt lat="44.80526" lon="6.97482">
        <ele>1911.2167829664</ele>
        <time>2020-02-16T09:33:31.010Z</time>
      </trkpt>
      <trkpt lat="44.80534" lon="6.97465">
        <ele>1912</ele>
        <time>2020-02-16T09:33:43.010Z</time>
      </trkpt>
      <trkpt lat="44.80533" lon="6.97483">
        <ele>1911.4995161276</ele>
        <time>2020-02-16T09:33:54.010Z</time>
      </trkpt>
      <trkpt lat="44.80524" lon="6.97482">
        <ele>1912.2886368192</ele>
        <time>2020-02-16T09:35:20.010Z</time>
      </trkpt>
      <trkpt lat="44.80518" lon="6.97492">
        <ele>1915.83399936</ele>
        <time>2020-02-16T09:35:33.010Z</time>
      </trkpt>
      <trkpt lat="44.80511" lon="6.97502">
        <ele>1917.21699968</ele>
        <time>2020-02-16T09:35:51.010Z</time>
      </trkpt>
      <trkpt lat="44.80504" lon="6.9751">
        <ele>1919.55099904</ele>
        <time>2020-02-16T09:36:04.010Z</time>
      </trkpt>
      <trkpt lat="44.80496" lon="6.97517">
        <ele>1921.81699968</ele>
        <time>2020-02-16T09:36:17.010Z</time>
      </trkpt>
      <trkpt lat="44.80488" lon="6.97524">
        <ele>1923.31699968</ele>
        <time>2020-02-16T09:36:32.010Z</time>
      </trkpt>
      <trkpt lat="44.80496" lon="6.97531">
        <ele>1924.41699968</ele>
        <time>2020-02-16T09:36:53.010Z</time>
      </trkpt>
      <trkpt lat="44.80493" lon="6.97543">
        <ele>1927.9535333835</ele>
        <time>2020-02-16T09:37:09.010Z</time>
      </trkpt>
      <trkpt lat="44.80484" lon="6.97543">
        <ele>1928.43399936</ele>
        <time>2020-02-16T09:37:21.010Z</time>
      </trkpt>
      <trkpt lat="44.80475" lon="6.97547">
        <ele>1931.55099904</ele>
        <time>2020-02-16T09:37:34.010Z</time>
      </trkpt>
      <trkpt lat="44.80465" lon="6.9755">
        <ele>1933.6145415139</ele>
        <time>2020-02-16T09:37:45.010Z</time>
      </trkpt>
      <trkpt lat="44.80457" lon="6.97557">
        <ele>1934.95099904</ele>
        <time>2020-02-16T09:38:02.010Z</time>
      </trkpt>
      <trkpt lat="44.80449" lon="6.97563">
        <ele>1937</ele>
        <time>2020-02-16T09:38:16.010Z</time>
      </trkpt>
      <trkpt lat="44.8044" lon="6.9757">
        <ele>1938.6336331104</ele>
        <time>2020-02-16T09:38:27.010Z</time>
      </trkpt>
      <trkpt lat="44.80432" lon="6.97577">
        <ele>1939.91699968</ele>
        <time>2020-02-16T09:38:38.010Z</time>
      </trkpt>
      <trkpt lat="44.80427" lon="6.97588">
        <ele>1944.1488508768</ele>
        <time>2020-02-16T09:38:56.010Z</time>
      </trkpt>
      <trkpt lat="44.80419" lon="6.97595">
        <ele>1945.1942745559</ele>
        <time>2020-02-16T09:39:10.010Z</time>
      </trkpt>
      <trkpt lat="44.8041" lon="6.97598">
        <ele>1947</ele>
        <time>2020-02-16T09:39:22.010Z</time>
      </trkpt>
      <trkpt lat="44.80401" lon="6.97601">
        <ele>1947.95099904</ele>
        <time>2020-02-16T09:39:32.010Z</time>
      </trkpt>
      <trkpt lat="44.80393" lon="6.97608">
        <ele>1951.63399936</ele>
        <time>2020-02-16T09:39:47.010Z</time>
      </trkpt>
      <trkpt lat="44.80386" lon="6.97617">
        <ele>1953</ele>
        <time>2020-02-16T09:40:01.010Z</time>
      </trkpt>
      <trkpt lat="44.80379" lon="6.97626">
        <ele>1953.6125595787</ele>
        <time>2020-02-16T09:40:12.010Z</time>
      </trkpt>
      <trkpt lat="44.80371" lon="6.97632">
        <ele>1956.8279785544</ele>
        <time>2020-02-16T09:40:28.010Z</time>
      </trkpt>
      <trkpt lat="44.80364" lon="6.97641">
        <ele>1960</ele>
        <time>2020-02-16T09:40:43.010Z</time>
      </trkpt>
      <trkpt lat="44.80371" lon="6.97649">
        <ele>1964.4297097732</ele>
        <time>2020-02-16T09:41:06.010Z</time>
      </trkpt>
      <trkpt lat="44.80363" lon="6.97658">
        <ele>1966.84</ele>
        <time>2020-02-16T09:41:28.040Z</time>
      </trkpt>
      <trkpt lat="44.80355" lon="6.97666">
        <ele>1970.8285132352</ele>
        <time>2020-02-16T09:41:48.010Z</time>
      </trkpt>
      <trkpt lat="44.80348" lon="6.97675">
        <ele>1971</ele>
        <time>2020-02-16T09:41:58.010Z</time>
      </trkpt>
      <trkpt lat="44.8034" lon="6.97681">
        <ele>1970.0480480327</ele>
        <time>2020-02-16T09:42:09.010Z</time>
      </trkpt>
      <trkpt lat="44.80332" lon="6.97686">
        <ele>1974.43399936</ele>
        <time>2020-02-16T09:42:26.010Z</time>
      </trkpt>
      <trkpt lat="44.80326" lon="6.97696">
        <ele>1976.5154531556</ele>
        <time>2020-02-16T09:42:44.010Z</time>
      </trkpt>
      <trkpt lat="44.80318" lon="6.97703">
        <ele>1977</ele>
        <time>2020-02-16T09:42:58.010Z</time>
      </trkpt>
      <trkpt lat="44.8031" lon="6.97709">
        <ele>1978</ele>
        <time>2020-02-16T09:43:18.010Z</time>
      </trkpt>
      <trkpt lat="44.80304" lon="6.97719">
        <ele>1982.7073420617</ele>
        <time>2020-02-16T09:43:36.010Z</time>
      </trkpt>
      <trkpt lat="44.80295" lon="6.97722">
        <ele>1983</ele>
        <time>2020-02-16T09:43:45.010Z</time>
      </trkpt>
      <trkpt lat="44.80286" lon="6.97726">
        <ele>1986.2492488491</ele>
        <time>2020-02-16T09:44:03.010Z</time>
      </trkpt>
      <trkpt lat="44.80277" lon="6.97723">
        <ele>1988</ele>
        <time>2020-02-16T09:44:14.010Z</time>
      </trkpt>
      <trkpt lat="44.8027" lon="6.97733">
        <ele>1989.0543933054</ele>
        <time>2020-02-16T09:44:30.010Z</time>
      </trkpt>
      <trkpt lat="44.8026" lon="6.97733">
        <ele>1990.2844063272</ele>
        <time>2020-02-16T09:44:39.980Z</time>
      </trkpt>
      <trkpt lat="44.80251" lon="6.97737">
        <ele>1995.45099904</ele>
        <time>2020-02-16T09:45:07.010Z</time>
      </trkpt>
      <trkpt lat="44.80243" lon="6.97747">
        <ele>1999</ele>
        <time>2020-02-16T09:45:39.010Z</time>
      </trkpt>
      <trkpt lat="44.80242" lon="6.9776">
        <ele>2004</ele>
        <time>2020-02-16T09:46:19.010Z</time>
      </trkpt>
      <trkpt lat="44.80235" lon="6.97769">
        <ele>2006.088973562</ele>
        <time>2020-02-16T09:46:36.040Z</time>
      </trkpt>
      <trkpt lat="44.80226" lon="6.97772">
        <ele>2009</ele>
        <time>2020-02-16T09:46:50.010Z</time>
      </trkpt>
      <trkpt lat="44.80216" lon="6.97774">
        <ele>2009.3885491118</ele>
        <time>2020-02-16T09:47:00.010Z</time>
      </trkpt>
      <trkpt lat="44.80219" lon="6.97786">
        <ele>2015.51699968</ele>
        <time>2020-02-16T09:47:34.010Z</time>
      </trkpt>
      <trkpt lat="44.80227" lon="6.97793">
        <ele>2020.4152452286</ele>
        <time>2020-02-16T09:47:53.010Z</time>
      </trkpt>
      <trkpt lat="44.8022" lon="6.97802">
        <ele>2026</ele>
        <time>2020-02-16T09:48:22.010Z</time>
      </trkpt>
      <trkpt lat="44.80213" lon="6.97811">
        <ele>2026</ele>
        <time>2020-02-16T09:48:38.010Z</time>
      </trkpt>
      <trkpt lat="44.80208" lon="6.97823">
        <ele>2030.91699968</ele>
        <time>2020-02-16T09:48:58.010Z</time>
      </trkpt>
      <trkpt lat="44.80216" lon="6.97831">
        <ele>2035.91699968</ele>
        <time>2020-02-16T09:49:28.010Z</time>
      </trkpt>
      <trkpt lat="44.80223" lon="6.97838">
        <ele>2036.81699968</ele>
        <time>2020-02-16T09:49:37.010Z</time>
      </trkpt>
      <trkpt lat="44.8023" lon="6.97846">
        <ele>2037.8877056767</ele>
        <time>2020-02-16T09:49:48.010Z</time>
      </trkpt>
      <trkpt lat="44.80229" lon="6.97859">
        <ele>2044.1331929754</ele>
        <time>2020-02-16T09:50:10.010Z</time>
      </trkpt>
      <trkpt lat="44.80234" lon="6.97871">
        <ele>2046.1924245461</ele>
        <time>2020-02-16T09:50:30.010Z</time>
      </trkpt>
      <trkpt lat="44.80233" lon="6.97884">
        <ele>2051</ele>
        <time>2020-02-16T09:50:59.010Z</time>
      </trkpt>
      <trkpt lat="44.80232" lon="6.97897">
        <ele>2057.66799872</ele>
        <time>2020-02-16T09:51:38.010Z</time>
      </trkpt>
      <trkpt lat="44.80232" lon="6.9791">
        <ele>2059.03399936</ele>
        <time>2020-02-16T09:51:49.010Z</time>
      </trkpt>
      <trkpt lat="44.80224" lon="6.97919">
        <ele>2062.63399936</ele>
        <time>2020-02-16T09:52:07.010Z</time>
      </trkpt>
      <trkpt lat="44.80218" lon="6.97929">
        <ele>2064</ele>
        <time>2020-02-16T09:52:24.010Z</time>
      </trkpt>
      <trkpt lat="44.80208" lon="6.97921">
        <ele>2064</ele>
        <time>2020-02-16T09:52:35.010Z</time>
      </trkpt>
      <trkpt lat="44.80199" lon="6.97916">
        <ele>2064</ele>
        <time>2020-02-16T09:52:44.040Z</time>
      </trkpt>
      <trkpt lat="44.80208" lon="6.97922">
        <ele>2064.16600064</ele>
        <time>2020-02-16T09:57:08.010Z</time>
      </trkpt>
      <trkpt lat="44.80199" lon="6.97922">
        <ele>2064</ele>
        <time>2020-02-16T09:59:42.010Z</time>
      </trkpt>
      <trkpt lat="44.8019" lon="6.97925">
        <ele>2063</ele>
        <time>2020-02-16T10:00:56.010Z</time>
      </trkpt>
      <trkpt lat="44.80188" lon="6.97937">
        <ele>2062.01699968</ele>
        <time>2020-02-16T10:01:19.010Z</time>
      </trkpt>
      <trkpt lat="44.80185" lon="6.9795">
        <ele>2063</ele>
        <time>2020-02-16T10:01:32.010Z</time>
      </trkpt>
      <trkpt lat="44.80183" lon="6.97962">
        <ele>2064.2472568703</ele>
        <time>2020-02-16T10:01:43.010Z</time>
      </trkpt>
      <trkpt lat="44.80182" lon="6.97976">
        <ele>2066</ele>
        <time>2020-02-16T10:01:56.010Z</time>
      </trkpt>
      <trkpt lat="44.80181" lon="6.97989">
        <ele>2066.9151687568</ele>
        <time>2020-02-16T10:02:08.010Z</time>
      </trkpt>
      <trkpt lat="44.80177" lon="6.98001">
        <ele>2067.4197283282</ele>
        <time>2020-02-16T10:02:21.010Z</time>
      </trkpt>
      <trkpt lat="44.80173" lon="6.98013">
        <ele>2069</ele>
        <time>2020-02-16T10:02:34.010Z</time>
      </trkpt>
      <trkpt lat="44.80169" lon="6.98025">
        <ele>2069</ele>
        <time>2020-02-16T10:02:46.010Z</time>
      </trkpt>
      <trkpt lat="44.80163" lon="6.98034">
        <ele>2071</ele>
        <time>2020-02-16T10:02:59.010Z</time>
      </trkpt>
      <trkpt lat="44.80156" lon="6.98043">
        <ele>2071.9491002321</ele>
        <time>2020-02-16T10:03:12.010Z</time>
      </trkpt>
      <trkpt lat="44.80148" lon="6.9805">
        <ele>2074</ele>
        <time>2020-02-16T10:03:25.010Z</time>
      </trkpt>
      <trkpt lat="44.8014" lon="6.98057">
        <ele>2074.8145557521</ele>
        <time>2020-02-16T10:03:37.010Z</time>
      </trkpt>
      <trkpt lat="44.80133" lon="6.98068">
        <ele>2076.4327011182</ele>
        <time>2020-02-16T10:03:51.010Z</time>
      </trkpt>
      <trkpt lat="44.80126" lon="6.98076">
        <ele>2079.4322960665</ele>
        <time>2020-02-16T10:04:06.010Z</time>
      </trkpt>
      <trkpt lat="44.80123" lon="6.98089">
        <ele>2080.0160160109</ele>
        <time>2020-02-16T10:04:19.010Z</time>
      </trkpt>
      <trkpt lat="44.80121" lon="6.98102">
        <ele>2081.8331664602</ele>
        <time>2020-02-16T10:04:33.010Z</time>
      </trkpt>
      <trkpt lat="44.80119" lon="6.98116">
        <ele>2083.0130518875</ele>
        <time>2020-02-16T10:04:49.010Z</time>
      </trkpt>
      <trkpt lat="44.80114" lon="6.98128">
        <ele>2084.23399936</ele>
        <time>2020-02-16T10:05:00.010Z</time>
      </trkpt>
      <trkpt lat="44.80109" lon="6.98139">
        <ele>2086.3160514246</ele>
        <time>2020-02-16T10:05:12.010Z</time>
      </trkpt>
      <trkpt lat="44.80103" lon="6.98149">
        <ele>2087</ele>
        <time>2020-02-16T10:05:22.010Z</time>
      </trkpt>
      <trkpt lat="44.80097" lon="6.9816">
        <ele>2087.499999381</ele>
        <time>2020-02-16T10:05:34.010Z</time>
      </trkpt>
      <trkpt lat="44.80095" lon="6.98174">
        <ele>2090.05099904</ele>
        <time>2020-02-16T10:05:49.010Z</time>
      </trkpt>
      <trkpt lat="44.80089" lon="6.98184">
        <ele>2092.68300032</ele>
        <time>2020-02-16T10:06:02.010Z</time>
      </trkpt>
      <trkpt lat="44.80086" lon="6.98197">
        <ele>2094.1445646598</ele>
        <time>2020-02-16T10:06:16.010Z</time>
      </trkpt>
      <trkpt lat="44.8008" lon="6.98207">
        <ele>2095.43399936</ele>
        <time>2020-02-16T10:06:31.010Z</time>
      </trkpt>
      <trkpt lat="44.80075" lon="6.98219">
        <ele>2097</ele>
        <time>2020-02-16T10:06:41.010Z</time>
      </trkpt>
      <trkpt lat="44.80073" lon="6.98231">
        <ele>2097.83399936</ele>
        <time>2020-02-16T10:06:53.010Z</time>
      </trkpt>
      <trkpt lat="44.80068" lon="6.98243">
        <ele>2099</ele>
        <time>2020-02-16T10:07:05.010Z</time>
      </trkpt>
      <trkpt lat="44.80064" lon="6.98257">
        <ele>2101.4498984849</ele>
        <time>2020-02-16T10:07:17.010Z</time>
      </trkpt>
      <trkpt lat="44.80061" lon="6.98269">
        <ele>2103.01699968</ele>
        <time>2020-02-16T10:07:29.010Z</time>
      </trkpt>
      <trkpt lat="44.80056" lon="6.9828">
        <ele>2104.3160514246</ele>
        <time>2020-02-16T10:07:42.010Z</time>
      </trkpt>
      <trkpt lat="44.80053" lon="6.98292">
        <ele>2105.9167499031</ele>
        <time>2020-02-16T10:07:58.010Z</time>
      </trkpt>
      <trkpt lat="44.80049" lon="6.98305">
        <ele>2108</ele>
        <time>2020-02-16T10:08:09.010Z</time>
      </trkpt>
      <trkpt lat="44.80045" lon="6.98316">
        <ele>2108.4157522901</ele>
        <time>2020-02-16T10:08:23.010Z</time>
      </trkpt>
      <trkpt lat="44.8004" lon="6.98328">
        <ele>2110.4322960665</ele>
        <time>2020-02-16T10:08:36.010Z</time>
      </trkpt>
      <trkpt lat="44.80036" lon="6.9834">
        <ele>2111.8877056767</ele>
        <time>2020-02-16T10:08:48.010Z</time>
      </trkpt>
      <trkpt lat="44.80034" lon="6.98353">
        <ele>2113</ele>
        <time>2020-02-16T10:09:00.010Z</time>
      </trkpt>
      <trkpt lat="44.8003" lon="6.98365">
        <ele>2114.2472568703</ele>
        <time>2020-02-16T10:09:13.010Z</time>
      </trkpt>
      <trkpt lat="44.80026" lon="6.98377">
        <ele>2116.8164489682</ele>
        <time>2020-02-16T10:09:27.010Z</time>
      </trkpt>
      <trkpt lat="44.8002" lon="6.98388">
        <ele>2117.8145557521</ele>
        <time>2020-02-16T10:09:37.010Z</time>
      </trkpt>
      <trkpt lat="44.80016" lon="6.98401">
        <ele>2118</ele>
        <time>2020-02-16T10:09:47.010Z</time>
      </trkpt>
      <trkpt lat="44.80011" lon="6.98412">
        <ele>2118.9151687568</ele>
        <time>2020-02-16T10:09:58.010Z</time>
      </trkpt>
      <trkpt lat="44.80009" lon="6.98426">
        <ele>2121.2163505591</ele>
        <time>2020-02-16T10:10:11.010Z</time>
      </trkpt>
      <trkpt lat="44.80005" lon="6.98437">
        <ele>2122.3149442937</ele>
        <time>2020-02-16T10:10:22.010Z</time>
      </trkpt>
      <trkpt lat="44.80001" lon="6.98448">
        <ele>2124.23399936</ele>
        <time>2020-02-16T10:10:35.010Z</time>
      </trkpt>
      <trkpt lat="44.79998" lon="6.9846">
        <ele>2126.43399936</ele>
        <time>2020-02-16T10:10:46.010Z</time>
      </trkpt>
      <trkpt lat="44.79995" lon="6.98473">
        <ele>2127.2690729771</ele>
        <time>2020-02-16T10:11:00.010Z</time>
      </trkpt>
      <trkpt lat="44.79993" lon="6.98486">
        <ele>2130</ele>
        <time>2020-02-16T10:11:14.010Z</time>
      </trkpt>
      <trkpt lat="44.7999" lon="6.98499">
        <ele>2132.7504998801</ele>
        <time>2020-02-16T10:11:28.010Z</time>
      </trkpt>
      <trkpt lat="44.79988" lon="6.98512">
        <ele>2135</ele>
        <time>2020-02-16T10:11:42.010Z</time>
      </trkpt>
      <trkpt lat="44.79984" lon="6.98525">
        <ele>2137.7710123993</ele>
        <time>2020-02-16T10:11:56.010Z</time>
      </trkpt>
      <trkpt lat="44.7998" lon="6.98538">
        <ele>2140.4134706449</ele>
        <time>2020-02-16T10:12:06.010Z</time>
      </trkpt>
      <trkpt lat="44.79977" lon="6.9855">
        <ele>2142</ele>
        <time>2020-02-16T10:12:20.010Z</time>
      </trkpt>
      <trkpt lat="44.79971" lon="6.9856">
        <ele>2143.55099904</ele>
        <time>2020-02-16T10:12:34.010Z</time>
      </trkpt>
      <trkpt lat="44.79967" lon="6.98572">
        <ele>2145.81699968</ele>
        <time>2020-02-16T10:12:47.010Z</time>
      </trkpt>
      <trkpt lat="44.79962" lon="6.98583">
        <ele>2147.5849984</ele>
        <time>2020-02-16T10:13:02.010Z</time>
      </trkpt>
      <trkpt lat="44.79958" lon="6.98595">
        <ele>2151.61699968</ele>
        <time>2020-02-16T10:13:15.010Z</time>
      </trkpt>
      <trkpt lat="44.79953" lon="6.98606">
        <ele>2152.0150291078</ele>
        <time>2020-02-16T10:13:29.010Z</time>
      </trkpt>
      <trkpt lat="44.79955" lon="6.98619">
        <ele>2154.01699968</ele>
        <time>2020-02-16T10:13:49.010Z</time>
      </trkpt>
      <trkpt lat="44.79953" lon="6.98632">
        <ele>2155.2154300379</ele>
        <time>2020-02-16T10:14:11.010Z</time>
      </trkpt>
      <trkpt lat="44.79953" lon="6.98645">
        <ele>2156.51699968</ele>
        <time>2020-02-16T10:14:24.010Z</time>
      </trkpt>
      <trkpt lat="44.7995" lon="6.98657">
        <ele>2161</ele>
        <time>2020-02-16T10:14:40.010Z</time>
      </trkpt>
      <trkpt lat="44.79949" lon="6.98671">
        <ele>2161</ele>
        <time>2020-02-16T10:14:57.010Z</time>
      </trkpt>
      <trkpt lat="44.79948" lon="6.98684">
        <ele>2165.316366744</ele>
        <time>2020-02-16T10:15:12.010Z</time>
      </trkpt>
      <trkpt lat="44.79942" lon="6.98693">
        <ele>2166</ele>
        <time>2020-02-16T10:15:23.010Z</time>
      </trkpt>
      <trkpt lat="44.79939" lon="6.98706">
        <ele>2168.1467042576</ele>
        <time>2020-02-16T10:15:36.010Z</time>
      </trkpt>
      <trkpt lat="44.79935" lon="6.98719">
        <ele>2169.03399936</ele>
        <time>2020-02-16T10:15:49.010Z</time>
      </trkpt>
      <trkpt lat="44.79931" lon="6.98731">
        <ele>2171.21699968</ele>
        <time>2020-02-16T10:16:01.010Z</time>
      </trkpt>
      <trkpt lat="44.79927" lon="6.98744">
        <ele>2172.5159674149</ele>
        <time>2020-02-16T10:16:14.010Z</time>
      </trkpt>
      <trkpt lat="44.79921" lon="6.98753">
        <ele>2173</ele>
        <time>2020-02-16T10:16:24.010Z</time>
      </trkpt>
      <trkpt lat="44.79913" lon="6.98762">
        <ele>2175.46799872</ele>
        <time>2020-02-16T10:16:35.010Z</time>
      </trkpt>
      <trkpt lat="44.79909" lon="6.98773">
        <ele>2177.81699968</ele>
        <time>2020-02-16T10:16:47.010Z</time>
      </trkpt>
      <trkpt lat="44.79903" lon="6.98784">
        <ele>2178.71699968</ele>
        <time>2020-02-16T10:16:56.010Z</time>
      </trkpt>
      <trkpt lat="44.79902" lon="6.98797">
        <ele>2179</ele>
        <time>2020-02-16T10:17:08.010Z</time>
      </trkpt>
      <trkpt lat="44.79897" lon="6.98809">
        <ele>2182.0150291078</ele>
        <time>2020-02-16T10:17:19.010Z</time>
      </trkpt>
      <trkpt lat="44.79893" lon="6.9882">
        <ele>2183.3160514246</ele>
        <time>2020-02-16T10:17:32.010Z</time>
      </trkpt>
      <trkpt lat="44.79886" lon="6.98828">
        <ele>2184.7161480333</ele>
        <time>2020-02-16T10:17:46.010Z</time>
      </trkpt>
      <trkpt lat="44.79879" lon="6.98838">
        <ele>2185</ele>
        <time>2020-02-16T10:17:58.010Z</time>
      </trkpt>
      <trkpt lat="44.79873" lon="6.98847">
        <ele>2186.084</ele>
        <time>2020-02-16T10:18:10.010Z</time>
      </trkpt>
      <trkpt lat="44.79864" lon="6.98854">
        <ele>2189.1220261851</ele>
        <time>2020-02-16T10:18:26.010Z</time>
      </trkpt>
      <trkpt lat="44.79856" lon="6.9886">
        <ele>2191.086866569</ele>
        <time>2020-02-16T10:18:40.010Z</time>
      </trkpt>
      <trkpt lat="44.79846" lon="6.98866">
        <ele>2194.16</ele>
        <time>2020-02-16T10:18:56.040Z</time>
      </trkpt>
      <trkpt lat="44.79838" lon="6.98872">
        <ele>2196.4297097732</ele>
        <time>2020-02-16T10:19:06.010Z</time>
      </trkpt>
      <trkpt lat="44.79831" lon="6.98881">
        <ele>2198.0878095868</ele>
        <time>2020-02-16T10:19:20.010Z</time>
      </trkpt>
      <trkpt lat="44.79825" lon="6.98892">
        <ele>2200.03399936</ele>
        <time>2020-02-16T10:19:34.010Z</time>
      </trkpt>
      <trkpt lat="44.7982" lon="6.98902">
        <ele>2201.812749004</ele>
        <time>2020-02-16T10:19:47.000Z</time>
      </trkpt>
      <trkpt lat="44.79813" lon="6.98911">
        <ele>2204.03399936</ele>
        <time>2020-02-16T10:19:59.010Z</time>
      </trkpt>
      <trkpt lat="44.79808" lon="6.98923">
        <ele>2206.31699968</ele>
        <time>2020-02-16T10:20:12.010Z</time>
      </trkpt>
      <trkpt lat="44.79803" lon="6.98934">
        <ele>2208.6307368426</ele>
        <time>2020-02-16T10:20:27.010Z</time>
      </trkpt>
      <trkpt lat="44.798" lon="6.98946">
        <ele>2211.2161351394</ele>
        <time>2020-02-16T10:20:41.010Z</time>
      </trkpt>
      <trkpt lat="44.79797" lon="6.9896">
        <ele>2212.6154615261</ele>
        <time>2020-02-16T10:20:55.010Z</time>
      </trkpt>
      <trkpt lat="44.79798" lon="6.98973">
        <ele>2216</ele>
        <time>2020-02-16T10:21:09.010Z</time>
      </trkpt>
      <trkpt lat="44.79799" lon="6.98986">
        <ele>2216.0164566169</ele>
        <time>2020-02-16T10:21:19.010Z</time>
      </trkpt>
      <trkpt lat="44.79796" lon="6.98998">
        <ele>2217</ele>
        <time>2020-02-16T10:21:32.010Z</time>
      </trkpt>
      <trkpt lat="44.79792" lon="6.99009">
        <ele>2219.75099904</ele>
        <time>2020-02-16T10:21:48.010Z</time>
      </trkpt>
      <trkpt lat="44.7979" lon="6.99022">
        <ele>2221.2146433588</ele>
        <time>2020-02-16T10:22:01.010Z</time>
      </trkpt>
      <trkpt lat="44.79788" lon="6.99034">
        <ele>2223.23399936</ele>
        <time>2020-02-16T10:22:15.010Z</time>
      </trkpt>
      <trkpt lat="44.79788" lon="6.99047">
        <ele>2226.6151540211</ele>
        <time>2020-02-16T10:22:35.010Z</time>
      </trkpt>
      <trkpt lat="44.79786" lon="6.99061">
        <ele>2227.8164489682</ele>
        <time>2020-02-16T10:22:47.010Z</time>
      </trkpt>
      <trkpt lat="44.79783" lon="6.99073">
        <ele>2229.21699968</ele>
        <time>2020-02-16T10:23:01.010Z</time>
      </trkpt>
      <trkpt lat="44.79781" lon="6.99086">
        <ele>2234</ele>
        <time>2020-02-16T10:23:19.010Z</time>
      </trkpt>
      <trkpt lat="44.79781" lon="6.99099">
        <ele>2234.2165664086</ele>
        <time>2020-02-16T10:23:31.010Z</time>
      </trkpt>
      <trkpt lat="44.79782" lon="6.99112">
        <ele>2236.8486956945</ele>
        <time>2020-02-16T10:23:45.010Z</time>
      </trkpt>
      <trkpt lat="44.79781" lon="6.99125">
        <ele>2238</ele>
        <time>2020-02-16T10:23:57.010Z</time>
      </trkpt>
      <trkpt lat="44.79773" lon="6.99131">
        <ele>2240.5159674149</ele>
        <time>2020-02-16T10:24:14.010Z</time>
      </trkpt>
      <trkpt lat="44.79779" lon="6.99141">
        <ele>2241</ele>
        <time>2020-02-16T10:24:22.010Z</time>
      </trkpt>
      <trkpt lat="44.79779" lon="6.99154">
        <ele>2241.5961347722</ele>
        <time>2020-02-16T10:24:35.010Z</time>
      </trkpt>
      <trkpt lat="44.79779" lon="6.99168">
        <ele>2242.6031083451</ele>
        <time>2020-02-16T10:24:45.010Z</time>
      </trkpt>
      <trkpt lat="44.79775" lon="6.9918">
        <ele>2243.71699968</ele>
        <time>2020-02-16T10:24:56.010Z</time>
      </trkpt>
      <trkpt lat="44.79771" lon="6.99191">
        <ele>2244.0601164313</ele>
        <time>2020-02-16T10:25:09.010Z</time>
      </trkpt>
      <trkpt lat="44.79767" lon="6.99203">
        <ele>2248.2165664086</ele>
        <time>2020-02-16T10:25:21.010Z</time>
      </trkpt>
      <trkpt lat="44.79763" lon="6.99214">
        <ele>2249.5160314331</ele>
        <time>2020-02-16T10:25:34.010Z</time>
      </trkpt>
      <trkpt lat="44.79758" lon="6.99225">
        <ele>2250.7155680859</ele>
        <time>2020-02-16T10:25:46.010Z</time>
      </trkpt>
      <trkpt lat="44.79753" lon="6.99237">
        <ele>2252.2324637964</ele>
        <time>2020-02-16T10:25:55.010Z</time>
      </trkpt>
      <trkpt lat="44.79749" lon="6.99248">
        <ele>2254.63399936</ele>
        <time>2020-02-16T10:26:07.010Z</time>
      </trkpt>
      <trkpt lat="44.79745" lon="6.9926">
        <ele>2256.01699968</ele>
        <time>2020-02-16T10:26:19.010Z</time>
      </trkpt>
      <trkpt lat="44.79741" lon="6.99272">
        <ele>2258.43399936</ele>
        <time>2020-02-16T10:26:36.010Z</time>
      </trkpt>
      <trkpt lat="44.79736" lon="6.99283">
        <ele>2259.91699968</ele>
        <time>2020-02-16T10:26:48.010Z</time>
      </trkpt>
      <trkpt lat="44.79732" lon="6.99294">
        <ele>2262.01699968</ele>
        <time>2020-02-16T10:26:59.010Z</time>
      </trkpt>
      <trkpt lat="44.79729" lon="6.99307">
        <ele>2263.43399936</ele>
        <time>2020-02-16T10:27:11.010Z</time>
      </trkpt>
      <trkpt lat="44.79728" lon="6.9932">
        <ele>2265.3160514246</ele>
        <time>2020-02-16T10:27:22.010Z</time>
      </trkpt>
      <trkpt lat="44.79727" lon="6.99333">
        <ele>2266.5155461635</ele>
        <time>2020-02-16T10:27:34.010Z</time>
      </trkpt>
      <trkpt lat="44.79723" lon="6.99345">
        <ele>2268.3881895491</ele>
        <time>2020-02-16T10:27:46.010Z</time>
      </trkpt>
      <trkpt lat="44.79722" lon="6.99358">
        <ele>2272.6566689037</ele>
        <time>2020-02-16T10:27:58.010Z</time>
      </trkpt>
      <trkpt lat="44.79719" lon="6.99371">
        <ele>2272.0169488281</ele>
        <time>2020-02-16T10:28:09.010Z</time>
      </trkpt>
      <trkpt lat="44.79719" lon="6.99384">
        <ele>2273.2148904701</ele>
        <time>2020-02-16T10:28:20.010Z</time>
      </trkpt>
      <trkpt lat="44.79716" lon="6.99396">
        <ele>2275</ele>
        <time>2020-02-16T10:28:30.010Z</time>
      </trkpt>
      <trkpt lat="44.79715" lon="6.9941">
        <ele>2275.95099904</ele>
        <time>2020-02-16T10:28:42.010Z</time>
      </trkpt>
      <trkpt lat="44.79714" lon="6.99424">
        <ele>2278.8161837574</ele>
        <time>2020-02-16T10:28:57.010Z</time>
      </trkpt>
      <trkpt lat="44.79714" lon="6.99437">
        <ele>2280.2485012385</ele>
        <time>2020-02-16T10:29:13.010Z</time>
      </trkpt>
      <trkpt lat="44.79711" lon="6.99449">
        <ele>2282</ele>
        <time>2020-02-16T10:29:28.010Z</time>
      </trkpt>
      <trkpt lat="44.79709" lon="6.99462">
        <ele>2286.2165664086</ele>
        <time>2020-02-16T10:29:51.010Z</time>
      </trkpt>
      <trkpt lat="44.79706" lon="6.99475">
        <ele>2287.4158309681</ele>
        <time>2020-02-16T10:30:03.010Z</time>
      </trkpt>
      <trkpt lat="44.79706" lon="6.99488">
        <ele>2290.4630710016</ele>
        <time>2020-02-16T10:30:15.010Z</time>
      </trkpt>
      <trkpt lat="44.79704" lon="6.99501">
        <ele>2293.316366744</ele>
        <time>2020-02-16T10:30:32.010Z</time>
      </trkpt>
      <trkpt lat="44.79701" lon="6.99512">
        <ele>2294</ele>
        <time>2020-02-16T10:30:46.010Z</time>
      </trkpt>
      <trkpt lat="44.79698" lon="6.99525">
        <ele>2295.9690222557</ele>
        <time>2020-02-16T10:30:59.010Z</time>
      </trkpt>
      <trkpt lat="44.79693" lon="6.99537">
        <ele>2296.83399936</ele>
        <time>2020-02-16T10:31:13.010Z</time>
      </trkpt>
      <trkpt lat="44.79687" lon="6.99547">
        <ele>2300.45099904</ele>
        <time>2020-02-16T10:31:27.010Z</time>
      </trkpt>
      <trkpt lat="44.79683" lon="6.99558">
        <ele>2301</ele>
        <time>2020-02-16T10:31:40.010Z</time>
      </trkpt>
      <trkpt lat="44.7968" lon="6.99571">
        <ele>2301.71699968</ele>
        <time>2020-02-16T10:31:56.010Z</time>
      </trkpt>
      <trkpt lat="44.79675" lon="6.99582">
        <ele>2302</ele>
        <time>2020-02-16T10:32:08.010Z</time>
      </trkpt>
      <trkpt lat="44.79671" lon="6.99593">
        <ele>2306.03399936</ele>
        <time>2020-02-16T10:32:19.010Z</time>
      </trkpt>
      <trkpt lat="44.79669" lon="6.99606">
        <ele>2308</ele>
        <time>2020-02-16T10:32:34.010Z</time>
      </trkpt>
      <trkpt lat="44.79665" lon="6.99618">
        <ele>2311.864</ele>
        <time>2020-02-16T10:32:56.000Z</time>
      </trkpt>
      <trkpt lat="44.79658" lon="6.99628">
        <ele>2316.6676664928</ele>
        <time>2020-02-16T10:33:18.010Z</time>
      </trkpt>
      <trkpt lat="44.79651" lon="6.99637">
        <ele>2318</ele>
        <time>2020-02-16T10:33:33.010Z</time>
      </trkpt>
      <trkpt lat="44.79644" lon="6.99645">
        <ele>2321.2672662207</ele>
        <time>2020-02-16T10:33:47.010Z</time>
      </trkpt>
      <trkpt lat="44.79638" lon="6.99655">
        <ele>2322.7878495006</ele>
        <time>2020-02-16T10:34:07.010Z</time>
      </trkpt>
      <trkpt lat="44.79633" lon="6.99666">
        <ele>2325</ele>
        <time>2020-02-16T10:34:21.010Z</time>
      </trkpt>
      <trkpt lat="44.79629" lon="6.99679">
        <ele>2327.15099904</ele>
        <time>2020-02-16T10:34:36.010Z</time>
      </trkpt>
      <trkpt lat="44.79625" lon="6.99691">
        <ele>2331.5155461635</ele>
        <time>2020-02-16T10:34:54.010Z</time>
      </trkpt>
      <trkpt lat="44.79621" lon="6.99703">
        <ele>2332.91699968</ele>
        <time>2020-02-16T10:35:08.010Z</time>
      </trkpt>
      <trkpt lat="44.79614" lon="6.99712">
        <ele>2337</ele>
        <time>2020-02-16T10:35:27.010Z</time>
      </trkpt>
      <trkpt lat="44.79606" lon="6.9972">
        <ele>2342.0300582157</ele>
        <time>2020-02-16T10:35:39.010Z</time>
      </trkpt>
      <trkpt lat="44.79598" lon="6.99728">
        <ele>2344</ele>
        <time>2020-02-16T10:35:55.010Z</time>
      </trkpt>
      <trkpt lat="44.79599" lon="6.99741">
        <ele>2346</ele>
        <time>2020-02-16T10:36:23.010Z</time>
      </trkpt>
      <trkpt lat="44.79607" lon="6.99749">
        <ele>2348.8622723435</ele>
        <time>2020-02-16T10:36:36.010Z</time>
      </trkpt>
      <trkpt lat="44.79614" lon="6.99757">
        <ele>2350</ele>
        <time>2020-02-16T10:36:46.010Z</time>
      </trkpt>
      <trkpt lat="44.79622" lon="6.99764">
        <ele>2349.18300032</ele>
        <time>2020-02-16T10:36:57.010Z</time>
      </trkpt>
      <trkpt lat="44.7963" lon="6.99773">
        <ele>2350.83399936</ele>
        <time>2020-02-16T10:37:08.010Z</time>
      </trkpt>
      <trkpt lat="44.79638" lon="6.99779">
        <ele>2352.086866569</ele>
        <time>2020-02-16T10:37:20.010Z</time>
      </trkpt>
      <trkpt lat="44.79646" lon="6.99788">
        <ele>2353.41699968</ele>
        <time>2020-02-16T10:37:33.010Z</time>
      </trkpt>
      <trkpt lat="44.79652" lon="6.99798">
        <ele>2355.8285132352</ele>
        <time>2020-02-16T10:37:48.010Z</time>
      </trkpt>
      <trkpt lat="44.79655" lon="6.99811">
        <ele>2357.21699968</ele>
        <time>2020-02-16T10:38:01.010Z</time>
      </trkpt>
      <trkpt lat="44.79659" lon="6.99824">
        <ele>2358.83399936</ele>
        <time>2020-02-16T10:38:13.010Z</time>
      </trkpt>
      <trkpt lat="44.79657" lon="6.99837">
        <ele>2360</ele>
        <time>2020-02-16T10:38:26.010Z</time>
      </trkpt>
      <trkpt lat="44.79659" lon="6.9985">
        <ele>2360</ele>
        <time>2020-02-16T10:38:38.010Z</time>
      </trkpt>
      <trkpt lat="44.79658" lon="6.99862">
        <ele>2363.5849984</ele>
        <time>2020-02-16T10:38:54.010Z</time>
      </trkpt>
      <trkpt lat="44.79657" lon="6.99875">
        <ele>2366</ele>
        <time>2020-02-16T10:39:08.010Z</time>
      </trkpt>
      <trkpt lat="44.79656" lon="6.99888">
        <ele>2368.26799872</ele>
        <time>2020-02-16T10:39:22.010Z</time>
      </trkpt>
      <trkpt lat="44.79655" lon="6.99901">
        <ele>2371</ele>
        <time>2020-02-16T10:39:37.010Z</time>
      </trkpt>
      <trkpt lat="44.79653" lon="6.99914">
        <ele>2372.31699968</ele>
        <time>2020-02-16T10:39:52.010Z</time>
      </trkpt>
      <trkpt lat="44.79651" lon="6.99926">
        <ele>2374.2460149801</ele>
        <time>2020-02-16T10:40:03.010Z</time>
      </trkpt>
      <trkpt lat="44.79648" lon="6.99939">
        <ele>2376</ele>
        <time>2020-02-16T10:40:16.010Z</time>
      </trkpt>
      <trkpt lat="44.79644" lon="6.99952">
        <ele>2377.9690222557</ele>
        <time>2020-02-16T10:40:29.010Z</time>
      </trkpt>
      <trkpt lat="44.79642" lon="6.99964">
        <ele>2379.11699968</ele>
        <time>2020-02-16T10:40:40.010Z</time>
      </trkpt>
      <trkpt lat="44.79639" lon="6.99977">
        <ele>2381.25099904</ele>
        <time>2020-02-16T10:40:53.010Z</time>
      </trkpt>
      <trkpt lat="44.79634" lon="6.99988">
        <ele>2383</ele>
        <time>2020-02-16T10:41:05.010Z</time>
      </trkpt>
      <trkpt lat="44.79624" lon="6.99994">
        <ele>2383.92</ele>
        <time>2020-02-16T10:41:18.040Z</time>
      </trkpt>
      <trkpt lat="44.7962" lon="7.00006">
        <ele>2388</ele>
        <time>2020-02-16T10:41:40.010Z</time>
      </trkpt>
      <trkpt lat="44.79614" lon="7.00018">
        <ele>2388</ele>
        <time>2020-02-16T10:41:51.010Z</time>
      </trkpt>
      <trkpt lat="44.7961" lon="7.0003">
        <ele>2388.6298885873</ele>
        <time>2020-02-16T10:42:02.010Z</time>
      </trkpt>
      <trkpt lat="44.79604" lon="7.00039">
        <ele>2390.31699968</ele>
        <time>2020-02-16T10:42:12.010Z</time>
      </trkpt>
      <trkpt lat="44.79602" lon="7.00052">
        <ele>2391</ele>
        <time>2020-02-16T10:42:26.010Z</time>
      </trkpt>
      <trkpt lat="44.79595" lon="7.00059">
        <ele>2393.86799872</ele>
        <time>2020-02-16T10:42:36.010Z</time>
      </trkpt>
      <trkpt lat="44.79589" lon="7.00069">
        <ele>2395</ele>
        <time>2020-02-16T10:42:47.010Z</time>
      </trkpt>
      <trkpt lat="44.79586" lon="7.00081">
        <ele>2395.9151687568</ele>
        <time>2020-02-16T10:42:58.010Z</time>
      </trkpt>
      <trkpt lat="44.79589" lon="7.00095">
        <ele>2399.2163505591</ele>
        <time>2020-02-16T10:43:11.010Z</time>
      </trkpt>
      <trkpt lat="44.79593" lon="7.00106">
        <ele>2401.4322960665</ele>
        <time>2020-02-16T10:43:26.010Z</time>
      </trkpt>
      <trkpt lat="44.79586" lon="7.00114">
        <ele>2405.03399936</ele>
        <time>2020-02-16T10:43:49.010Z</time>
      </trkpt>
      <trkpt lat="44.79577" lon="7.00117">
        <ele>2407.43399936</ele>
        <time>2020-02-16T10:44:01.010Z</time>
      </trkpt>
      <trkpt lat="44.79567" lon="7.00118">
        <ele>2408.54799872</ele>
        <time>2020-02-16T10:44:06.580Z</time>
      </trkpt>
      <trkpt lat="44.79557" lon="7.00118">
        <ele>2409</ele>
        <time>2020-02-16T10:44:11.010Z</time>
      </trkpt>
      <trkpt lat="44.79548" lon="7.00121">
        <ele>2409</ele>
        <time>2020-02-16T10:44:17.010Z</time>
      </trkpt>
      <trkpt lat="44.79538" lon="7.00124">
        <ele>2409.6162318982</ele>
        <time>2020-02-16T10:44:25.010Z</time>
      </trkpt>
      <trkpt lat="44.79528" lon="7.00128">
        <ele>2410.41699968</ele>
        <time>2020-02-16T10:44:33.010Z</time>
      </trkpt>
      <trkpt lat="44.7952" lon="7.00135">
        <ele>2411.7148548866</ele>
        <time>2020-02-16T10:44:46.010Z</time>
      </trkpt>
      <trkpt lat="44.79513" lon="7.00144">
        <ele>2416.03399936</ele>
        <time>2020-02-16T10:44:59.010Z</time>
      </trkpt>
      <trkpt lat="44.79504" lon="7.00149">
        <ele>2417.83399936</ele>
        <time>2020-02-16T10:45:08.010Z</time>
      </trkpt>
      <trkpt lat="44.79496" lon="7.00155">
        <ele>2418.0495136618</ele>
        <time>2020-02-16T10:45:19.010Z</time>
      </trkpt>
      <trkpt lat="44.79488" lon="7.00162">
        <ele>2421.1793819847</ele>
        <time>2020-02-16T10:45:30.010Z</time>
      </trkpt>
      <trkpt lat="44.79482" lon="7.00171">
        <ele>2423.316366744</ele>
        <time>2020-02-16T10:45:42.010Z</time>
      </trkpt>
      <trkpt lat="44.79476" lon="7.00181">
        <ele>2424.8166328283</ele>
        <time>2020-02-16T10:45:57.010Z</time>
      </trkpt>
      <trkpt lat="44.79467" lon="7.00187">
        <ele>2425.81699968</ele>
        <time>2020-02-16T10:46:07.010Z</time>
      </trkpt>
      <trkpt lat="44.79459" lon="7.00194">
        <ele>2426.81699968</ele>
        <time>2020-02-16T10:46:17.010Z</time>
      </trkpt>
      <trkpt lat="44.79452" lon="7.00202">
        <ele>2432.2199242105</ele>
        <time>2020-02-16T10:46:30.010Z</time>
      </trkpt>
      <trkpt lat="44.79444" lon="7.00209">
        <ele>2434.0546952503</ele>
        <time>2020-02-16T10:46:40.010Z</time>
      </trkpt>
      <trkpt lat="44.79442" lon="7.00221">
        <ele>2437.7425016778</ele>
        <time>2020-02-16T10:46:58.010Z</time>
      </trkpt>
      <trkpt lat="44.79432" lon="7.00223">
        <ele>2440.86799872</ele>
        <time>2020-02-16T10:47:06.010Z</time>
      </trkpt>
      <trkpt lat="44.79423" lon="7.00224">
        <ele>2442.4157522901</ele>
        <time>2020-02-16T10:47:13.010Z</time>
      </trkpt>
      <trkpt lat="44.79413" lon="7.00224">
        <ele>2443</ele>
        <time>2020-02-16T10:47:22.010Z</time>
      </trkpt>
      <trkpt lat="44.79405" lon="7.00231">
        <ele>2444.63399936</ele>
        <time>2020-02-16T10:47:37.010Z</time>
      </trkpt>
      <trkpt lat="44.79397" lon="7.00238">
        <ele>2445.0110667132</ele>
        <time>2020-02-16T10:47:49.010Z</time>
      </trkpt>
      <trkpt lat="44.7939" lon="7.00247">
        <ele>2446.43399936</ele>
        <time>2020-02-16T10:48:01.010Z</time>
      </trkpt>
      <trkpt lat="44.79383" lon="7.00254">
        <ele>2448.01699968</ele>
        <time>2020-02-16T10:48:09.010Z</time>
      </trkpt>
      <trkpt lat="44.79375" lon="7.00262">
        <ele>2449</ele>
        <time>2020-02-16T10:48:19.010Z</time>
      </trkpt>
      <trkpt lat="44.7937" lon="7.00273">
        <ele>2449.8617201518</ele>
        <time>2020-02-16T10:48:31.010Z</time>
      </trkpt>
      <trkpt lat="44.79363" lon="7.00282">
        <ele>2453.95099904</ele>
        <time>2020-02-16T10:48:42.010Z</time>
      </trkpt>
      <trkpt lat="44.79354" lon="7.00285">
        <ele>2455.15099904</ele>
        <time>2020-02-16T10:48:46.010Z</time>
      </trkpt>
      <trkpt lat="44.79346" lon="7.00292">
        <ele>2457.4297097732</ele>
        <time>2020-02-16T10:48:56.010Z</time>
      </trkpt>
      <trkpt lat="44.79338" lon="7.00298">
        <ele>2458</ele>
        <time>2020-02-16T10:49:05.010Z</time>
      </trkpt>
      <trkpt lat="44.79336" lon="7.00311">
        <ele>2461.9112493412</ele>
        <time>2020-02-16T10:49:20.010Z</time>
      </trkpt>
      <trkpt lat="44.79334" lon="7.00325">
        <ele>2461</ele>
        <time>2020-02-16T10:49:32.010Z</time>
      </trkpt>
      <trkpt lat="44.79331" lon="7.00337">
        <ele>2461</ele>
        <time>2020-02-16T10:49:45.010Z</time>
      </trkpt>
      <trkpt lat="44.79328" lon="7.0035">
        <ele>2462.8097208489</ele>
        <time>2020-02-16T10:50:01.010Z</time>
      </trkpt>
      <trkpt lat="44.79318" lon="7.00355">
        <ele>2463.5849984</ele>
        <time>2020-02-16T10:50:12.010Z</time>
      </trkpt>
      <trkpt lat="44.79312" lon="7.00364">
        <ele>2467</ele>
        <time>2020-02-16T10:50:23.010Z</time>
      </trkpt>
      <trkpt lat="44.79306" lon="7.00375">
        <ele>2467</ele>
        <time>2020-02-16T10:50:49.010Z</time>
      </trkpt>
      <trkpt lat="44.79302" lon="7.00386">
        <ele>2466.96600064</ele>
        <time>2020-02-16T10:50:59.010Z</time>
      </trkpt>
      <trkpt lat="44.79297" lon="7.00397">
        <ele>2465</ele>
        <time>2020-02-16T10:51:09.010Z</time>
      </trkpt>
      <trkpt lat="44.79294" lon="7.00409">
        <ele>2465.63399936</ele>
        <time>2020-02-16T10:51:22.010Z</time>
      </trkpt>
      <trkpt lat="44.79296" lon="7.00423">
        <ele>2467</ele>
        <time>2020-02-16T10:51:32.010Z</time>
      </trkpt>
      <trkpt lat="44.79297" lon="7.00437">
        <ele>2467</ele>
        <time>2020-02-16T10:51:40.010Z</time>
      </trkpt>
      <trkpt lat="44.79299" lon="7.00452">
        <ele>2467</ele>
        <time>2020-02-16T10:51:46.010Z</time>
      </trkpt>
      <trkpt lat="44.79303" lon="7.00463">
        <ele>2466.36600064</ele>
        <time>2020-02-16T10:51:52.010Z</time>
      </trkpt>
      <trkpt lat="44.7931" lon="7.00472">
        <ele>2465</ele>
        <time>2020-02-16T10:52:01.010Z</time>
      </trkpt>
      <trkpt lat="44.79302" lon="7.00459">
        <ele>2465</ele>
        <time>2020-02-16T10:52:06.010Z</time>
      </trkpt>
      <trkpt lat="44.79313" lon="7.00453">
        <ele>2466.96</ele>
        <time>2020-02-16T10:52:29.040Z</time>
      </trkpt>
      <trkpt lat="44.79323" lon="7.00455">
        <ele>2465.76</ele>
        <time>2020-02-16T10:52:35.040Z</time>
      </trkpt>
      <trkpt lat="44.79333" lon="7.00452">
        <ele>2464.0164725581</ele>
        <time>2020-02-16T10:52:49.010Z</time>
      </trkpt>
      <trkpt lat="44.79343" lon="7.00457">
        <ele>2464.9150852076</ele>
        <time>2020-02-16T10:53:00.010Z</time>
      </trkpt>
      <trkpt lat="44.79352" lon="7.00459">
        <ele>2464.2157842848</ele>
        <time>2020-02-16T10:53:07.010Z</time>
      </trkpt>
      <trkpt lat="44.79375" lon="7.00454">
        <ele>2465</ele>
        <time>2020-02-16T10:53:27.040Z</time>
      </trkpt>
      <trkpt lat="44.79388" lon="7.00444">
        <ele>2465</ele>
        <time>2020-02-16T10:53:30.010Z</time>
      </trkpt>
      <trkpt lat="44.79398" lon="7.00446">
        <ele>2465</ele>
        <time>2020-02-16T10:53:33.010Z</time>
      </trkpt>
      <trkpt lat="44.79408" lon="7.0045">
        <ele>2465</ele>
        <time>2020-02-16T10:53:38.010Z</time>
      </trkpt>
      <trkpt lat="44.79404" lon="7.00438">
        <ele>2467</ele>
        <time>2020-02-16T10:53:51.010Z</time>
      </trkpt>
      <trkpt lat="44.79412" lon="7.00446">
        <ele>2467</ele>
        <time>2020-02-16T10:54:03.010Z</time>
      </trkpt>
      <trkpt lat="44.79416" lon="7.00457">
        <ele>2467</ele>
        <time>2020-02-16T10:54:17.010Z</time>
      </trkpt>
      <trkpt lat="44.79419" lon="7.00469">
        <ele>2466.36600064</ele>
        <time>2020-02-16T10:54:32.010Z</time>
      </trkpt>
      <trkpt lat="44.79427" lon="7.00479">
        <ele>2465.16600064</ele>
        <time>2020-02-16T10:54:38.010Z</time>
      </trkpt>
      <trkpt lat="44.79428" lon="7.00493">
        <ele>2464.58300032</ele>
        <time>2020-02-16T10:54:43.010Z</time>
      </trkpt>
      <trkpt lat="44.79429" lon="7.00506">
        <ele>2464.41699968</ele>
        <time>2020-02-16T10:54:53.010Z</time>
      </trkpt>
      <trkpt lat="44.79428" lon="7.00519">
        <ele>2466.63399936</ele>
        <time>2020-02-16T10:55:07.010Z</time>
      </trkpt>
      <trkpt lat="44.79427" lon="7.00532">
        <ele>2467.11699968</ele>
        <time>2020-02-16T10:55:20.010Z</time>
      </trkpt>
      <trkpt lat="44.79423" lon="7.00543">
        <ele>2468.41699968</ele>
        <time>2020-02-16T10:55:33.010Z</time>
      </trkpt>
      <trkpt lat="44.79415" lon="7.00552">
        <ele>2466.621119749</ele>
        <time>2020-02-16T10:56:21.010Z</time>
      </trkpt>
      <trkpt lat="44.79408" lon="7.0056">
        <ele>2467</ele>
        <time>2020-02-16T10:57:21.010Z</time>
      </trkpt>
      <trkpt lat="44.79401" lon="7.00569">
        <ele>2467.3139416053</ele>
        <time>2020-02-16T10:59:12.010Z</time>
      </trkpt>
      <trkpt lat="44.79402" lon="7.00582">
        <ele>2469</ele>
        <time>2020-02-16T11:00:09.010Z</time>
      </trkpt>
      <trkpt lat="44.7941" lon="7.00574">
        <ele>2473.15099904</ele>
        <time>2020-02-16T11:00:56.010Z</time>
      </trkpt>
      <trkpt lat="44.79417" lon="7.00566">
        <ele>2474</ele>
        <time>2020-02-16T11:01:04.010Z</time>
      </trkpt>
      <trkpt lat="44.79419" lon="7.00579">
        <ele>2475.83399936</ele>
        <time>2020-02-16T11:01:23.010Z</time>
      </trkpt>
      <trkpt lat="44.79426" lon="7.0057">
        <ele>2479</ele>
        <time>2020-02-16T11:01:50.480Z</time>
      </trkpt>
      <trkpt lat="44.79425" lon="7.00583">
        <ele>2483.9689320195</ele>
        <time>2020-02-16T11:02:39.010Z</time>
      </trkpt>
      <trkpt lat="44.79434" lon="7.00587">
        <ele>2484.95099904</ele>
        <time>2020-02-16T11:03:02.010Z</time>
      </trkpt>
      <trkpt lat="44.79435" lon="7.00574">
        <ele>2487</ele>
        <time>2020-02-16T11:03:18.010Z</time>
      </trkpt>
      <trkpt lat="44.79437" lon="7.00562">
        <ele>2487.95099904</ele>
        <time>2020-02-16T11:03:32.010Z</time>
      </trkpt>
      <trkpt lat="44.7944" lon="7.00574">
        <ele>2493.2577611646</ele>
        <time>2020-02-16T11:04:00.010Z</time>
      </trkpt>
      <trkpt lat="44.79444" lon="7.00586">
        <ele>2497.03399936</ele>
        <time>2020-02-16T11:04:14.010Z</time>
      </trkpt>
      <trkpt lat="44.79446" lon="7.00599">
        <ele>2499</ele>
        <time>2020-02-16T11:04:38.010Z</time>
      </trkpt>
      <trkpt lat="44.79451" lon="7.0061">
        <ele>2502.48300032</ele>
        <time>2020-02-16T11:04:54.010Z</time>
      </trkpt>
      <trkpt lat="44.79452" lon="7.00622">
        <ele>2506</ele>
        <time>2020-02-16T11:05:13.010Z</time>
      </trkpt>
      <trkpt lat="44.79455" lon="7.00635">
        <ele>2508.4606160844</ele>
        <time>2020-02-16T11:05:25.010Z</time>
      </trkpt>
      <trkpt lat="44.79455" lon="7.00648">
        <ele>2510</ele>
        <time>2020-02-16T11:05:37.010Z</time>
      </trkpt>
      <trkpt lat="44.79452" lon="7.0066">
        <ele>2514.2926579383</ele>
        <time>2020-02-16T11:05:56.010Z</time>
      </trkpt>
      <trkpt lat="44.79461" lon="7.0066">
        <ele>2517.8304904571</ele>
        <time>2020-02-16T11:06:23.010Z</time>
      </trkpt>
      <trkpt lat="44.79469" lon="7.00653">
        <ele>2520.95099904</ele>
        <time>2020-02-16T11:06:42.010Z</time>
      </trkpt>
      <trkpt lat="44.79475" lon="7.00642">
        <ele>2523</ele>
        <time>2020-02-16T11:06:55.010Z</time>
      </trkpt>
      <trkpt lat="44.79482" lon="7.00635">
        <ele>2526.2582230083</ele>
        <time>2020-02-16T11:07:17.010Z</time>
      </trkpt>
      <trkpt lat="44.7949" lon="7.00629">
        <ele>2528.0849984</ele>
        <time>2020-02-16T11:07:39.010Z</time>
      </trkpt>
      <trkpt lat="44.79496" lon="7.00619">
        <ele>2533</ele>
        <time>2020-02-16T11:07:57.010Z</time>
      </trkpt>
      <trkpt lat="44.79504" lon="7.00613">
        <ele>2536</ele>
        <time>2020-02-16T11:08:14.010Z</time>
      </trkpt>
      <trkpt lat="44.79511" lon="7.00623">
        <ele>2536.3625127539</ele>
        <time>2020-02-16T11:08:30.010Z</time>
      </trkpt>
      <trkpt lat="44.79514" lon="7.00635">
        <ele>2540</ele>
        <time>2020-02-16T11:08:42.010Z</time>
      </trkpt>
      <trkpt lat="44.79517" lon="7.00647">
        <ele>2540</ele>
        <time>2020-02-16T11:08:58.010Z</time>
      </trkpt>
      <trkpt lat="44.79517" lon="7.00661">
        <ele>2544.31699968</ele>
        <time>2020-02-16T11:09:22.010Z</time>
      </trkpt>
      <trkpt lat="44.79518" lon="7.00674">
        <ele>2549.31699968</ele>
        <time>2020-02-16T11:09:42.010Z</time>
      </trkpt>
      <trkpt lat="44.79524" lon="7.00684">
        <ele>2550</ele>
        <time>2020-02-16T11:09:56.010Z</time>
      </trkpt>
      <trkpt lat="44.79533" lon="7.00682">
        <ele>2553.31699968</ele>
        <time>2020-02-16T11:10:32.010Z</time>
      </trkpt>
      <trkpt lat="44.79541" lon="7.00687">
        <ele>2559.21699968</ele>
        <time>2020-02-16T11:11:01.010Z</time>
      </trkpt>
      <trkpt lat="44.79545" lon="7.007">
        <ele>2563.51699968</ele>
        <time>2020-02-16T11:11:24.010Z</time>
      </trkpt>
      <trkpt lat="44.79551" lon="7.00709">
        <ele>2565</ele>
        <time>2020-02-16T11:11:40.010Z</time>
      </trkpt>
      <trkpt lat="44.79557" lon="7.00718">
        <ele>2567.4498984849</ele>
        <time>2020-02-16T11:11:57.010Z</time>
      </trkpt>
      <trkpt lat="44.79562" lon="7.00729">
        <ele>2568</ele>
        <time>2020-02-16T11:12:11.010Z</time>
      </trkpt>
      <trkpt lat="44.79569" lon="7.00739">
        <ele>2568</ele>
        <time>2020-02-16T11:12:24.010Z</time>
      </trkpt>
      <trkpt lat="44.79572" lon="7.00751">
        <ele>2575.01699968</ele>
        <time>2020-02-16T11:12:39.010Z</time>
      </trkpt>
      <trkpt lat="44.79577" lon="7.00763">
        <ele>2576.11899776</ele>
        <time>2020-02-16T11:12:59.010Z</time>
      </trkpt>
      <trkpt lat="44.79583" lon="7.00774">
        <ele>2582.08300032</ele>
        <time>2020-02-16T11:13:18.010Z</time>
      </trkpt>
      <trkpt lat="44.79589" lon="7.00784">
        <ele>2582.21699968</ele>
        <time>2020-02-16T11:13:31.010Z</time>
      </trkpt>
      <trkpt lat="44.79596" lon="7.00793">
        <ele>2583</ele>
        <time>2020-02-16T11:13:46.010Z</time>
      </trkpt>
      <trkpt lat="44.79603" lon="7.00802">
        <ele>2585</ele>
        <time>2020-02-16T11:14:03.010Z</time>
      </trkpt>
      <trkpt lat="44.7961" lon="7.00811">
        <ele>2585.81699968</ele>
        <time>2020-02-16T11:14:17.010Z</time>
      </trkpt>
      <trkpt lat="44.79618" lon="7.00819">
        <ele>2586</ele>
        <time>2020-02-16T11:14:30.010Z</time>
      </trkpt>
      <trkpt lat="44.79627" lon="7.00815">
        <ele>2592.0894144236</ele>
        <time>2020-02-16T11:14:50.010Z</time>
      </trkpt>
      <trkpt lat="44.79633" lon="7.00825">
        <ele>2596.0164566169</ele>
        <time>2020-02-16T11:15:09.010Z</time>
      </trkpt>
      <trkpt lat="44.79637" lon="7.00838">
        <ele>2597.8107546438</ele>
        <time>2020-02-16T11:15:27.010Z</time>
      </trkpt>
      <trkpt lat="44.79639" lon="7.0085">
        <ele>2601.03399936</ele>
        <time>2020-02-16T11:15:49.010Z</time>
      </trkpt>
      <trkpt lat="44.79638" lon="7.00863">
        <ele>2605.05099904</ele>
        <time>2020-02-16T11:16:09.010Z</time>
      </trkpt>
      <trkpt lat="44.79641" lon="7.00876">
        <ele>2608.31699968</ele>
        <time>2020-02-16T11:16:22.010Z</time>
      </trkpt>
      <trkpt lat="44.79645" lon="7.00888">
        <ele>2608.18300032</ele>
        <time>2020-02-16T11:16:37.010Z</time>
      </trkpt>
      <trkpt lat="44.79646" lon="7.00901">
        <ele>2612.0849984</ele>
        <time>2020-02-16T11:16:55.010Z</time>
      </trkpt>
      <trkpt lat="44.79647" lon="7.00913">
        <ele>2613.66799872</ele>
        <time>2020-02-16T11:17:13.010Z</time>
      </trkpt>
      <trkpt lat="44.79649" lon="7.00926">
        <ele>2615.08300032</ele>
        <time>2020-02-16T11:17:28.010Z</time>
      </trkpt>
      <trkpt lat="44.79648" lon="7.00939">
        <ele>2619.98300032</ele>
        <time>2020-02-16T11:17:49.010Z</time>
      </trkpt>
      <trkpt lat="44.79652" lon="7.0095">
        <ele>2621.06799872</ele>
        <time>2020-02-16T11:18:04.010Z</time>
      </trkpt>
      <trkpt lat="44.79656" lon="7.00962">
        <ele>2623</ele>
        <time>2020-02-16T11:18:18.010Z</time>
      </trkpt>
      <trkpt lat="44.79658" lon="7.00975">
        <ele>2624.0887506588</ele>
        <time>2020-02-16T11:19:20.010Z</time>
      </trkpt>
      <trkpt lat="44.79663" lon="7.00986">
        <ele>2626.11699968</ele>
        <time>2020-02-16T11:20:00.010Z</time>
      </trkpt>
      <trkpt lat="44.79665" lon="7.00999">
        <ele>2630.86799872</ele>
        <time>2020-02-16T11:20:36.010Z</time>
      </trkpt>
      <trkpt lat="44.79665" lon="7.01012">
        <ele>2633.63399936</ele>
        <time>2020-02-16T11:21:02.010Z</time>
      </trkpt>
      <trkpt lat="44.79664" lon="7.01025">
        <ele>2638.76600064</ele>
        <time>2020-02-16T11:21:20.010Z</time>
      </trkpt>
      <trkpt lat="44.79672" lon="7.0103">
        <ele>2640</ele>
        <time>2020-02-16T11:21:58.010Z</time>
      </trkpt>
      <trkpt lat="44.7968" lon="7.01023">
        <ele>2641.65099904</ele>
        <time>2020-02-16T11:22:21.010Z</time>
      </trkpt>
      <trkpt lat="44.79684" lon="7.01035">
        <ele>2648.71699968</ele>
        <time>2020-02-16T11:23:06.010Z</time>
      </trkpt>
      <trkpt lat="44.79683" lon="7.01048">
        <ele>2650.5155461635</ele>
        <time>2020-02-16T11:23:24.010Z</time>
      </trkpt>
      <trkpt lat="44.79682" lon="7.01061">
        <ele>2653.9133462948</ele>
        <time>2020-02-16T11:23:48.010Z</time>
      </trkpt>
      <trkpt lat="44.79686" lon="7.01074">
        <ele>2657</ele>
        <time>2020-02-16T11:24:06.010Z</time>
      </trkpt>
      <trkpt lat="44.79693" lon="7.01082">
        <ele>2660</ele>
        <time>2020-02-16T11:24:32.010Z</time>
      </trkpt>
      <trkpt lat="44.79702" lon="7.01081">
        <ele>2661</ele>
        <time>2020-02-16T11:24:52.010Z</time>
      </trkpt>
      <trkpt lat="44.79692" lon="7.01083">
        <ele>2663.56600064</ele>
        <time>2020-02-16T11:25:16.010Z</time>
      </trkpt>
      <trkpt lat="44.797" lon="7.01076">
        <ele>2665</ele>
        <time>2020-02-16T11:25:44.010Z</time>
      </trkpt>
      <trkpt lat="44.79706" lon="7.01067">
        <ele>2665.43399936</ele>
        <time>2020-02-16T11:26:01.010Z</time>
      </trkpt>
      <trkpt lat="44.79713" lon="7.01058">
        <ele>2670</ele>
        <time>2020-02-16T11:26:24.010Z</time>
      </trkpt>
      <trkpt lat="44.79719" lon="7.01048">
        <ele>2670</ele>
        <time>2020-02-16T11:26:44.010Z</time>
      </trkpt>
      <trkpt lat="44.79725" lon="7.01038">
        <ele>2673.26799872</ele>
        <time>2020-02-16T11:27:17.010Z</time>
      </trkpt>
      <trkpt lat="44.79733" lon="7.01045">
        <ele>2678.06799872</ele>
        <time>2020-02-16T11:28:09.010Z</time>
      </trkpt>
      <trkpt lat="44.79735" lon="7.01058">
        <ele>2681.3160514246</ele>
        <time>2020-02-16T11:28:32.010Z</time>
      </trkpt>
      <trkpt lat="44.79739" lon="7.0107">
        <ele>2687.31699968</ele>
        <time>2020-02-16T11:29:52.010Z</time>
      </trkpt>
      <trkpt lat="44.79741" lon="7.01082">
        <ele>2692</ele>
        <time>2020-02-16T11:30:41.010Z</time>
      </trkpt>
      <trkpt lat="44.79745" lon="7.01094">
        <ele>2692.5014516171</ele>
        <time>2020-02-16T11:31:04.010Z</time>
      </trkpt>
      <trkpt lat="44.79753" lon="7.01089">
        <ele>2698.68300032</ele>
        <time>2020-02-16T11:31:32.010Z</time>
      </trkpt>
      <trkpt lat="44.7976" lon="7.01082">
        <ele>2697.3845384739</ele>
        <time>2020-02-16T11:31:55.010Z</time>
      </trkpt>
      <trkpt lat="44.79767" lon="7.01072">
        <ele>2705.8300032</ele>
        <time>2020-02-16T11:32:12.010Z</time>
      </trkpt>
      <trkpt lat="44.79773" lon="7.01063">
        <ele>2701.71699968</ele>
        <time>2020-02-16T11:32:46.010Z</time>
      </trkpt>
      <trkpt lat="44.79778" lon="7.01053">
        <ele>2702.81699968</ele>
        <time>2020-02-16T11:33:07.010Z</time>
      </trkpt>
      <trkpt lat="44.79785" lon="7.01044">
        <ele>2708.78300032</ele>
        <time>2020-02-16T11:34:31.010Z</time>
      </trkpt>
      <trkpt lat="44.79787" lon="7.01031">
        <ele>2709</ele>
        <time>2020-02-16T11:34:56.010Z</time>
      </trkpt>
      <trkpt lat="44.7979" lon="7.01019">
        <ele>2713.41699968</ele>
        <time>2020-02-16T11:35:13.010Z</time>
      </trkpt>
      <trkpt lat="44.79794" lon="7.01007">
        <ele>2713.43399936</ele>
        <time>2020-02-16T11:35:31.010Z</time>
      </trkpt>
      <trkpt lat="44.79802" lon="7.01015">
        <ele>2718.90199808</ele>
        <time>2020-02-16T11:36:17.010Z</time>
      </trkpt>
      <trkpt lat="44.79805" lon="7.01027">
        <ele>2721.41699968</ele>
        <time>2020-02-16T11:36:43.010Z</time>
      </trkpt>
      <trkpt lat="44.7981" lon="7.0104">
        <ele>2725</ele>
        <time>2020-02-16T11:37:11.010Z</time>
      </trkpt>
      <trkpt lat="44.79817" lon="7.01032">
        <ele>2727.1445646598</ele>
        <time>2020-02-16T11:38:06.010Z</time>
      </trkpt>
      <trkpt lat="44.79822" lon="7.01021">
        <ele>2728.31699968</ele>
        <time>2020-02-16T11:38:22.010Z</time>
      </trkpt>
      <trkpt lat="44.79826" lon="7.01009">
        <ele>2731.01699968</ele>
        <time>2020-02-16T11:38:39.010Z</time>
      </trkpt>
      <trkpt lat="44.79831" lon="7.00998">
        <ele>2736.0849984</ele>
        <time>2020-02-16T11:39:07.010Z</time>
      </trkpt>
      <trkpt lat="44.79832" lon="7.00984">
        <ele>2735.43399936</ele>
        <time>2020-02-16T11:39:21.010Z</time>
      </trkpt>
      <trkpt lat="44.79836" lon="7.00973">
        <ele>2740.26799872</ele>
        <time>2020-02-16T11:39:37.010Z</time>
      </trkpt>
      <trkpt lat="44.7984" lon="7.00961">
        <ele>2744</ele>
        <time>2020-02-16T11:49:27.010Z</time>
      </trkpt>
      <trkpt lat="44.79835" lon="7.0095">
        <ele>2744</ele>
        <time>2020-02-16T11:54:06.010Z</time>
      </trkpt>
      <trkpt lat="44.79826" lon="7.0095">
        <ele>2740.13000064</ele>
        <time>2020-02-16T11:55:10.140Z</time>
      </trkpt>
      <trkpt lat="44.79832" lon="7.0096">
        <ele>2740.8832339269</ele>
        <time>2020-02-16T11:55:20.010Z</time>
      </trkpt>
      <trkpt lat="44.79831" lon="7.00973">
        <ele>2740.1116702702</ele>
        <time>2020-02-16T12:01:50.010Z</time>
      </trkpt>
      <trkpt lat="44.79826" lon="7.00984">
        <ele>2744</ele>
        <time>2020-02-16T12:02:44.010Z</time>
      </trkpt>
      <trkpt lat="44.79823" lon="7.00998">
        <ele>2744</ele>
        <time>2020-02-16T12:02:49.010Z</time>
      </trkpt>
      <trkpt lat="44.79817" lon="7.01012">
        <ele>2742.0144784233</ele>
        <time>2020-02-16T12:02:53.010Z</time>
      </trkpt>
      <trkpt lat="44.79813" lon="7.01025">
        <ele>2739.4291638704</ele>
        <time>2020-02-16T12:02:58.010Z</time>
      </trkpt>
      <trkpt lat="44.79808" lon="7.01011">
        <ele>2730.21100544</ele>
        <time>2020-02-16T12:03:04.010Z</time>
      </trkpt>
      <trkpt lat="44.79806" lon="7.00998">
        <ele>2723.41100544</ele>
        <time>2020-02-16T12:03:08.010Z</time>
      </trkpt>
      <trkpt lat="44.79797" lon="7.01003">
        <ele>2713.01300352</ele>
        <time>2020-02-16T12:03:17.010Z</time>
      </trkpt>
      <trkpt lat="44.79794" lon="7.00988">
        <ele>2708.7876400279</ele>
        <time>2020-02-16T12:03:22.010Z</time>
      </trkpt>
      <trkpt lat="44.79784" lon="7.00986">
        <ele>2701.9237738572</ele>
        <time>2020-02-16T12:03:33.010Z</time>
      </trkpt>
      <trkpt lat="44.79774" lon="7.00988">
        <ele>2696.9150016</ele>
        <time>2020-02-16T12:03:51.010Z</time>
      </trkpt>
      <trkpt lat="44.79767" lon="7.00982">
        <ele>2690.08100224</ele>
        <time>2020-02-16T12:04:03.010Z</time>
      </trkpt>
      <trkpt lat="44.79762" lon="7.00995">
        <ele>2687.28100224</ele>
        <time>2020-02-16T12:04:07.010Z</time>
      </trkpt>
      <trkpt lat="44.79756" lon="7.00985">
        <ele>2683.88100224</ele>
        <time>2020-02-16T12:04:19.010Z</time>
      </trkpt>
      <trkpt lat="44.79747" lon="7.0099">
        <ele>2678.98100224</ele>
        <time>2020-02-16T12:04:26.010Z</time>
      </trkpt>
      <trkpt lat="44.79743" lon="7.01003">
        <ele>2676.96600064</ele>
        <time>2020-02-16T12:04:29.010Z</time>
      </trkpt>
      <trkpt lat="44.79738" lon="7.01016">
        <ele>2676.36600064</ele>
        <time>2020-02-16T12:04:32.010Z</time>
      </trkpt>
      <trkpt lat="44.79733" lon="7.01026">
        <ele>2674.88100224</ele>
        <time>2020-02-16T12:04:39.010Z</time>
      </trkpt>
      <trkpt lat="44.79727" lon="7.01015">
        <ele>2668.58100224</ele>
        <time>2020-02-16T12:04:48.010Z</time>
      </trkpt>
      <trkpt lat="44.79727" lon="7.00999">
        <ele>2665.46400256</ele>
        <time>2020-02-16T12:04:52.010Z</time>
      </trkpt>
      <trkpt lat="44.79725" lon="7.00985">
        <ele>2662.26400256</ele>
        <time>2020-02-16T12:04:56.010Z</time>
      </trkpt>
      <trkpt lat="44.79723" lon="7.00972">
        <ele>2659.9150016</ele>
        <time>2020-02-16T12:04:59.010Z</time>
      </trkpt>
      <trkpt lat="44.7972" lon="7.00957">
        <ele>2657.9150016</ele>
        <time>2020-02-16T12:05:03.010Z</time>
      </trkpt>
      <trkpt lat="44.79714" lon="7.00945">
        <ele>2654.0546723211</ele>
        <time>2020-02-16T12:05:12.010Z</time>
      </trkpt>
      <trkpt lat="44.7971" lon="7.00932">
        <ele>2652.5636176945</ele>
        <time>2020-02-16T12:05:17.010Z</time>
      </trkpt>
      <trkpt lat="44.79704" lon="7.00944">
        <ele>2649.1056334129</ele>
        <time>2020-02-16T12:05:23.010Z</time>
      </trkpt>
      <trkpt lat="44.797" lon="7.00956">
        <ele>2642.93200128</ele>
        <time>2020-02-16T12:05:34.010Z</time>
      </trkpt>
      <trkpt lat="44.79695" lon="7.00942">
        <ele>2641.33200128</ele>
        <time>2020-02-16T12:05:38.010Z</time>
      </trkpt>
      <trkpt lat="44.79693" lon="7.00929">
        <ele>2639.26400256</ele>
        <time>2020-02-16T12:05:41.010Z</time>
      </trkpt>
      <trkpt lat="44.79684" lon="7.00934">
        <ele>2631.7432450965</ele>
        <time>2020-02-16T12:05:51.010Z</time>
      </trkpt>
      <trkpt lat="44.79675" lon="7.00932">
        <ele>2625.4190884647</ele>
        <time>2020-02-16T12:06:03.010Z</time>
      </trkpt>
      <trkpt lat="44.7967" lon="7.0092">
        <ele>2623.7593374274</ele>
        <time>2020-02-16T12:06:07.010Z</time>
      </trkpt>
      <trkpt lat="44.79661" lon="7.00927">
        <ele>2620.13200128</ele>
        <time>2020-02-16T12:06:16.010Z</time>
      </trkpt>
      <trkpt lat="44.79656" lon="7.00915">
        <ele>2614.34700288</ele>
        <time>2020-02-16T12:06:24.010Z</time>
      </trkpt>
      <trkpt lat="44.79648" lon="7.00912">
        <ele>2609.167665841</ele>
        <time>2020-02-16T12:06:33.010Z</time>
      </trkpt>
      <trkpt lat="44.7964" lon="7.0092">
        <ele>2608.3692631574</ele>
        <time>2020-02-16T12:06:37.010Z</time>
      </trkpt>
      <trkpt lat="44.79631" lon="7.00915">
        <ele>2608</ele>
        <time>2020-02-16T12:06:44.010Z</time>
      </trkpt>
      <trkpt lat="44.79628" lon="7.00898">
        <ele>2608</ele>
        <time>2020-02-16T12:06:48.010Z</time>
      </trkpt>
      <trkpt lat="44.79625" lon="7.00887">
        <ele>2604.96200448</ele>
        <time>2020-02-16T12:06:51.010Z</time>
      </trkpt>
      <trkpt lat="44.79616" lon="7.00877">
        <ele>2600.76200448</ele>
        <time>2020-02-16T12:06:54.010Z</time>
      </trkpt>
      <trkpt lat="44.79609" lon="7.00868">
        <ele>2595.16200448</ele>
        <time>2020-02-16T12:06:58.010Z</time>
      </trkpt>
      <trkpt lat="44.79609" lon="7.00855">
        <ele>2593.7832170336</ele>
        <time>2020-02-16T12:07:01.010Z</time>
      </trkpt>
      <trkpt lat="44.79606" lon="7.00843">
        <ele>2591</ele>
        <time>2020-02-16T12:07:41.010Z</time>
      </trkpt>
      <trkpt lat="44.79606" lon="7.00829">
        <ele>2591</ele>
        <time>2020-02-16T12:07:45.010Z</time>
      </trkpt>
      <trkpt lat="44.79605" lon="7.00815">
        <ele>2591</ele>
        <time>2020-02-16T12:07:48.010Z</time>
      </trkpt>
      <trkpt lat="44.79603" lon="7.00801">
        <ele>2587.1081093548</ele>
        <time>2020-02-16T12:07:51.010Z</time>
      </trkpt>
      <trkpt lat="44.79599" lon="7.00789">
        <ele>2581.7027056808</ele>
        <time>2020-02-16T12:07:54.010Z</time>
      </trkpt>
      <trkpt lat="44.79596" lon="7.00776">
        <ele>2576.2973020069</ele>
        <time>2020-02-16T12:07:57.010Z</time>
      </trkpt>
      <trkpt lat="44.79592" lon="7.00761">
        <ele>2571.71300352</ele>
        <time>2020-02-16T12:08:00.010Z</time>
      </trkpt>
      <trkpt lat="44.79588" lon="7.00748">
        <ele>2568.41300352</ele>
        <time>2020-02-16T12:08:03.010Z</time>
      </trkpt>
      <trkpt lat="44.7959" lon="7.00735">
        <ele>2565.11300352</ele>
        <time>2020-02-16T12:08:06.010Z</time>
      </trkpt>
      <trkpt lat="44.7959" lon="7.0072">
        <ele>2561.79600384</ele>
        <time>2020-02-16T12:08:09.010Z</time>
      </trkpt>
      <trkpt lat="44.79586" lon="7.00706">
        <ele>2556.99600384</ele>
        <time>2020-02-16T12:08:13.010Z</time>
      </trkpt>
      <trkpt lat="44.79583" lon="7.00694">
        <ele>2553.39600384</ele>
        <time>2020-02-16T12:08:16.010Z</time>
      </trkpt>
      <trkpt lat="44.79576" lon="7.00682">
        <ele>2548.8300032</ele>
        <time>2020-02-16T12:08:20.010Z</time>
      </trkpt>
      <trkpt lat="44.79576" lon="7.00665">
        <ele>2545.8300032</ele>
        <time>2020-02-16T12:08:23.010Z</time>
      </trkpt>
      <trkpt lat="44.79575" lon="7.00648">
        <ele>2542.8300032</ele>
        <time>2020-02-16T12:08:26.010Z</time>
      </trkpt>
      <trkpt lat="44.79574" lon="7.00633">
        <ele>2539.84700288</ele>
        <time>2020-02-16T12:08:29.010Z</time>
      </trkpt>
      <trkpt lat="44.79576" lon="7.00614">
        <ele>2537.14700288</ele>
        <time>2020-02-16T12:08:32.010Z</time>
      </trkpt>
      <trkpt lat="44.79572" lon="7.00601">
        <ele>2533.54700288</ele>
        <time>2020-02-16T12:08:36.010Z</time>
      </trkpt>
      <trkpt lat="44.79572" lon="7.00586">
        <ele>2531.0169827027</ele>
        <time>2020-02-16T12:08:39.010Z</time>
      </trkpt>
      <trkpt lat="44.7957" lon="7.00573">
        <ele>2531.5164833619</ele>
        <time>2020-02-16T12:08:44.010Z</time>
      </trkpt>
      <trkpt lat="44.79562" lon="7.00562">
        <ele>2531.683683785</ele>
        <time>2020-02-16T12:08:52.010Z</time>
      </trkpt>
      <trkpt lat="44.79557" lon="7.00547">
        <ele>2530</ele>
        <time>2020-02-16T12:09:11.040Z</time>
      </trkpt>
      <trkpt lat="44.79557" lon="7.00534">
        <ele>2530</ele>
        <time>2020-02-16T12:09:18.010Z</time>
      </trkpt>
      <trkpt lat="44.79553" lon="7.00523">
        <ele>2526.4150016</ele>
        <time>2020-02-16T12:09:26.010Z</time>
      </trkpt>
      <trkpt lat="44.79556" lon="7.0051">
        <ele>2524.13200128</ele>
        <time>2020-02-16T12:09:31.010Z</time>
      </trkpt>
      <trkpt lat="44.79557" lon="7.00497">
        <ele>2521.73200128</ele>
        <time>2020-02-16T12:09:37.010Z</time>
      </trkpt>
      <trkpt lat="44.79548" lon="7.00493">
        <ele>2520.1509046916</ele>
        <time>2020-02-16T12:09:51.010Z</time>
      </trkpt>
      <trkpt lat="44.7954" lon="7.005">
        <ele>2517.7364193246</ele>
        <time>2020-02-16T12:09:57.010Z</time>
      </trkpt>
      <trkpt lat="44.79531" lon="7.00501">
        <ele>2516.58300032</ele>
        <time>2020-02-16T12:10:13.010Z</time>
      </trkpt>
      <trkpt lat="44.79522" lon="7.00498">
        <ele>2513.46400256</ele>
        <time>2020-02-16T12:10:22.010Z</time>
      </trkpt>
      <trkpt lat="44.79514" lon="7.00491">
        <ele>2508.66400256</ele>
        <time>2020-02-16T12:10:28.010Z</time>
      </trkpt>
      <trkpt lat="44.79504" lon="7.00485">
        <ele>2506.09800192</ele>
        <time>2020-02-16T12:10:32.010Z</time>
      </trkpt>
      <trkpt lat="44.79495" lon="7.00478">
        <ele>2503.69800192</ele>
        <time>2020-02-16T12:10:36.010Z</time>
      </trkpt>
      <trkpt lat="44.79488" lon="7.00468">
        <ele>2500.36600064</ele>
        <time>2020-02-16T12:10:47.010Z</time>
      </trkpt>
      <trkpt lat="44.7948" lon="7.00461">
        <ele>2495.86400256</ele>
        <time>2020-02-16T12:10:54.010Z</time>
      </trkpt>
      <trkpt lat="44.79476" lon="7.00449">
        <ele>2490.14900096</ele>
        <time>2020-02-16T12:11:05.010Z</time>
      </trkpt>
      <trkpt lat="44.79475" lon="7.00434">
        <ele>2483.0712255394</ele>
        <time>2020-02-16T12:11:22.010Z</time>
      </trkpt>
      <trkpt lat="44.79479" lon="7.00423">
        <ele>2474.2447432681</ele>
        <time>2020-02-16T12:11:26.010Z</time>
      </trkpt>
      <trkpt lat="44.79482" lon="7.00409">
        <ele>2467.58300032</ele>
        <time>2020-02-16T12:11:33.010Z</time>
      </trkpt>
      <trkpt lat="44.79482" lon="7.00397">
        <ele>2469.8338332464</ele>
        <time>2020-02-16T12:12:08.010Z</time>
      </trkpt>
      <trkpt lat="44.79472" lon="7.004">
        <ele>2465.16600064</ele>
        <time>2020-02-16T12:12:33.010Z</time>
      </trkpt>
      <trkpt lat="44.79463" lon="7.00406">
        <ele>2464.36600064</ele>
        <time>2020-02-16T12:12:37.010Z</time>
      </trkpt>
      <trkpt lat="44.79455" lon="7.00414">
        <ele>2464.63399936</ele>
        <time>2020-02-16T12:12:42.010Z</time>
      </trkpt>
      <trkpt lat="44.79447" lon="7.00421">
        <ele>2465.98300032</ele>
        <time>2020-02-16T12:12:49.010Z</time>
      </trkpt>
      <trkpt lat="44.79439" lon="7.00429">
        <ele>2465.38300032</ele>
        <time>2020-02-16T12:12:55.010Z</time>
      </trkpt>
      <trkpt lat="44.79431" lon="7.00438">
        <ele>2464.96600064</ele>
        <time>2020-02-16T12:12:59.010Z</time>
      </trkpt>
      <trkpt lat="44.79424" lon="7.00449">
        <ele>2464.36600064</ele>
        <time>2020-02-16T12:13:02.010Z</time>
      </trkpt>
      <trkpt lat="44.79418" lon="7.0046">
        <ele>2463.56600064</ele>
        <time>2020-02-16T12:13:06.010Z</time>
      </trkpt>
      <trkpt lat="44.79412" lon="7.00471">
        <ele>2462.56600064</ele>
        <time>2020-02-16T12:13:11.010Z</time>
      </trkpt>
      <trkpt lat="44.79408" lon="7.00483">
        <ele>2461.23399936</ele>
        <time>2020-02-16T12:13:20.010Z</time>
      </trkpt>
      <trkpt lat="44.79401" lon="7.00492">
        <ele>2463</ele>
        <time>2020-02-16T12:13:40.010Z</time>
      </trkpt>
      <trkpt lat="44.7939" lon="7.0049">
        <ele>2458.69800192</ele>
        <time>2020-02-16T12:14:06.010Z</time>
      </trkpt>
      <trkpt lat="44.79379" lon="7.00489">
        <ele>2457.49800192</ele>
        <time>2020-02-16T12:14:08.010Z</time>
      </trkpt>
      <trkpt lat="44.79369" lon="7.00492">
        <ele>2456.18100224</ele>
        <time>2020-02-16T12:14:10.010Z</time>
      </trkpt>
      <trkpt lat="44.79358" lon="7.00498">
        <ele>2454.08100224</ele>
        <time>2020-02-16T12:14:13.010Z</time>
      </trkpt>
      <trkpt lat="44.79349" lon="7.00506">
        <ele>2451.98100224</ele>
        <time>2020-02-16T12:14:16.010Z</time>
      </trkpt>
      <trkpt lat="44.7934" lon="7.00515">
        <ele>2450</ele>
        <time>2020-02-16T12:14:20.010Z</time>
      </trkpt>
      <trkpt lat="44.79332" lon="7.00523">
        <ele>2450</ele>
        <time>2020-02-16T12:14:25.010Z</time>
      </trkpt>
      <trkpt lat="44.79323" lon="7.00532">
        <ele>2450</ele>
        <time>2020-02-16T12:14:30.010Z</time>
      </trkpt>
      <trkpt lat="44.79315" lon="7.0054">
        <ele>2450</ele>
        <time>2020-02-16T12:14:33.010Z</time>
      </trkpt>
      <trkpt lat="44.79306" lon="7.0055">
        <ele>2450</ele>
        <time>2020-02-16T12:14:36.010Z</time>
      </trkpt>
      <trkpt lat="44.79297" lon="7.00563">
        <ele>2449.69400576</ele>
        <time>2020-02-16T12:14:39.010Z</time>
      </trkpt>
      <trkpt lat="44.79289" lon="7.00576">
        <ele>2444.29400576</ele>
        <time>2020-02-16T12:14:42.010Z</time>
      </trkpt>
      <trkpt lat="44.79262" lon="7.00626">
        <ele>2433.9480544889</ele>
        <time>2020-02-16T12:14:55.340Z</time>
      </trkpt>
      <trkpt lat="44.79272" lon="7.00632">
        <ele>2429.7450048</ele>
        <time>2020-02-16T12:15:13.010Z</time>
      </trkpt>
      <trkpt lat="44.79279" lon="7.00642">
        <ele>2425.2450048</ele>
        <time>2020-02-16T12:15:16.010Z</time>
      </trkpt>
      <trkpt lat="44.79284" lon="7.00652">
        <ele>2420.6218642186</ele>
        <time>2020-02-16T12:15:19.010Z</time>
      </trkpt>
      <trkpt lat="44.79289" lon="7.00666">
        <ele>2413.948754229</ele>
        <time>2020-02-16T12:15:22.010Z</time>
      </trkpt>
      <trkpt lat="44.79293" lon="7.0068">
        <ele>2407.2756442394</ele>
        <time>2020-02-16T12:15:25.010Z</time>
      </trkpt>
      <trkpt lat="44.79291" lon="7.00694">
        <ele>2398.3781642534</ele>
        <time>2020-02-16T12:15:29.010Z</time>
      </trkpt>
      <trkpt lat="44.79283" lon="7.00702">
        <ele>2393.0000066253</ele>
        <time>2020-02-16T12:15:34.010Z</time>
      </trkpt>
      <trkpt lat="44.79279" lon="7.00717">
        <ele>2387.77900416</ele>
        <time>2020-02-16T12:15:39.010Z</time>
      </trkpt>
      <trkpt lat="44.79275" lon="7.00729">
        <ele>2383.87900416</ele>
        <time>2020-02-16T12:15:42.010Z</time>
      </trkpt>
      <trkpt lat="44.79266" lon="7.00741">
        <ele>2378.67900416</ele>
        <time>2020-02-16T12:15:46.010Z</time>
      </trkpt>
      <trkpt lat="44.79255" lon="7.00745">
        <ele>2374.89800192</ele>
        <time>2020-02-16T12:15:49.010Z</time>
      </trkpt>
      <trkpt lat="44.79243" lon="7.00749">
        <ele>2373.09800192</ele>
        <time>2020-02-16T12:15:52.010Z</time>
      </trkpt>
      <trkpt lat="44.79231" lon="7.00755">
        <ele>2371.29800192</ele>
        <time>2020-02-16T12:15:55.010Z</time>
      </trkpt>
      <trkpt lat="44.79221" lon="7.00762">
        <ele>2369.49800192</ele>
        <time>2020-02-16T12:15:58.010Z</time>
      </trkpt>
      <trkpt lat="44.79213" lon="7.0077">
        <ele>2369</ele>
        <time>2020-02-16T12:16:01.010Z</time>
      </trkpt>
      <trkpt lat="44.79206" lon="7.00782">
        <ele>2369</ele>
        <time>2020-02-16T12:16:05.010Z</time>
      </trkpt>
      <trkpt lat="44.792" lon="7.00793">
        <ele>2368.89800192</ele>
        <time>2020-02-16T12:16:09.010Z</time>
      </trkpt>
      <trkpt lat="44.79195" lon="7.00805">
        <ele>2365.89800192</ele>
        <time>2020-02-16T12:16:14.010Z</time>
      </trkpt>
      <trkpt lat="44.79195" lon="7.00818">
        <ele>2361.4150016</ele>
        <time>2020-02-16T12:17:02.010Z</time>
      </trkpt>
      <trkpt lat="44.792" lon="7.00832">
        <ele>2356.36600064</ele>
        <time>2020-02-16T12:17:17.010Z</time>
      </trkpt>
      <trkpt lat="44.79207" lon="7.00842">
        <ele>2356</ele>
        <time>2020-02-16T12:17:27.010Z</time>
      </trkpt>
      <trkpt lat="44.79216" lon="7.00845">
        <ele>2356</ele>
        <time>2020-02-16T12:17:35.010Z</time>
      </trkpt>
      <trkpt lat="44.7921" lon="7.00855">
        <ele>2356</ele>
        <time>2020-02-16T12:17:45.010Z</time>
      </trkpt>
      <trkpt lat="44.79203" lon="7.00863">
        <ele>2352.16600064</ele>
        <time>2020-02-16T12:18:18.010Z</time>
      </trkpt>
      <trkpt lat="44.79199" lon="7.00875">
        <ele>2355.9889332868</ele>
        <time>2020-02-16T12:19:09.010Z</time>
      </trkpt>
      <trkpt lat="44.79195" lon="7.00886">
        <ele>2354</ele>
        <time>2020-02-16T12:20:30.010Z</time>
      </trkpt>
      <trkpt lat="44.79201" lon="7.00878">
        <ele>2375.35099904</ele>
        <time>2020-02-16T12:23:10.010Z</time>
      </trkpt>
      <trkpt lat="44.79201" lon="7.00865">
        <ele>2395.6328979363</ele>
        <time>2020-02-16T12:25:37.010Z</time>
      </trkpt>
      <trkpt lat="44.79196" lon="7.00854">
        <ele>2398.98300032</ele>
        <time>2020-02-16T12:25:59.010Z</time>
      </trkpt>
      <trkpt lat="44.79189" lon="7.00842">
        <ele>2398.28300032</ele>
        <time>2020-02-16T12:26:06.010Z</time>
      </trkpt>
      <trkpt lat="44.79182" lon="7.00831">
        <ele>2398.86799872</ele>
        <time>2020-02-16T12:26:11.010Z</time>
      </trkpt>
      <trkpt lat="44.79178" lon="7.00818">
        <ele>2402</ele>
        <time>2020-02-16T12:26:19.010Z</time>
      </trkpt>
      <trkpt lat="44.7917" lon="7.00813">
        <ele>2407.316366744</ele>
        <time>2020-02-16T12:28:52.010Z</time>
      </trkpt>
      <trkpt lat="44.79162" lon="7.00805">
        <ele>2413.46799872</ele>
        <time>2020-02-16T12:29:20.010Z</time>
      </trkpt>
      <trkpt lat="44.79153" lon="7.00806">
        <ele>2417</ele>
        <time>2020-02-16T12:29:32.010Z</time>
      </trkpt>
      <trkpt lat="44.79143" lon="7.00808">
        <ele>2418.581581075</ele>
        <time>2020-02-16T12:29:42.010Z</time>
      </trkpt>
      <trkpt lat="44.79138" lon="7.00797">
        <ele>2422.51699968</ele>
        <time>2020-02-16T12:30:04.010Z</time>
      </trkpt>
      <trkpt lat="44.79137" lon="7.00784">
        <ele>2424.8321677785</ele>
        <time>2020-02-16T12:30:18.010Z</time>
      </trkpt>
      <trkpt lat="44.7913" lon="7.00775">
        <ele>2428</ele>
        <time>2020-02-16T12:30:36.010Z</time>
      </trkpt>
      <trkpt lat="44.79122" lon="7.00781">
        <ele>2432</ele>
        <time>2020-02-16T12:30:49.010Z</time>
      </trkpt>
      <trkpt lat="44.79116" lon="7.00792">
        <ele>2432.51699968</ele>
        <time>2020-02-16T12:31:04.010Z</time>
      </trkpt>
      <trkpt lat="44.79111" lon="7.0078">
        <ele>2436.63399936</ele>
        <time>2020-02-16T12:31:32.010Z</time>
      </trkpt>
      <trkpt lat="44.79103" lon="7.00786">
        <ele>2441.6151540211</ele>
        <time>2020-02-16T12:32:05.010Z</time>
      </trkpt>
      <trkpt lat="44.79093" lon="7.00782">
        <ele>2444.1484440998</ele>
        <time>2020-02-16T12:32:16.010Z</time>
      </trkpt>
      <trkpt lat="44.79085" lon="7.00778">
        <ele>2445.01699968</ele>
        <time>2020-02-16T12:32:29.010Z</time>
      </trkpt>
      <trkpt lat="44.79075" lon="7.00775">
        <ele>2449.5974155689</ele>
        <time>2020-02-16T12:32:44.010Z</time>
      </trkpt>
      <trkpt lat="44.79066" lon="7.00778">
        <ele>2451.3682096623</ele>
        <time>2020-02-16T12:32:57.010Z</time>
      </trkpt>
      <trkpt lat="44.79057" lon="7.00774">
        <ele>2452.416416283</ele>
        <time>2020-02-16T12:33:13.010Z</time>
      </trkpt>
      <trkpt lat="44.79049" lon="7.0077">
        <ele>2453.316316215</ele>
        <time>2020-02-16T12:33:32.010Z</time>
      </trkpt>
      <trkpt lat="44.7904" lon="7.00774">
        <ele>2456</ele>
        <time>2020-02-16T12:33:57.010Z</time>
      </trkpt>
      <trkpt lat="44.79037" lon="7.00786">
        <ele>2459.6283774517</ele>
        <time>2020-02-16T12:34:21.010Z</time>
      </trkpt>
      <trkpt lat="44.79027" lon="7.00787">
        <ele>2461.2935687967</ele>
        <time>2020-02-16T12:34:36.010Z</time>
      </trkpt>
      <trkpt lat="44.79018" lon="7.00784">
        <ele>2464.95099904</ele>
        <time>2020-02-16T12:34:52.010Z</time>
      </trkpt>
      <trkpt lat="44.79011" lon="7.00778">
        <ele>2466.2783915487</ele>
        <time>2020-02-16T12:35:11.010Z</time>
      </trkpt>
      <trkpt lat="44.79004" lon="7.00769">
        <ele>2471</ele>
        <time>2020-02-16T12:35:30.010Z</time>
      </trkpt>
      <trkpt lat="44.78995" lon="7.00762">
        <ele>2474.26799872</ele>
        <time>2020-02-16T12:35:47.010Z</time>
      </trkpt>
      <trkpt lat="44.78987" lon="7.00758">
        <ele>2474</ele>
        <time>2020-02-16T12:36:00.010Z</time>
      </trkpt>
      <trkpt lat="44.78977" lon="7.00756">
        <ele>2473.58300032</ele>
        <time>2020-02-16T12:36:13.010Z</time>
      </trkpt>
      <trkpt lat="44.78967" lon="7.00758">
        <ele>2473</ele>
        <time>2020-02-16T12:36:27.010Z</time>
      </trkpt>
      <trkpt lat="44.78958" lon="7.0076">
        <ele>2475</ele>
        <time>2020-02-16T12:36:44.010Z</time>
      </trkpt>
      <trkpt lat="44.78949" lon="7.00758">
        <ele>2475.91699968</ele>
        <time>2020-02-16T12:36:58.010Z</time>
      </trkpt>
      <trkpt lat="44.7895" lon="7.00745">
        <ele>2480</ele>
        <time>2020-02-16T12:37:13.010Z</time>
      </trkpt>
      <trkpt lat="44.78944" lon="7.00735">
        <ele>2482.0163615734</ele>
        <time>2020-02-16T12:37:29.010Z</time>
      </trkpt>
      <trkpt lat="44.78935" lon="7.00731">
        <ele>2483.185223121</ele>
        <time>2020-02-16T12:37:41.010Z</time>
      </trkpt>
      <trkpt lat="44.78926" lon="7.00728">
        <ele>2485</ele>
        <time>2020-02-16T12:38:02.010Z</time>
      </trkpt>
      <trkpt lat="44.78917" lon="7.00728">
        <ele>2485.315630503</ele>
        <time>2020-02-16T12:38:12.010Z</time>
      </trkpt>
      <trkpt lat="44.78916" lon="7.00715">
        <ele>2487.7164323632</ele>
        <time>2020-02-16T12:38:36.010Z</time>
      </trkpt>
      <trkpt lat="44.78914" lon="7.00703">
        <ele>2493</ele>
        <time>2020-02-16T12:39:18.010Z</time>
      </trkpt>
      <trkpt lat="44.78905" lon="7.007">
        <ele>2493</ele>
        <time>2020-02-16T12:39:31.010Z</time>
      </trkpt>
      <trkpt lat="44.78896" lon="7.00694">
        <ele>2493</ele>
        <time>2020-02-16T12:39:44.010Z</time>
      </trkpt>
      <trkpt lat="44.78887" lon="7.00689">
        <ele>2494.8336665867</ele>
        <time>2020-02-16T12:39:58.010Z</time>
      </trkpt>
      <trkpt lat="44.78879" lon="7.00684">
        <ele>2498.45099904</ele>
        <time>2020-02-16T12:40:17.010Z</time>
      </trkpt>
      <trkpt lat="44.78872" lon="7.00675">
        <ele>2502</ele>
        <time>2020-02-16T12:40:40.010Z</time>
      </trkpt>
      <trkpt lat="44.78867" lon="7.00664">
        <ele>2502.3952278838</ele>
        <time>2020-02-16T12:40:53.010Z</time>
      </trkpt>
      <trkpt lat="44.78862" lon="7.00652">
        <ele>2503</ele>
        <time>2020-02-16T12:41:06.010Z</time>
      </trkpt>
      <trkpt lat="44.78857" lon="7.00642">
        <ele>2504.0160160109</ele>
        <time>2020-02-16T12:41:19.010Z</time>
      </trkpt>
      <trkpt lat="44.78851" lon="7.00632">
        <ele>2506.5463594668</ele>
        <time>2020-02-16T12:41:34.010Z</time>
      </trkpt>
      <trkpt lat="44.78843" lon="7.00625">
        <ele>2510.4493469045</ele>
        <time>2020-02-16T12:41:47.010Z</time>
      </trkpt>
      <trkpt lat="44.78835" lon="7.00617">
        <ele>2511.4152452286</ele>
        <time>2020-02-16T12:42:03.010Z</time>
      </trkpt>
      <trkpt lat="44.78827" lon="7.00612">
        <ele>2513.8473032512</ele>
        <time>2020-02-16T12:42:15.010Z</time>
      </trkpt>
      <trkpt lat="44.78821" lon="7.00602">
        <ele>2518</ele>
        <time>2020-02-16T12:42:33.010Z</time>
      </trkpt>
      <trkpt lat="44.78814" lon="7.00593">
        <ele>2518.6157677504</ele>
        <time>2020-02-16T12:42:45.010Z</time>
      </trkpt>
      <trkpt lat="44.7881" lon="7.00582">
        <ele>2523.2985941795</ele>
        <time>2020-02-16T12:42:56.010Z</time>
      </trkpt>
      <trkpt lat="44.78805" lon="7.0057">
        <ele>2525</ele>
        <time>2020-02-16T12:43:12.010Z</time>
      </trkpt>
      <trkpt lat="44.78798" lon="7.00561">
        <ele>2528.70199808</ele>
        <time>2020-02-16T12:43:25.010Z</time>
      </trkpt>
      <trkpt lat="44.78791" lon="7.00554">
        <ele>2530.21699968</ele>
        <time>2020-02-16T12:43:41.010Z</time>
      </trkpt>
      <trkpt lat="44.78782" lon="7.00549">
        <ele>2532.5787428549</ele>
        <time>2020-02-16T12:43:57.010Z</time>
      </trkpt>
      <trkpt lat="44.78775" lon="7.00541">
        <ele>2534.06799872</ele>
        <time>2020-02-16T12:44:14.010Z</time>
      </trkpt>
      <trkpt lat="44.78768" lon="7.00532">
        <ele>2536</ele>
        <time>2020-02-16T12:44:27.010Z</time>
      </trkpt>
      <trkpt lat="44.7876" lon="7.00524">
        <ele>2543</ele>
        <time>2020-02-16T12:44:41.010Z</time>
      </trkpt>
      <trkpt lat="44.78753" lon="7.00516">
        <ele>2543</ele>
        <time>2020-02-16T12:44:57.010Z</time>
      </trkpt>
      <trkpt lat="44.78749" lon="7.00505">
        <ele>2545.51899776</ele>
        <time>2020-02-16T12:45:31.010Z</time>
      </trkpt>
      <trkpt lat="44.78739" lon="7.00506">
        <ele>2540.7450048</ele>
        <time>2020-02-16T12:45:53.010Z</time>
      </trkpt>
      <trkpt lat="44.78727" lon="7.00507">
        <ele>2534.7450048</ele>
        <time>2020-02-16T12:45:57.010Z</time>
      </trkpt>
      <trkpt lat="44.78718" lon="7.00512">
        <ele>2531.96600064</ele>
        <time>2020-02-16T12:45:59.010Z</time>
      </trkpt>
      <trkpt lat="44.78709" lon="7.00517">
        <ele>2531.56600064</ele>
        <time>2020-02-16T12:46:01.010Z</time>
      </trkpt>
      <trkpt lat="44.78699" lon="7.00524">
        <ele>2530.96600064</ele>
        <time>2020-02-16T12:46:04.010Z</time>
      </trkpt>
      <trkpt lat="44.7869" lon="7.00527">
        <ele>2528.44900096</ele>
        <time>2020-02-16T12:46:14.010Z</time>
      </trkpt>
      <trkpt lat="44.78681" lon="7.00528">
        <ele>2529.75099904</ele>
        <time>2020-02-16T12:46:28.010Z</time>
      </trkpt>
      <trkpt lat="44.78672" lon="7.00524">
        <ele>2528.4227805405</ele>
        <time>2020-02-16T12:47:07.010Z</time>
      </trkpt>
      <trkpt lat="44.78668" lon="7.00512">
        <ele>2530.06799872</ele>
        <time>2020-02-16T12:47:39.010Z</time>
      </trkpt>
      <trkpt lat="44.78666" lon="7.005">
        <ele>2536</ele>
        <time>2020-02-16T12:48:00.010Z</time>
      </trkpt>
      <trkpt lat="44.78659" lon="7.00491">
        <ele>2536.81699968</ele>
        <time>2020-02-16T12:48:17.010Z</time>
      </trkpt>
      <trkpt lat="44.7865" lon="7.00493">
        <ele>2537</ele>
        <time>2020-02-16T12:48:37.010Z</time>
      </trkpt>
      <trkpt lat="44.78641" lon="7.00492">
        <ele>2539.21699968</ele>
        <time>2020-02-16T12:49:01.010Z</time>
      </trkpt>
      <trkpt lat="44.78644" lon="7.00479">
        <ele>2542</ele>
        <time>2020-02-16T12:49:22.010Z</time>
      </trkpt>
      <trkpt lat="44.78652" lon="7.00473">
        <ele>2543.2304591458</ele>
        <time>2020-02-16T12:49:40.010Z</time>
      </trkpt>
      <trkpt lat="44.78643" lon="7.00467">
        <ele>2545.21699968</ele>
        <time>2020-02-16T12:50:41.010Z</time>
      </trkpt>
      <trkpt lat="44.78647" lon="7.00455">
        <ele>2548.25099904</ele>
        <time>2020-02-16T12:51:23.010Z</time>
      </trkpt>
      <trkpt lat="44.78655" lon="7.00448">
        <ele>2549.5838329205</ele>
        <time>2020-02-16T12:51:43.010Z</time>
      </trkpt>
      <trkpt lat="44.78646" lon="7.00443">
        <ele>2551</ele>
        <time>2020-02-16T12:52:10.010Z</time>
      </trkpt>
      <trkpt lat="44.78637" lon="7.00437">
        <ele>2550.11699968</ele>
        <time>2020-02-16T12:52:40.010Z</time>
      </trkpt>
      <trkpt lat="44.78628" lon="7.00435">
        <ele>2551.63399936</ele>
        <time>2020-02-16T12:52:52.010Z</time>
      </trkpt>
      <trkpt lat="44.78634" lon="7.00424">
        <ele>2555</ele>
        <time>2020-02-16T12:53:26.010Z</time>
      </trkpt>
      <trkpt lat="44.78626" lon="7.00417">
        <ele>2554.61699968</ele>
        <time>2020-02-16T12:53:45.010Z</time>
      </trkpt>
      <trkpt lat="44.78617" lon="7.00422">
        <ele>2555.315630503</ele>
        <time>2020-02-16T12:54:02.010Z</time>
      </trkpt>
      <trkpt lat="44.78624" lon="7.00412">
        <ele>2556</ele>
        <time>2020-02-16T12:54:32.010Z</time>
      </trkpt>
      <trkpt lat="44.78622" lon="7.00426">
        <ele>2554.18300032</ele>
        <time>2020-02-16T12:57:07.010Z</time>
      </trkpt>
      <trkpt lat="44.78616" lon="7.00436">
        <ele>2559.0319348299</ele>
        <time>2020-02-16T12:58:04.010Z</time>
      </trkpt>
      <trkpt lat="44.78626" lon="7.00434">
        <ele>2553.18</ele>
        <time>2020-02-16T13:03:57.040Z</time>
      </trkpt>
      <trkpt lat="44.78633" lon="7.00425">
        <ele>2554</ele>
        <time>2020-02-16T13:04:27.010Z</time>
      </trkpt>
      <trkpt lat="44.78628" lon="7.00436">
        <ele>2554.51699968</ele>
        <time>2020-02-16T13:05:14.010Z</time>
      </trkpt>
      <trkpt lat="44.78628" lon="7.00423">
        <ele>2554.58300032</ele>
        <time>2020-02-16T13:06:23.010Z</time>
      </trkpt>
      <trkpt lat="44.78626" lon="7.00436">
        <ele>2554</ele>
        <time>2020-02-16T13:06:45.010Z</time>
      </trkpt>
      <trkpt lat="44.78623" lon="7.00448">
        <ele>2556.0010337949</ele>
        <time>2020-02-16T13:09:24.010Z</time>
      </trkpt>
      <trkpt lat="44.78627" lon="7.00434">
        <ele>2556.78300032</ele>
        <time>2020-02-16T13:09:41.010Z</time>
      </trkpt>
      <trkpt lat="44.78627" lon="7.00447">
        <ele>2557.91699968</ele>
        <time>2020-02-16T13:11:58.010Z</time>
      </trkpt>
      <trkpt lat="44.78629" lon="7.00435">
        <ele>2561</ele>
        <time>2020-02-16T13:15:08.010Z</time>
      </trkpt>
      <trkpt lat="44.78628" lon="7.00447">
        <ele>2561.96600064</ele>
        <time>2020-02-16T13:15:19.010Z</time>
      </trkpt>
      <trkpt lat="44.78629" lon="7.00434">
        <ele>2559.76600064</ele>
        <time>2020-02-16T13:16:00.010Z</time>
      </trkpt>
      <trkpt lat="44.78633" lon="7.00423">
        <ele>2558</ele>
        <time>2020-02-16T13:16:23.010Z</time>
      </trkpt>
      <trkpt lat="44.78629" lon="7.00434">
        <ele>2559.8161837574</ele>
        <time>2020-02-16T13:20:47.010Z</time>
      </trkpt>
      <trkpt lat="44.78629" lon="7.00421">
        <ele>2556.23399936</ele>
        <time>2020-02-16T13:22:10.010Z</time>
      </trkpt>
      <trkpt lat="44.78621" lon="7.00429">
        <ele>2559</ele>
        <time>2020-02-16T13:22:48.010Z</time>
      </trkpt>
      <trkpt lat="44.78614" lon="7.0042">
        <ele>2558</ele>
        <time>2020-02-16T13:23:38.010Z</time>
      </trkpt>
      <trkpt lat="44.78606" lon="7.0043">
        <ele>2561.3059052254</ele>
        <time>2020-02-16T13:25:06.010Z</time>
      </trkpt>
      <trkpt lat="44.78596" lon="7.00416">
        <ele>2556.3588353725</ele>
        <time>2020-02-16T13:25:11.040Z</time>
      </trkpt>
      <trkpt lat="44.7859" lon="7.00404">
        <ele>2548.9875944612</ele>
        <time>2020-02-16T13:25:14.010Z</time>
      </trkpt>
      <trkpt lat="44.7858" lon="7.00405">
        <ele>2541.5418885487</ele>
        <time>2020-02-16T13:25:17.010Z</time>
      </trkpt>
      <trkpt lat="44.7857" lon="7.00401">
        <ele>2535.47900416</ele>
        <time>2020-02-16T13:25:20.010Z</time>
      </trkpt>
      <trkpt lat="44.78562" lon="7.00407">
        <ele>2531.57900416</ele>
        <time>2020-02-16T13:25:23.010Z</time>
      </trkpt>
      <trkpt lat="44.78553" lon="7.00412">
        <ele>2527.67900416</ele>
        <time>2020-02-16T13:25:26.010Z</time>
      </trkpt>
      <trkpt lat="44.78544" lon="7.00407">
        <ele>2521.6623433086</ele>
        <time>2020-02-16T13:25:30.010Z</time>
      </trkpt>
      <trkpt lat="44.78535" lon="7.00399">
        <ele>2513.6703327617</ele>
        <time>2020-02-16T13:25:34.010Z</time>
      </trkpt>
      <trkpt lat="44.78526" lon="7.00392">
        <ele>2507.6763248516</ele>
        <time>2020-02-16T13:25:37.010Z</time>
      </trkpt>
      <trkpt lat="44.78517" lon="7.00383">
        <ele>2502.7227231319</ele>
        <time>2020-02-16T13:25:40.010Z</time>
      </trkpt>
      <trkpt lat="44.78506" lon="7.00384">
        <ele>2498.3183201383</ele>
        <time>2020-02-16T13:25:44.010Z</time>
      </trkpt>
      <trkpt lat="44.78497" lon="7.00378">
        <ele>2493.9139171447</ele>
        <time>2020-02-16T13:25:48.010Z</time>
      </trkpt>
      <trkpt lat="44.7849" lon="7.00368">
        <ele>2488.2450048</ele>
        <time>2020-02-16T13:25:52.010Z</time>
      </trkpt>
      <trkpt lat="44.78481" lon="7.00375">
        <ele>2479.2450048</ele>
        <time>2020-02-16T13:25:58.010Z</time>
      </trkpt>
      <trkpt lat="44.78473" lon="7.00383">
        <ele>2475.61300352</ele>
        <time>2020-02-16T13:26:01.010Z</time>
      </trkpt>
      <trkpt lat="44.78465" lon="7.00374">
        <ele>2469.01300352</ele>
        <time>2020-02-16T13:26:07.010Z</time>
      </trkpt>
      <trkpt lat="44.78463" lon="7.00358">
        <ele>2465.2450048</ele>
        <time>2020-02-16T13:26:10.010Z</time>
      </trkpt>
      <trkpt lat="44.78456" lon="7.00347">
        <ele>2459.2450048</ele>
        <time>2020-02-16T13:26:14.010Z</time>
      </trkpt>
      <trkpt lat="44.78445" lon="7.00345">
        <ele>2453.2450048</ele>
        <time>2020-02-16T13:26:18.010Z</time>
      </trkpt>
      <trkpt lat="44.78435" lon="7.00343">
        <ele>2449.78100224</ele>
        <time>2020-02-16T13:26:22.010Z</time>
      </trkpt>
      <trkpt lat="44.7843" lon="7.0033">
        <ele>2445.41699968</ele>
        <time>2020-02-16T13:27:13.010Z</time>
      </trkpt>
      <trkpt lat="44.78423" lon="7.00318">
        <ele>2445.71699968</ele>
        <time>2020-02-16T13:27:16.010Z</time>
      </trkpt>
      <trkpt lat="44.78414" lon="7.00306">
        <ele>2445.558449729</ele>
        <time>2020-02-16T13:27:19.010Z</time>
      </trkpt>
      <trkpt lat="44.78406" lon="7.00296">
        <ele>2437.7662394458</ele>
        <time>2020-02-16T13:27:22.010Z</time>
      </trkpt>
      <trkpt lat="44.78402" lon="7.00282">
        <ele>2427.3766257348</ele>
        <time>2020-02-16T13:27:26.010Z</time>
      </trkpt>
      <trkpt lat="44.78395" lon="7.00272">
        <ele>2418.2582588162</ele>
        <time>2020-02-16T13:27:30.010Z</time>
      </trkpt>
      <trkpt lat="44.78389" lon="7.0026">
        <ele>2413.7537557546</ele>
        <time>2020-02-16T13:27:33.010Z</time>
      </trkpt>
      <trkpt lat="44.78387" lon="7.00246">
        <ele>2407.7477516724</ele>
        <time>2020-02-16T13:27:37.010Z</time>
      </trkpt>
      <trkpt lat="44.78385" lon="7.0023">
        <ele>2401.51300352</ele>
        <time>2020-02-16T13:27:42.010Z</time>
      </trkpt>
      <trkpt lat="44.78386" lon="7.00216">
        <ele>2397.11300352</ele>
        <time>2020-02-16T13:27:46.010Z</time>
      </trkpt>
      <trkpt lat="44.78379" lon="7.00205">
        <ele>2391.17900416</ele>
        <time>2020-02-16T13:27:51.010Z</time>
      </trkpt>
      <trkpt lat="44.78366" lon="7.00206">
        <ele>2385.97900416</ele>
        <time>2020-02-16T13:27:55.010Z</time>
      </trkpt>
      <trkpt lat="44.78356" lon="7.00206">
        <ele>2382.07900416</ele>
        <time>2020-02-16T13:27:58.010Z</time>
      </trkpt>
      <trkpt lat="44.78346" lon="7.00201">
        <ele>2380.4150016</ele>
        <time>2020-02-16T13:28:00.010Z</time>
      </trkpt>
      <trkpt lat="44.78335" lon="7.00197">
        <ele>2378.9150016</ele>
        <time>2020-02-16T13:28:03.010Z</time>
      </trkpt>
      <trkpt lat="44.78325" lon="7.00199">
        <ele>2376.41699968</ele>
        <time>2020-02-16T13:29:03.010Z</time>
      </trkpt>
      <trkpt lat="44.78315" lon="7.00191">
        <ele>2376.81699968</ele>
        <time>2020-02-16T13:29:07.010Z</time>
      </trkpt>
      <trkpt lat="44.78306" lon="7.00183">
        <ele>2373.72400896</ele>
        <time>2020-02-16T13:29:10.010Z</time>
      </trkpt>
      <trkpt lat="44.78301" lon="7.00169">
        <ele>2365.32400896</ele>
        <time>2020-02-16T13:29:13.010Z</time>
      </trkpt>
      <trkpt lat="44.78295" lon="7.00159">
        <ele>2351.32400896</ele>
        <time>2020-02-16T13:29:18.010Z</time>
      </trkpt>
      <trkpt lat="44.78289" lon="7.00149">
        <ele>2342.6600064</ele>
        <time>2020-02-16T13:29:22.010Z</time>
      </trkpt>
      <trkpt lat="44.78283" lon="7.00138">
        <ele>2334.6600064</ele>
        <time>2020-02-16T13:29:26.010Z</time>
      </trkpt>
      <trkpt lat="44.78285" lon="7.00124">
        <ele>2327.8300032</ele>
        <time>2020-02-16T13:29:30.010Z</time>
      </trkpt>
      <trkpt lat="44.78277" lon="7.00113">
        <ele>2324.8300032</ele>
        <time>2020-02-16T13:29:33.010Z</time>
      </trkpt>
      <trkpt lat="44.78274" lon="7.00099">
        <ele>2321.8300032</ele>
        <time>2020-02-16T13:29:36.010Z</time>
      </trkpt>
      <trkpt lat="44.78274" lon="7.00084">
        <ele>2318.76200448</ele>
        <time>2020-02-16T13:29:39.010Z</time>
      </trkpt>
      <trkpt lat="44.78272" lon="7.00071">
        <ele>2314.56200448</ele>
        <time>2020-02-16T13:29:42.010Z</time>
      </trkpt>
      <trkpt lat="44.78265" lon="7.0006">
        <ele>2310.36200448</ele>
        <time>2020-02-16T13:29:45.010Z</time>
      </trkpt>
      <trkpt lat="44.7826" lon="7.0005">
        <ele>2307.56200448</ele>
        <time>2020-02-16T13:29:47.010Z</time>
      </trkpt>
      <trkpt lat="44.78255" lon="7.00034">
        <ele>2303.59600384</ele>
        <time>2020-02-16T13:29:50.010Z</time>
      </trkpt>
      <trkpt lat="44.78248" lon="7.00018">
        <ele>2299.99600384</ele>
        <time>2020-02-16T13:29:53.010Z</time>
      </trkpt>
      <trkpt lat="44.78244" lon="7.00006">
        <ele>2297.59600384</ele>
        <time>2020-02-16T13:29:55.010Z</time>
      </trkpt>
      <trkpt lat="44.78237" lon="6.99993">
        <ele>2293.99600384</ele>
        <time>2020-02-16T13:29:58.010Z</time>
      </trkpt>
      <trkpt lat="44.78229" lon="6.99979">
        <ele>2290.8300032</ele>
        <time>2020-02-16T13:30:01.010Z</time>
      </trkpt>
      <trkpt lat="44.78223" lon="6.99968">
        <ele>2288.8300032</ele>
        <time>2020-02-16T13:30:03.010Z</time>
      </trkpt>
      <trkpt lat="44.78217" lon="6.99954">
        <ele>2286.8300032</ele>
        <time>2020-02-16T13:30:05.010Z</time>
      </trkpt>
      <trkpt lat="44.78212" lon="6.99938">
        <ele>2284.8300032</ele>
        <time>2020-02-16T13:30:07.010Z</time>
      </trkpt>
      <trkpt lat="44.78209" lon="6.99924">
        <ele>2283</ele>
        <time>2020-02-16T13:30:09.010Z</time>
      </trkpt>
      <trkpt lat="44.78205" lon="6.99909">
        <ele>2283</ele>
        <time>2020-02-16T13:30:12.010Z</time>
      </trkpt>
      <trkpt lat="44.78206" lon="6.99895">
        <ele>2282.78300032</ele>
        <time>2020-02-16T13:30:21.010Z</time>
      </trkpt>
      <trkpt lat="44.78201" lon="6.99882">
        <ele>2282.58300032</ele>
        <time>2020-02-16T13:30:23.010Z</time>
      </trkpt>
      <trkpt lat="44.78194" lon="6.99872">
        <ele>2282.38300032</ele>
        <time>2020-02-16T13:30:25.010Z</time>
      </trkpt>
      <trkpt lat="44.78189" lon="6.9986">
        <ele>2282.08300032</ele>
        <time>2020-02-16T13:30:28.010Z</time>
      </trkpt>
      <trkpt lat="44.78182" lon="6.99851">
        <ele>2279.89400576</ele>
        <time>2020-02-16T13:30:30.010Z</time>
      </trkpt>
      <trkpt lat="44.78172" lon="6.99844">
        <ele>2276.29400576</ele>
        <time>2020-02-16T13:30:32.010Z</time>
      </trkpt>
      <trkpt lat="44.78161" lon="6.99837">
        <ele>2272.69400576</ele>
        <time>2020-02-16T13:30:34.010Z</time>
      </trkpt>
      <trkpt lat="44.78152" lon="6.99831">
        <ele>2269.09400576</ele>
        <time>2020-02-16T13:30:36.010Z</time>
      </trkpt>
      <trkpt lat="44.78142" lon="6.99824">
        <ele>2263.98300032</ele>
        <time>2020-02-16T13:30:39.010Z</time>
      </trkpt>
      <trkpt lat="44.78133" lon="6.99814">
        <ele>2263.58300032</ele>
        <time>2020-02-16T13:30:43.010Z</time>
      </trkpt>
      <trkpt lat="44.78129" lon="6.99801">
        <ele>2263</ele>
        <time>2020-02-16T13:30:49.010Z</time>
      </trkpt>
      <trkpt lat="44.78125" lon="6.99787">
        <ele>2263</ele>
        <time>2020-02-16T13:30:53.010Z</time>
      </trkpt>
      <trkpt lat="44.78122" lon="6.99775">
        <ele>2263</ele>
        <time>2020-02-16T13:30:58.010Z</time>
      </trkpt>
      <trkpt lat="44.78122" lon="6.99761">
        <ele>2262.16600064</ele>
        <time>2020-02-16T13:31:03.010Z</time>
      </trkpt>
      <trkpt lat="44.78126" lon="6.99748">
        <ele>2260.56600064</ele>
        <time>2020-02-16T13:31:11.010Z</time>
      </trkpt>
      <trkpt lat="44.78128" lon="6.99733">
        <ele>2259.76600064</ele>
        <time>2020-02-16T13:31:15.010Z</time>
      </trkpt>
      <trkpt lat="44.78124" lon="6.99717">
        <ele>2259.16600064</ele>
        <time>2020-02-16T13:31:18.010Z</time>
      </trkpt>
      <trkpt lat="44.78115" lon="6.99709">
        <ele>2258.1934247159</ele>
        <time>2020-02-16T13:31:23.010Z</time>
      </trkpt>
      <trkpt lat="44.78108" lon="6.997">
        <ele>2257.0328838481</ele>
        <time>2020-02-16T13:31:29.010Z</time>
      </trkpt>
      <trkpt lat="44.78099" lon="6.99697">
        <ele>2258.8281565735</ele>
        <time>2020-02-16T13:31:38.010Z</time>
      </trkpt>
      <trkpt lat="44.7809" lon="6.99693">
        <ele>2259</ele>
        <time>2020-02-16T13:31:46.010Z</time>
      </trkpt>
      <trkpt lat="44.78081" lon="6.99689">
        <ele>2257.3692631574</ele>
        <time>2020-02-16T13:31:57.010Z</time>
      </trkpt>
      <trkpt lat="44.78075" lon="6.99678">
        <ele>2259.9830342623</ele>
        <time>2020-02-16T13:32:09.010Z</time>
      </trkpt>
      <trkpt lat="44.78071" lon="6.99666">
        <ele>2260.51699968</ele>
        <time>2020-02-16T13:32:34.010Z</time>
      </trkpt>
      <trkpt lat="44.78072" lon="6.99654">
        <ele>2260.78300032</ele>
        <time>2020-02-16T13:32:51.010Z</time>
      </trkpt>
      <trkpt lat="44.7807" lon="6.9964">
        <ele>2259.48300032</ele>
        <time>2020-02-16T13:33:04.010Z</time>
      </trkpt>
      <trkpt lat="44.78068" lon="6.99626">
        <ele>2259.08300032</ele>
        <time>2020-02-16T13:33:08.010Z</time>
      </trkpt>
      <trkpt lat="44.78065" lon="6.99614">
        <ele>2256.8300032</ele>
        <time>2020-02-16T13:33:11.010Z</time>
      </trkpt>
      <trkpt lat="44.78058" lon="6.99605">
        <ele>2253.8300032</ele>
        <time>2020-02-16T13:33:14.010Z</time>
      </trkpt>
      <trkpt lat="44.78051" lon="6.99597">
        <ele>2250.8300032</ele>
        <time>2020-02-16T13:33:17.010Z</time>
      </trkpt>
      <trkpt lat="44.78041" lon="6.99597">
        <ele>2241.8300032</ele>
        <time>2020-02-16T13:33:26.010Z</time>
      </trkpt>
      <trkpt lat="44.78041" lon="6.99584">
        <ele>2234.69800192</ele>
        <time>2020-02-16T13:33:36.010Z</time>
      </trkpt>
      <trkpt lat="44.78044" lon="6.99571">
        <ele>2229.7450048</ele>
        <time>2020-02-16T13:33:41.010Z</time>
      </trkpt>
      <trkpt lat="44.78049" lon="6.99559">
        <ele>2225.2450048</ele>
        <time>2020-02-16T13:33:44.010Z</time>
      </trkpt>
      <trkpt lat="44.78054" lon="6.99543">
        <ele>2220.7450048</ele>
        <time>2020-02-16T13:33:47.010Z</time>
      </trkpt>
      <trkpt lat="44.78057" lon="6.99529">
        <ele>2216.47900416</ele>
        <time>2020-02-16T13:33:50.010Z</time>
      </trkpt>
      <trkpt lat="44.78056" lon="6.99516">
        <ele>2211.27900416</ele>
        <time>2020-02-16T13:33:54.010Z</time>
      </trkpt>
      <trkpt lat="44.7805" lon="6.99503">
        <ele>2206.07900416</ele>
        <time>2020-02-16T13:33:58.010Z</time>
      </trkpt>
      <trkpt lat="44.78042" lon="6.9949">
        <ele>2199.92800512</ele>
        <time>2020-02-16T13:34:02.010Z</time>
      </trkpt>
      <trkpt lat="44.78037" lon="6.99475">
        <ele>2193.52800512</ele>
        <time>2020-02-16T13:34:06.010Z</time>
      </trkpt>
      <trkpt lat="44.7803" lon="6.99466">
        <ele>2185.19600384</ele>
        <time>2020-02-16T13:34:12.010Z</time>
      </trkpt>
      <trkpt lat="44.7802" lon="6.99468">
        <ele>2179.19600384</ele>
        <time>2020-02-16T13:34:17.010Z</time>
      </trkpt>
      <trkpt lat="44.78021" lon="6.99454">
        <ele>2176.06400256</ele>
        <time>2020-02-16T13:34:20.010Z</time>
      </trkpt>
      <trkpt lat="44.78022" lon="6.99437">
        <ele>2174.46400256</ele>
        <time>2020-02-16T13:34:22.010Z</time>
      </trkpt>
      <trkpt lat="44.78021" lon="6.99418">
        <ele>2172.86400256</ele>
        <time>2020-02-16T13:34:24.010Z</time>
      </trkpt>
      <trkpt lat="44.78017" lon="6.99405">
        <ele>2171.26400256</ele>
        <time>2020-02-16T13:34:26.010Z</time>
      </trkpt>
      <trkpt lat="44.78011" lon="6.99392">
        <ele>2168.9177965693</ele>
        <time>2020-02-16T13:34:29.010Z</time>
      </trkpt>
      <trkpt lat="44.78001" lon="6.9938">
        <ele>2167.4671204846</ele>
        <time>2020-02-16T13:34:32.010Z</time>
      </trkpt>
      <trkpt lat="44.77995" lon="6.99371">
        <ele>2166.5000030948</ele>
        <time>2020-02-16T13:34:34.010Z</time>
      </trkpt>
      <trkpt lat="44.77988" lon="6.99362">
        <ele>2165.532885705</ele>
        <time>2020-02-16T13:34:36.010Z</time>
      </trkpt>
      <trkpt lat="44.7798" lon="6.99352">
        <ele>2164.5657683152</ele>
        <time>2020-02-16T13:34:38.010Z</time>
      </trkpt>
      <trkpt lat="44.77971" lon="6.99339">
        <ele>2163.8074539511</ele>
        <time>2020-02-16T13:34:41.040Z</time>
      </trkpt>
      <trkpt lat="44.77961" lon="6.99331">
        <ele>2163.3964809252</ele>
        <time>2020-02-16T13:34:45.010Z</time>
      </trkpt>
      <trkpt lat="44.77951" lon="6.99332">
        <ele>2162.68300032</ele>
        <time>2020-02-16T13:34:52.010Z</time>
      </trkpt>
      <trkpt lat="44.7796" lon="6.99328">
        <ele>2161</ele>
        <time>2020-02-16T13:36:22.010Z</time>
      </trkpt>
      <trkpt lat="44.77956" lon="6.99339">
        <ele>2162</ele>
        <time>2020-02-16T13:37:16.010Z</time>
      </trkpt>
      <trkpt lat="44.77958" lon="6.99326">
        <ele>2169.420289471</ele>
        <time>2020-02-16T13:41:06.040Z</time>
      </trkpt>
      <trkpt lat="44.77956" lon="6.99339">
        <ele>2175.41699968</ele>
        <time>2020-02-16T13:43:13.010Z</time>
      </trkpt>
      <trkpt lat="44.77957" lon="6.99325">
        <ele>2176</ele>
        <time>2020-02-16T13:44:55.010Z</time>
      </trkpt>
      <trkpt lat="44.77963" lon="6.99316">
        <ele>2177</ele>
        <time>2020-02-16T13:45:19.010Z</time>
      </trkpt>
      <trkpt lat="44.77972" lon="6.99313">
        <ele>2179.1467042576</ele>
        <time>2020-02-16T13:45:36.010Z</time>
      </trkpt>
      <trkpt lat="44.77981" lon="6.99315">
        <ele>2182.4485512723</ele>
        <time>2020-02-16T13:45:57.010Z</time>
      </trkpt>
      <trkpt lat="44.77988" lon="6.99307">
        <ele>2187.1168828346</ele>
        <time>2020-02-16T13:46:30.010Z</time>
      </trkpt>
      <trkpt lat="44.77989" lon="6.99294">
        <ele>2192.01699968</ele>
        <time>2020-02-16T13:46:49.010Z</time>
      </trkpt>
      <trkpt lat="44.77994" lon="6.99283">
        <ele>2194.23399936</ele>
        <time>2020-02-16T13:47:05.010Z</time>
      </trkpt>
      <trkpt lat="44.78001" lon="6.99274">
        <ele>2197.8117884387</ele>
        <time>2020-02-16T13:47:25.010Z</time>
      </trkpt>
      <trkpt lat="44.78009" lon="6.99266">
        <ele>2199.91699968</ele>
        <time>2020-02-16T13:47:38.010Z</time>
      </trkpt>
      <trkpt lat="44.78016" lon="6.99258">
        <ele>2200.9151687568</ele>
        <time>2020-02-16T13:47:48.010Z</time>
      </trkpt>
      <trkpt lat="44.78024" lon="6.9925">
        <ele>2202.01699968</ele>
        <time>2020-02-16T13:47:59.010Z</time>
      </trkpt>
      <trkpt lat="44.78033" lon="6.99245">
        <ele>2203.01699968</ele>
        <time>2020-02-16T13:48:09.010Z</time>
      </trkpt>
      <trkpt lat="44.78039" lon="6.99235">
        <ele>2205.0329667238</ele>
        <time>2020-02-16T13:48:24.010Z</time>
      </trkpt>
      <trkpt lat="44.78042" lon="6.99223">
        <ele>2206.83399936</ele>
        <time>2020-02-16T13:48:53.010Z</time>
      </trkpt>
      <trkpt lat="44.78051" lon="6.99224">
        <ele>2210.7455062703</ele>
        <time>2020-02-16T13:49:08.010Z</time>
      </trkpt>
      <trkpt lat="44.78059" lon="6.99215">
        <ele>2211.4335659328</ele>
        <time>2020-02-16T13:49:21.010Z</time>
      </trkpt>
      <trkpt lat="44.78066" lon="6.99207">
        <ele>2214</ele>
        <time>2020-02-16T13:49:40.010Z</time>
      </trkpt>
      <trkpt lat="44.78075" lon="6.99199">
        <ele>2215.8486956945</ele>
        <time>2020-02-16T13:49:55.010Z</time>
      </trkpt>
      <trkpt lat="44.78084" lon="6.99197">
        <ele>2219.43399936</ele>
        <time>2020-02-16T13:50:16.010Z</time>
      </trkpt>
      <trkpt lat="44.78093" lon="6.992">
        <ele>2224</ele>
        <time>2020-02-16T13:50:40.010Z</time>
      </trkpt>
      <trkpt lat="44.78101" lon="6.99191">
        <ele>2224.8331664602</ele>
        <time>2020-02-16T13:50:53.010Z</time>
      </trkpt>
      <trkpt lat="44.78109" lon="6.99184">
        <ele>2226.6166164191</ele>
        <time>2020-02-16T13:51:05.010Z</time>
      </trkpt>
      <trkpt lat="44.78117" lon="6.99178">
        <ele>2227</ele>
        <time>2020-02-16T13:51:17.010Z</time>
      </trkpt>
      <trkpt lat="44.78124" lon="6.99169">
        <ele>2228.83399936</ele>
        <time>2020-02-16T13:51:28.010Z</time>
      </trkpt>
      <trkpt lat="44.7813" lon="6.99158">
        <ele>2230.05099904</ele>
        <time>2020-02-16T13:51:39.010Z</time>
      </trkpt>
      <trkpt lat="44.78134" lon="6.99147">
        <ele>2234.0329667238</ele>
        <time>2020-02-16T13:51:54.010Z</time>
      </trkpt>
      <trkpt lat="44.7814" lon="6.99136">
        <ele>2237.15099904</ele>
        <time>2020-02-16T13:52:16.010Z</time>
      </trkpt>
      <trkpt lat="44.78146" lon="6.99127">
        <ele>2238.91699968</ele>
        <time>2020-02-16T13:52:28.010Z</time>
      </trkpt>
      <trkpt lat="44.78152" lon="6.99117">
        <ele>2241.06799872</ele>
        <time>2020-02-16T13:52:44.010Z</time>
      </trkpt>
      <trkpt lat="44.78157" lon="6.99128">
        <ele>2246.6287414747</ele>
        <time>2020-02-16T13:53:07.010Z</time>
      </trkpt>
      <trkpt lat="44.78159" lon="6.99141">
        <ele>2247.11699968</ele>
        <time>2020-02-16T13:53:20.010Z</time>
      </trkpt>
      <trkpt lat="44.78169" lon="6.99142">
        <ele>2249.3855061997</ele>
        <time>2020-02-16T13:53:36.010Z</time>
      </trkpt>
      <trkpt lat="44.78178" lon="6.99138">
        <ele>2253.4158309681</ele>
        <time>2020-02-16T13:54:13.010Z</time>
      </trkpt>
      <trkpt lat="44.78183" lon="6.99127">
        <ele>2258.948948645</ele>
        <time>2020-02-16T13:54:52.010Z</time>
      </trkpt>
      <trkpt lat="44.78191" lon="6.99119">
        <ele>2261.8161837574</ele>
        <time>2020-02-16T13:55:07.010Z</time>
      </trkpt>
      <trkpt lat="44.78199" lon="6.99113">
        <ele>2263.8491504813</ele>
        <time>2020-02-16T13:55:25.010Z</time>
      </trkpt>
      <trkpt lat="44.78206" lon="6.99106">
        <ele>2265</ele>
        <time>2020-02-16T13:55:38.010Z</time>
      </trkpt>
      <trkpt lat="44.78215" lon="6.99099">
        <ele>2270.21699968</ele>
        <time>2020-02-16T13:55:51.010Z</time>
      </trkpt>
      <trkpt lat="44.78223" lon="6.99094">
        <ele>2271.7162836256</ele>
        <time>2020-02-16T13:56:06.010Z</time>
      </trkpt>
      <trkpt lat="44.78231" lon="6.99086">
        <ele>2274.2497496902</ele>
        <time>2020-02-16T13:56:23.010Z</time>
      </trkpt>
      <trkpt lat="44.7824" lon="6.99091">
        <ele>2280</ele>
        <time>2020-02-16T13:56:51.980Z</time>
      </trkpt>
      <trkpt lat="44.78245" lon="6.99102">
        <ele>2280.9168332934</ele>
        <time>2020-02-16T13:57:08.010Z</time>
      </trkpt>
      <trkpt lat="44.78248" lon="6.99114">
        <ele>2284.6633238723</ele>
        <time>2020-02-16T13:57:23.010Z</time>
      </trkpt>
      <trkpt lat="44.78255" lon="6.99124">
        <ele>2287</ele>
        <time>2020-02-16T13:57:37.040Z</time>
      </trkpt>
      <trkpt lat="44.78263" lon="6.99118">
        <ele>2290</ele>
        <time>2020-02-16T13:57:51.010Z</time>
      </trkpt>
      <trkpt lat="44.78268" lon="6.99107">
        <ele>2290.631261006</ele>
        <time>2020-02-16T13:58:02.010Z</time>
      </trkpt>
      <trkpt lat="44.78272" lon="6.99095">
        <ele>2292</ele>
        <time>2020-02-16T13:58:18.010Z</time>
      </trkpt>
      <trkpt lat="44.78271" lon="6.99081">
        <ele>2296.4324322939</ele>
        <time>2020-02-16T13:58:31.010Z</time>
      </trkpt>
      <trkpt lat="44.78273" lon="6.99068">
        <ele>2298.41699968</ele>
        <time>2020-02-16T13:58:43.010Z</time>
      </trkpt>
      <trkpt lat="44.78279" lon="6.99059">
        <ele>2300.6307368426</ele>
        <time>2020-02-16T13:58:57.010Z</time>
      </trkpt>
      <trkpt lat="44.78284" lon="6.99048">
        <ele>2304.01699968</ele>
        <time>2020-02-16T13:59:09.010Z</time>
      </trkpt>
      <trkpt lat="44.78291" lon="6.99039">
        <ele>2305</ele>
        <time>2020-02-16T13:59:21.010Z</time>
      </trkpt>
      <trkpt lat="44.78295" lon="6.99027">
        <ele>2305.61699968</ele>
        <time>2020-02-16T13:59:35.010Z</time>
      </trkpt>
      <trkpt lat="44.78301" lon="6.99017">
        <ele>2309.1131524251</ele>
        <time>2020-02-16T13:59:50.010Z</time>
      </trkpt>
      <trkpt lat="44.78306" lon="6.99006">
        <ele>2311.2070381496</ele>
        <time>2020-02-16T14:00:05.010Z</time>
      </trkpt>
      <trkpt lat="44.78311" lon="6.98995">
        <ele>2312.91699968</ele>
        <time>2020-02-16T14:00:18.010Z</time>
      </trkpt>
      <trkpt lat="44.78314" lon="6.98983">
        <ele>2317</ele>
        <time>2020-02-16T14:00:34.010Z</time>
      </trkpt>
      <trkpt lat="44.78315" lon="6.98969">
        <ele>2317</ele>
        <time>2020-02-16T14:00:46.010Z</time>
      </trkpt>
      <trkpt lat="44.78316" lon="6.98957">
        <ele>2320.21699968</ele>
        <time>2020-02-16T14:01:01.010Z</time>
      </trkpt>
      <trkpt lat="44.78316" lon="6.98944">
        <ele>2323.75099904</ele>
        <time>2020-02-16T14:01:18.010Z</time>
      </trkpt>
      <trkpt lat="44.78316" lon="6.98931">
        <ele>2326.03399936</ele>
        <time>2020-02-16T14:01:34.010Z</time>
      </trkpt>
      <trkpt lat="44.78318" lon="6.98918">
        <ele>2329.1501494614</ele>
        <time>2020-02-16T14:01:56.010Z</time>
      </trkpt>
      <trkpt lat="44.78322" lon="6.98907">
        <ele>2332.21699968</ele>
        <time>2020-02-16T14:02:11.010Z</time>
      </trkpt>
      <trkpt lat="44.78328" lon="6.98916">
        <ele>2334.6166164191</ele>
        <time>2020-02-16T14:02:35.010Z</time>
      </trkpt>
      <trkpt lat="44.78336" lon="6.9891">
        <ele>2339.3065759031</ele>
        <time>2020-02-16T14:03:02.010Z</time>
      </trkpt>
      <trkpt lat="44.78344" lon="6.98902">
        <ele>2343.81699968</ele>
        <time>2020-02-16T14:03:37.010Z</time>
      </trkpt>
      <trkpt lat="44.78346" lon="6.9889">
        <ele>2345.43399936</ele>
        <time>2020-02-16T14:03:51.010Z</time>
      </trkpt>
      <trkpt lat="44.78353" lon="6.9888">
        <ele>2347.83399936</ele>
        <time>2020-02-16T14:04:03.010Z</time>
      </trkpt>
      <trkpt lat="44.78359" lon="6.98871">
        <ele>2349.8161837574</ele>
        <time>2020-02-16T14:04:17.010Z</time>
      </trkpt>
      <trkpt lat="44.78367" lon="6.98878">
        <ele>2354.81699968</ele>
        <time>2020-02-16T14:04:37.010Z</time>
      </trkpt>
      <trkpt lat="44.78371" lon="6.98867">
        <ele>2357.4675313383</ele>
        <time>2020-02-16T14:05:10.010Z</time>
      </trkpt>
      <trkpt lat="44.78375" lon="6.98854">
        <ele>2362.8338332464</ele>
        <time>2020-02-16T14:05:28.010Z</time>
      </trkpt>
      <trkpt lat="44.7838" lon="6.98842">
        <ele>2363.21699968</ele>
        <time>2020-02-16T14:05:41.010Z</time>
      </trkpt>
      <trkpt lat="44.78383" lon="6.9883">
        <ele>2365.03399936</ele>
        <time>2020-02-16T14:05:54.010Z</time>
      </trkpt>
      <trkpt lat="44.78387" lon="6.98819">
        <ele>2366.71699968</ele>
        <time>2020-02-16T14:06:06.010Z</time>
      </trkpt>
      <trkpt lat="44.7839" lon="6.98806">
        <ele>2367.6927530998</ele>
        <time>2020-02-16T14:06:16.010Z</time>
      </trkpt>
      <trkpt lat="44.78392" lon="6.98793">
        <ele>2368</ele>
        <time>2020-02-16T14:06:25.010Z</time>
      </trkpt>
      <trkpt lat="44.78394" lon="6.98781">
        <ele>2368.61699968</ele>
        <time>2020-02-16T14:06:35.010Z</time>
      </trkpt>
      <trkpt lat="44.78401" lon="6.9877">
        <ele>2369.61699968</ele>
        <time>2020-02-16T14:06:45.010Z</time>
      </trkpt>
      <trkpt lat="44.78409" lon="6.98764">
        <ele>2367.08300032</ele>
        <time>2020-02-16T14:07:28.010Z</time>
      </trkpt>
      <trkpt lat="44.78412" lon="6.98751">
        <ele>2367.8153684213</ele>
        <time>2020-02-16T14:07:37.010Z</time>
      </trkpt>
      <trkpt lat="44.78416" lon="6.98739">
        <ele>2367.2835676368</ele>
        <time>2020-02-16T14:07:46.010Z</time>
      </trkpt>
      <trkpt lat="44.78422" lon="6.98729">
        <ele>2367</ele>
        <time>2020-02-16T14:07:55.010Z</time>
      </trkpt>
      <trkpt lat="44.78427" lon="6.98718">
        <ele>2367.51699968</ele>
        <time>2020-02-16T14:08:04.010Z</time>
      </trkpt>
      <trkpt lat="44.78432" lon="6.98707">
        <ele>2368</ele>
        <time>2020-02-16T14:08:14.010Z</time>
      </trkpt>
      <trkpt lat="44.78433" lon="6.98693">
        <ele>2368.832334159</ele>
        <time>2020-02-16T14:08:23.010Z</time>
      </trkpt>
      <trkpt lat="44.78434" lon="6.98679">
        <ele>2370</ele>
        <time>2020-02-16T14:08:33.010Z</time>
      </trkpt>
      <trkpt lat="44.78435" lon="6.98665">
        <ele>2370.51699968</ele>
        <time>2020-02-16T14:08:44.010Z</time>
      </trkpt>
      <trkpt lat="44.78437" lon="6.98651">
        <ele>2371.61699968</ele>
        <time>2020-02-16T14:08:55.010Z</time>
      </trkpt>
      <trkpt lat="44.78438" lon="6.98639">
        <ele>2371.48300032</ele>
        <time>2020-02-16T14:09:04.010Z</time>
      </trkpt>
      <trkpt lat="44.78438" lon="6.98625">
        <ele>2371.41699968</ele>
        <time>2020-02-16T14:09:13.010Z</time>
      </trkpt>
      <trkpt lat="44.78429" lon="6.98623">
        <ele>2371.81699968</ele>
        <time>2020-02-16T14:12:27.010Z</time>
      </trkpt>
      <trkpt lat="44.78438" lon="6.9862">
        <ele>2374</ele>
        <time>2020-02-16T14:13:26.010Z</time>
      </trkpt>
      <trkpt lat="44.78447" lon="6.98614">
        <ele>2374.9168332934</ele>
        <time>2020-02-16T14:13:38.010Z</time>
      </trkpt>
      <trkpt lat="44.78451" lon="6.98627">
        <ele>2375.63399936</ele>
        <time>2020-02-16T14:13:52.010Z</time>
      </trkpt>
      <trkpt lat="44.78454" lon="6.98639">
        <ele>2379.1445646598</ele>
        <time>2020-02-16T14:14:06.010Z</time>
      </trkpt>
      <trkpt lat="44.78459" lon="6.98651">
        <ele>2381.21699968</ele>
        <time>2020-02-16T14:14:21.010Z</time>
      </trkpt>
      <trkpt lat="44.78464" lon="6.9866">
        <ele>2383.43399936</ele>
        <time>2020-02-16T14:14:36.010Z</time>
      </trkpt>
      <trkpt lat="44.78472" lon="6.9867">
        <ele>2387</ele>
        <time>2020-02-16T14:14:51.010Z</time>
      </trkpt>
      <trkpt lat="44.7848" lon="6.98675">
        <ele>2387</ele>
        <time>2020-02-16T14:15:06.010Z</time>
      </trkpt>
      <trkpt lat="44.78484" lon="6.98688">
        <ele>2390</ele>
        <time>2020-02-16T14:15:26.010Z</time>
      </trkpt>
      <trkpt lat="44.78491" lon="6.98697">
        <ele>2392.113262068</ele>
        <time>2020-02-16T14:15:40.010Z</time>
      </trkpt>
      <trkpt lat="44.785" lon="6.98701">
        <ele>2394.4146841234</ele>
        <time>2020-02-16T14:15:56.010Z</time>
      </trkpt>
      <trkpt lat="44.78508" lon="6.98695">
        <ele>2396.3160514246</ele>
        <time>2020-02-16T14:16:12.010Z</time>
      </trkpt>
      <trkpt lat="44.78514" lon="6.98684">
        <ele>2397.8164489682</ele>
        <time>2020-02-16T14:16:27.010Z</time>
      </trkpt>
      <trkpt lat="44.78521" lon="6.98675">
        <ele>2401</ele>
        <time>2020-02-16T14:16:43.010Z</time>
      </trkpt>
      <trkpt lat="44.7853" lon="6.9867">
        <ele>2405.0768421066</ele>
        <time>2020-02-16T14:16:57.010Z</time>
      </trkpt>
      <trkpt lat="44.78538" lon="6.98662">
        <ele>2404.8654022364</ele>
        <time>2020-02-16T14:17:11.010Z</time>
      </trkpt>
      <trkpt lat="44.78543" lon="6.98651">
        <ele>2408</ele>
        <time>2020-02-16T14:17:25.010Z</time>
      </trkpt>
      <trkpt lat="44.7855" lon="6.98659">
        <ele>2408.91699968</ele>
        <time>2020-02-16T14:17:48.010Z</time>
      </trkpt>
      <trkpt lat="44.78553" lon="6.98671">
        <ele>2412.81699968</ele>
        <time>2020-02-16T14:18:07.010Z</time>
      </trkpt>
      <trkpt lat="44.78561" lon="6.98664">
        <ele>2417.0641257325</ele>
        <time>2020-02-16T14:18:44.010Z</time>
      </trkpt>
      <trkpt lat="44.78569" lon="6.98657">
        <ele>2420.1917095765</ele>
        <time>2020-02-16T14:19:01.040Z</time>
      </trkpt>
      <trkpt lat="44.78571" lon="6.9867">
        <ele>2425.0300582157</ele>
        <time>2020-02-16T14:19:29.010Z</time>
      </trkpt>
      <trkpt lat="44.78579" lon="6.98663">
        <ele>2428.3499490808</ele>
        <time>2020-02-16T14:20:00.010Z</time>
      </trkpt>
      <trkpt lat="44.78587" lon="6.98658">
        <ele>2431</ele>
        <time>2020-02-16T14:20:15.010Z</time>
      </trkpt>
      <trkpt lat="44.78594" lon="6.98648">
        <ele>2434.6533851793</ele>
        <time>2020-02-16T14:20:28.010Z</time>
      </trkpt>
      <trkpt lat="44.78599" lon="6.98638">
        <ele>2435.4165832301</ele>
        <time>2020-02-16T14:20:43.010Z</time>
      </trkpt>
      <trkpt lat="44.78603" lon="6.9865">
        <ele>2440</ele>
        <time>2020-02-16T14:21:21.010Z</time>
      </trkpt>
      <trkpt lat="44.78611" lon="6.98654">
        <ele>2442</ele>
        <time>2020-02-16T14:21:43.010Z</time>
      </trkpt>
      <trkpt lat="44.7862" lon="6.9865">
        <ele>2442.9206189105</ele>
        <time>2020-02-16T14:22:02.010Z</time>
      </trkpt>
      <trkpt lat="44.78628" lon="6.98644">
        <ele>2445.58300032</ele>
        <time>2020-02-16T14:22:23.010Z</time>
      </trkpt>
      <trkpt lat="44.7863" lon="6.98631">
        <ele>2444.9167499031</ele>
        <time>2020-02-16T14:22:58.010Z</time>
      </trkpt>
      <trkpt lat="44.78638" lon="6.98624">
        <ele>2445.91699968</ele>
        <time>2020-02-16T14:23:08.010Z</time>
      </trkpt>
      <trkpt lat="44.78647" lon="6.98619">
        <ele>2443</ele>
        <time>2020-02-16T14:23:20.010Z</time>
      </trkpt>
      <trkpt lat="44.78652" lon="6.98609">
        <ele>2442.36600064</ele>
        <time>2020-02-16T14:23:32.010Z</time>
      </trkpt>
      <trkpt lat="44.7866" lon="6.98602">
        <ele>2441</ele>
        <time>2020-02-16T14:23:45.010Z</time>
      </trkpt>
      <trkpt lat="44.78667" lon="6.98594">
        <ele>2441.81699968</ele>
        <time>2020-02-16T14:23:57.010Z</time>
      </trkpt>
      <trkpt lat="44.78673" lon="6.98582">
        <ele>2442</ele>
        <time>2020-02-16T14:24:09.010Z</time>
      </trkpt>
      <trkpt lat="44.7868" lon="6.98574">
        <ele>2442</ele>
        <time>2020-02-16T14:24:24.010Z</time>
      </trkpt>
      <trkpt lat="44.78689" lon="6.98569">
        <ele>2444</ele>
        <time>2020-02-16T14:24:41.010Z</time>
      </trkpt>
      <trkpt lat="44.78697" lon="6.98564">
        <ele>2444.91699968</ele>
        <time>2020-02-16T14:24:58.010Z</time>
      </trkpt>
      <trkpt lat="44.78706" lon="6.98561">
        <ele>2446.2100675191</ele>
        <time>2020-02-16T14:25:11.010Z</time>
      </trkpt>
      <trkpt lat="44.78715" lon="6.98558">
        <ele>2447</ele>
        <time>2020-02-16T14:25:24.010Z</time>
      </trkpt>
      <trkpt lat="44.78725" lon="6.98558">
        <ele>2447.81699968</ele>
        <time>2020-02-16T14:25:37.010Z</time>
      </trkpt>
      <trkpt lat="44.78734" lon="6.98557">
        <ele>2449.0150291078</ele>
        <time>2020-02-16T14:25:49.010Z</time>
      </trkpt>
      <trkpt lat="44.78743" lon="6.98557">
        <ele>2450</ele>
        <time>2020-02-16T14:26:06.010Z</time>
      </trkpt>
      <trkpt lat="44.78752" lon="6.98559">
        <ele>2452.4573696954</ele>
        <time>2020-02-16T14:26:30.010Z</time>
      </trkpt>
      <trkpt lat="44.78753" lon="6.98572">
        <ele>2458.014041489</ele>
        <time>2020-02-16T14:26:49.010Z</time>
      </trkpt>
      <trkpt lat="44.78759" lon="6.98581">
        <ele>2461.11699968</ele>
        <time>2020-02-16T14:27:20.010Z</time>
      </trkpt>
      <trkpt lat="44.78766" lon="6.98589">
        <ele>2467</ele>
        <time>2020-02-16T14:27:51.010Z</time>
      </trkpt>
      <trkpt lat="44.78775" lon="6.98584">
        <ele>2467</ele>
        <time>2020-02-16T14:28:02.010Z</time>
      </trkpt>
      <trkpt lat="44.78779" lon="6.98596">
        <ele>2475</ele>
        <time>2020-02-16T14:28:54.010Z</time>
      </trkpt>
      <trkpt lat="44.78788" lon="6.98602">
        <ele>2476.6158470984</ele>
        <time>2020-02-16T14:29:15.010Z</time>
      </trkpt>
      <trkpt lat="44.78797" lon="6.98601">
        <ele>2477.03399936</ele>
        <time>2020-02-16T14:29:29.010Z</time>
      </trkpt>
      <trkpt lat="44.78806" lon="6.98599">
        <ele>2479.31699968</ele>
        <time>2020-02-16T14:29:42.010Z</time>
      </trkpt>
      <trkpt lat="44.78815" lon="6.98596">
        <ele>2481.6274894024</ele>
        <time>2020-02-16T14:29:57.010Z</time>
      </trkpt>
      <trkpt lat="44.78823" lon="6.9859">
        <ele>2485.4327011182</ele>
        <time>2020-02-16T14:30:11.010Z</time>
      </trkpt>
      <trkpt lat="44.78832" lon="6.98585">
        <ele>2487.01699968</ele>
        <time>2020-02-16T14:30:29.010Z</time>
      </trkpt>
      <trkpt lat="44.7884" lon="6.98593">
        <ele>2488.81699968</ele>
        <time>2020-02-16T14:30:47.010Z</time>
      </trkpt>
      <trkpt lat="44.78844" lon="6.98605">
        <ele>2490.946891509</ele>
        <time>2020-02-16T14:31:02.010Z</time>
      </trkpt>
      <trkpt lat="44.78852" lon="6.98608">
        <ele>2496.0809187871</ele>
        <time>2020-02-16T14:31:27.010Z</time>
      </trkpt>
      <trkpt lat="44.78862" lon="6.98602">
        <ele>2496.8066181405</ele>
        <time>2020-02-16T14:31:41.040Z</time>
      </trkpt>
      <trkpt lat="44.7887" lon="6.98597">
        <ele>2496</ele>
        <time>2020-02-16T14:31:52.010Z</time>
      </trkpt>
      <trkpt lat="44.78879" lon="6.98595">
        <ele>2498.8651345023</ele>
        <time>2020-02-16T14:32:06.010Z</time>
      </trkpt>
      <trkpt lat="44.78888" lon="6.9859">
        <ele>2501.3160514246</ele>
        <time>2020-02-16T14:32:22.010Z</time>
      </trkpt>
      <trkpt lat="44.78894" lon="6.9858">
        <ele>2502.7161480333</ele>
        <time>2020-02-16T14:32:36.010Z</time>
      </trkpt>
      <trkpt lat="44.78902" lon="6.98572">
        <ele>2503.91699968</ele>
        <time>2020-02-16T14:32:48.010Z</time>
      </trkpt>
      <trkpt lat="44.7891" lon="6.98566">
        <ele>2505</ele>
        <time>2020-02-16T14:33:01.010Z</time>
      </trkpt>
      <trkpt lat="44.78918" lon="6.98558">
        <ele>2505</ele>
        <time>2020-02-16T14:33:15.010Z</time>
      </trkpt>
      <trkpt lat="44.78925" lon="6.9855">
        <ele>2505.91699968</ele>
        <time>2020-02-16T14:33:28.010Z</time>
      </trkpt>
      <trkpt lat="44.78932" lon="6.9854">
        <ele>2510</ele>
        <time>2020-02-16T14:33:49.010Z</time>
      </trkpt>
      <trkpt lat="44.78938" lon="6.98531">
        <ele>2510.6151540211</ele>
        <time>2020-02-16T14:34:05.010Z</time>
      </trkpt>
      <trkpt lat="44.78941" lon="6.98519">
        <ele>2514</ele>
        <time>2020-02-16T14:34:43.010Z</time>
      </trkpt>
      <trkpt lat="44.78946" lon="6.98508">
        <ele>2515</ele>
        <time>2020-02-16T14:35:02.010Z</time>
      </trkpt>
      <trkpt lat="44.78948" lon="6.98521">
        <ele>2512.315630503</ele>
        <time>2020-02-16T14:36:02.010Z</time>
      </trkpt>
      <trkpt lat="44.78949" lon="6.98535">
        <ele>2513</ele>
        <time>2020-02-16T14:36:11.010Z</time>
      </trkpt>
      <trkpt lat="44.78953" lon="6.98548">
        <ele>2513</ele>
        <time>2020-02-16T14:36:21.010Z</time>
      </trkpt>
      <trkpt lat="44.78956" lon="6.98561">
        <ele>2513</ele>
        <time>2020-02-16T14:36:32.010Z</time>
      </trkpt>
      <trkpt lat="44.78958" lon="6.98574">
        <ele>2514</ele>
        <time>2020-02-16T14:36:55.010Z</time>
      </trkpt>
      <trkpt lat="44.7896" lon="6.98587">
        <ele>2514</ele>
        <time>2020-02-16T14:37:05.010Z</time>
      </trkpt>
      <trkpt lat="44.78962" lon="6.98601">
        <ele>2515</ele>
        <time>2020-02-16T14:37:20.010Z</time>
      </trkpt>
      <trkpt lat="44.78961" lon="6.98614">
        <ele>2515</ele>
        <time>2020-02-16T14:37:33.010Z</time>
      </trkpt>
      <trkpt lat="44.78958" lon="6.98627">
        <ele>2515.71699968</ele>
        <time>2020-02-16T14:37:46.010Z</time>
      </trkpt>
      <trkpt lat="44.78957" lon="6.98639">
        <ele>2516</ele>
        <time>2020-02-16T14:38:05.010Z</time>
      </trkpt>
      <trkpt lat="44.78948" lon="6.98633">
        <ele>2515.0817353769</ele>
        <time>2020-02-16T14:38:38.040Z</time>
      </trkpt>
      <trkpt lat="44.78939" lon="6.98632">
        <ele>2515.41699968</ele>
        <time>2020-02-16T14:39:03.010Z</time>
      </trkpt>
      <trkpt lat="44.78946" lon="6.98625">
        <ele>2516</ele>
        <time>2020-02-16T14:40:01.010Z</time>
      </trkpt>
      <trkpt lat="44.78955" lon="6.98626">
        <ele>2517</ele>
        <time>2020-02-16T14:41:08.010Z</time>
      </trkpt>
      <trkpt lat="44.78946" lon="6.98632">
        <ele>2517</ele>
        <time>2020-02-16T14:42:23.010Z</time>
      </trkpt>
      <trkpt lat="44.78957" lon="6.98633">
        <ele>2519</ele>
        <time>2020-02-16T14:46:15.740Z</time>
      </trkpt>
      <trkpt lat="44.78948" lon="6.98628">
        <ele>2519</ele>
        <time>2020-02-16T14:47:44.010Z</time>
      </trkpt>
      <trkpt lat="44.78952" lon="6.98639">
        <ele>2517</ele>
        <time>2020-02-16T14:48:39.010Z</time>
      </trkpt>
      <trkpt lat="44.78952" lon="6.98654">
        <ele>2517</ele>
        <time>2020-02-16T14:48:48.010Z</time>
      </trkpt>
      <trkpt lat="44.78955" lon="6.98671">
        <ele>2514.9150016</ele>
        <time>2020-02-16T14:48:53.010Z</time>
      </trkpt>
      <trkpt lat="44.7896" lon="6.98682">
        <ele>2513.4150016</ele>
        <time>2020-02-16T14:48:56.010Z</time>
      </trkpt>
      <trkpt lat="44.7897" lon="6.9868">
        <ele>2512.4150016</ele>
        <time>2020-02-16T14:48:58.010Z</time>
      </trkpt>
      <trkpt lat="44.78981" lon="6.98676">
        <ele>2510.01100544</ele>
        <time>2020-02-16T14:49:00.010Z</time>
      </trkpt>
      <trkpt lat="44.78991" lon="6.9867">
        <ele>2506.61100544</ele>
        <time>2020-02-16T14:49:02.010Z</time>
      </trkpt>
      <trkpt lat="44.79001" lon="6.98665">
        <ele>2503.21100544</ele>
        <time>2020-02-16T14:49:04.010Z</time>
      </trkpt>
      <trkpt lat="44.79009" lon="6.98659">
        <ele>2499.81100544</ele>
        <time>2020-02-16T14:49:06.010Z</time>
      </trkpt>
      <trkpt lat="44.79017" lon="6.98652">
        <ele>2496.41100544</ele>
        <time>2020-02-16T14:49:08.010Z</time>
      </trkpt>
      <trkpt lat="44.79025" lon="6.98645">
        <ele>2494.4150016</ele>
        <time>2020-02-16T14:49:10.010Z</time>
      </trkpt>
      <trkpt lat="44.79035" lon="6.98633">
        <ele>2492.9150016</ele>
        <time>2020-02-16T14:49:13.010Z</time>
      </trkpt>
      <trkpt lat="44.79039" lon="6.98621">
        <ele>2490.4150016</ele>
        <time>2020-02-16T14:49:18.010Z</time>
      </trkpt>
      <trkpt lat="44.79037" lon="6.98606">
        <ele>2489.8797671373</ele>
        <time>2020-02-16T14:50:09.010Z</time>
      </trkpt>
      <trkpt lat="44.79046" lon="6.98591">
        <ele>2487.4749559759</ele>
        <time>2020-02-16T14:50:12.010Z</time>
      </trkpt>
      <trkpt lat="44.79052" lon="6.98579">
        <ele>2485.871748535</ele>
        <time>2020-02-16T14:50:14.010Z</time>
      </trkpt>
      <trkpt lat="44.79057" lon="6.98568">
        <ele>2484.268541094</ele>
        <time>2020-02-16T14:50:16.010Z</time>
      </trkpt>
      <trkpt lat="44.79062" lon="6.98555">
        <ele>2482.6653336531</ele>
        <time>2020-02-16T14:50:18.010Z</time>
      </trkpt>
      <trkpt lat="44.79067" lon="6.98543">
        <ele>2478.853594263</ele>
        <time>2020-02-16T14:50:20.010Z</time>
      </trkpt>
      <trkpt lat="44.79071" lon="6.98529">
        <ele>2473.4751082072</ele>
        <time>2020-02-16T14:50:22.010Z</time>
      </trkpt>
      <trkpt lat="44.79075" lon="6.98515">
        <ele>2468.0966221514</ele>
        <time>2020-02-16T14:50:24.010Z</time>
      </trkpt>
      <trkpt lat="44.79082" lon="6.98501">
        <ele>2462.7181360956</ele>
        <time>2020-02-16T14:50:26.010Z</time>
      </trkpt>
      <trkpt lat="44.79087" lon="6.98485">
        <ele>2457.3396500398</ele>
        <time>2020-02-16T14:50:28.010Z</time>
      </trkpt>
      <trkpt lat="44.79092" lon="6.9847">
        <ele>2453.0252495377</ele>
        <time>2020-02-16T14:50:30.010Z</time>
      </trkpt>
      <trkpt lat="44.79099" lon="6.98455">
        <ele>2449.5301060784</ele>
        <time>2020-02-16T14:50:32.010Z</time>
      </trkpt>
      <trkpt lat="44.79107" lon="6.98442">
        <ele>2446.0349626191</ele>
        <time>2020-02-16T14:50:34.010Z</time>
      </trkpt>
      <trkpt lat="44.79117" lon="6.98431">
        <ele>2442.5398191597</ele>
        <time>2020-02-16T14:50:36.010Z</time>
      </trkpt>
      <trkpt lat="44.79128" lon="6.98423">
        <ele>2439.0446757004</ele>
        <time>2020-02-16T14:50:38.010Z</time>
      </trkpt>
      <trkpt lat="44.79144" lon="6.9841">
        <ele>2434.1118092666</ele>
        <time>2020-02-16T14:50:41.040Z</time>
      </trkpt>
      <trkpt lat="44.79155" lon="6.98405">
        <ele>2431.0528059977</ele>
        <time>2020-02-16T14:50:43.010Z</time>
      </trkpt>
      <trkpt lat="44.79167" lon="6.98402">
        <ele>2427.9472138781</ele>
        <time>2020-02-16T14:50:45.010Z</time>
      </trkpt>
      <trkpt lat="44.79177" lon="6.98399">
        <ele>2424.8416217584</ele>
        <time>2020-02-16T14:50:47.010Z</time>
      </trkpt>
      <trkpt lat="44.79186" lon="6.98396">
        <ele>2421.79600384</ele>
        <time>2020-02-16T14:50:49.010Z</time>
      </trkpt>
      <trkpt lat="44.79196" lon="6.98389">
        <ele>2419.39600384</ele>
        <time>2020-02-16T14:50:51.010Z</time>
      </trkpt>
      <trkpt lat="44.79208" lon="6.98387">
        <ele>2415.79600384</ele>
        <time>2020-02-16T14:50:54.010Z</time>
      </trkpt>
      <trkpt lat="44.79214" lon="6.98377">
        <ele>2408.16600064</ele>
        <time>2020-02-16T14:51:08.010Z</time>
      </trkpt>
      <trkpt lat="44.79221" lon="6.98385">
        <ele>2403.426724809</ele>
        <time>2020-02-16T14:51:13.010Z</time>
      </trkpt>
      <trkpt lat="44.79233" lon="6.98378">
        <ele>2400.1365962476</ele>
        <time>2020-02-16T14:51:16.010Z</time>
      </trkpt>
      <trkpt lat="44.7924" lon="6.98369">
        <ele>2397.9431772066</ele>
        <time>2020-02-16T14:51:18.010Z</time>
      </trkpt>
      <trkpt lat="44.79249" lon="6.98357">
        <ele>2395.1705212182</ele>
        <time>2020-02-16T14:51:20.010Z</time>
      </trkpt>
      <trkpt lat="44.79255" lon="6.98346">
        <ele>2391.9608913014</ele>
        <time>2020-02-16T14:51:22.010Z</time>
      </trkpt>
      <trkpt lat="44.79267" lon="6.98344">
        <ele>2387.1464464261</ele>
        <time>2020-02-16T14:51:25.010Z</time>
      </trkpt>
      <trkpt lat="44.7928" lon="6.98336">
        <ele>2382.3320015509</ele>
        <time>2020-02-16T14:51:28.010Z</time>
      </trkpt>
      <trkpt lat="44.79285" lon="6.98325">
        <ele>2379.71300352</ele>
        <time>2020-02-16T14:51:30.010Z</time>
      </trkpt>
      <trkpt lat="44.79291" lon="6.98316">
        <ele>2377.51300352</ele>
        <time>2020-02-16T14:51:32.010Z</time>
      </trkpt>
      <trkpt lat="44.79299" lon="6.98304">
        <ele>2374.21300352</ele>
        <time>2020-02-16T14:51:35.010Z</time>
      </trkpt>
      <trkpt lat="44.79297" lon="6.98291">
        <ele>2370</ele>
        <time>2020-02-16T14:52:09.010Z</time>
      </trkpt>
      <trkpt lat="44.79295" lon="6.98278">
        <ele>2369</ele>
        <time>2020-02-16T14:52:56.010Z</time>
      </trkpt>
      <trkpt lat="44.79297" lon="6.98265">
        <ele>2369</ele>
        <time>2020-02-16T14:52:58.010Z</time>
      </trkpt>
      <trkpt lat="44.793" lon="6.98248">
        <ele>2367.04700288</ele>
        <time>2020-02-16T14:53:01.010Z</time>
      </trkpt>
      <trkpt lat="44.79302" lon="6.98231">
        <ele>2364.34700288</ele>
        <time>2020-02-16T14:53:04.010Z</time>
      </trkpt>
      <trkpt lat="44.79303" lon="6.98217">
        <ele>2361.64700288</ele>
        <time>2020-02-16T14:53:07.010Z</time>
      </trkpt>
      <trkpt lat="44.79303" lon="6.98204">
        <ele>2359.06400256</ele>
        <time>2020-02-16T14:53:10.010Z</time>
      </trkpt>
      <trkpt lat="44.79303" lon="6.98188">
        <ele>2356.66400256</ele>
        <time>2020-02-16T14:53:13.010Z</time>
      </trkpt>
      <trkpt lat="44.79313" lon="6.98186">
        <ele>2355.06400256</ele>
        <time>2020-02-16T14:53:15.010Z</time>
      </trkpt>
      <trkpt lat="44.79325" lon="6.98184">
        <ele>2353.46400256</ele>
        <time>2020-02-16T14:53:17.010Z</time>
      </trkpt>
      <trkpt lat="44.79334" lon="6.98189">
        <ele>2349.075008</ele>
        <time>2020-02-16T14:53:20.010Z</time>
      </trkpt>
      <trkpt lat="44.79345" lon="6.98187">
        <ele>2341.575008</ele>
        <time>2020-02-16T14:53:23.010Z</time>
      </trkpt>
      <trkpt lat="44.79355" lon="6.98188">
        <ele>2336.575008</ele>
        <time>2020-02-16T14:53:25.010Z</time>
      </trkpt>
      <trkpt lat="44.79365" lon="6.98193">
        <ele>2329.075008</ele>
        <time>2020-02-16T14:53:28.010Z</time>
      </trkpt>
      <trkpt lat="44.79374" lon="6.98199">
        <ele>2323.8300032</ele>
        <time>2020-02-16T14:53:32.010Z</time>
      </trkpt>
      <trkpt lat="44.79384" lon="6.98194">
        <ele>2318.8300032</ele>
        <time>2020-02-16T14:53:37.010Z</time>
      </trkpt>
      <trkpt lat="44.79395" lon="6.98195">
        <ele>2315.3027136231</ele>
        <time>2020-02-16T14:53:40.010Z</time>
      </trkpt>
      <trkpt lat="44.79403" lon="6.98188">
        <ele>2312.4013614537</ele>
        <time>2020-02-16T14:53:42.010Z</time>
      </trkpt>
      <trkpt lat="44.79415" lon="6.98184">
        <ele>2308.0493331996</ele>
        <time>2020-02-16T14:53:45.010Z</time>
      </trkpt>
      <trkpt lat="44.79424" lon="6.98179">
        <ele>2305.1479810303</ele>
        <time>2020-02-16T14:53:47.010Z</time>
      </trkpt>
      <trkpt lat="44.79435" lon="6.9817">
        <ele>2302.2466288609</ele>
        <time>2020-02-16T14:53:49.010Z</time>
      </trkpt>
      <trkpt lat="44.79448" lon="6.98161">
        <ele>2298.7267171688</ele>
        <time>2020-02-16T14:53:51.040Z</time>
      </trkpt>
      <trkpt lat="44.79464" lon="6.98159">
        <ele>2295.2598467974</ele>
        <time>2020-02-16T14:53:53.010Z</time>
      </trkpt>
      <trkpt lat="44.79478" lon="6.98158">
        <ele>2291.7401757285</ele>
        <time>2020-02-16T14:53:55.010Z</time>
      </trkpt>
      <trkpt lat="44.79489" lon="6.9815">
        <ele>2288.2205046595</ele>
        <time>2020-02-16T14:53:57.010Z</time>
      </trkpt>
      <trkpt lat="44.79497" lon="6.98144">
        <ele>2284.93200128</ele>
        <time>2020-02-16T14:53:59.010Z</time>
      </trkpt>
      <trkpt lat="44.79503" lon="6.98132">
        <ele>2283.73200128</ele>
        <time>2020-02-16T14:54:02.010Z</time>
      </trkpt>
      <trkpt lat="44.79505" lon="6.98118">
        <ele>2281.73200128</ele>
        <time>2020-02-16T14:54:07.010Z</time>
      </trkpt>
      <trkpt lat="44.79515" lon="6.98119">
        <ele>2279.59600384</ele>
        <time>2020-02-16T14:54:10.010Z</time>
      </trkpt>
      <trkpt lat="44.79525" lon="6.98118">
        <ele>2275.99600384</ele>
        <time>2020-02-16T14:54:13.010Z</time>
      </trkpt>
      <trkpt lat="44.79537" lon="6.98118">
        <ele>2272.39600384</ele>
        <time>2020-02-16T14:54:16.010Z</time>
      </trkpt>
      <trkpt lat="44.79546" lon="6.98118">
        <ele>2268.89800192</ele>
        <time>2020-02-16T14:54:19.010Z</time>
      </trkpt>
      <trkpt lat="44.79553" lon="6.9813">
        <ele>2264.69800192</ele>
        <time>2020-02-16T14:54:26.010Z</time>
      </trkpt>
      <trkpt lat="44.79559" lon="6.98141">
        <ele>2262.96600064</ele>
        <time>2020-02-16T14:54:29.010Z</time>
      </trkpt>
      <trkpt lat="44.79563" lon="6.98155">
        <ele>2262.36600064</ele>
        <time>2020-02-16T14:54:32.010Z</time>
      </trkpt>
      <trkpt lat="44.79573" lon="6.9815">
        <ele>2256.8394857541</ele>
        <time>2020-02-16T14:54:52.010Z</time>
      </trkpt>
      <trkpt lat="44.79583" lon="6.98147">
        <ele>2253.8484597891</ele>
        <time>2020-02-16T14:54:55.010Z</time>
      </trkpt>
      <trkpt lat="44.79592" lon="6.98154">
        <ele>2250.8574338242</ele>
        <time>2020-02-16T14:54:58.010Z</time>
      </trkpt>
      <trkpt lat="44.79601" lon="6.98149">
        <ele>2247.6412881066</ele>
        <time>2020-02-16T14:55:01.010Z</time>
      </trkpt>
      <trkpt lat="44.79606" lon="6.98138">
        <ele>2245.4368778754</ele>
        <time>2020-02-16T14:55:03.010Z</time>
      </trkpt>
      <trkpt lat="44.7961" lon="6.98126">
        <ele>2242.1302625284</ele>
        <time>2020-02-16T14:55:06.010Z</time>
      </trkpt>
      <trkpt lat="44.79605" lon="6.98116">
        <ele>2239.31699968</ele>
        <time>2020-02-16T14:55:22.010Z</time>
      </trkpt>
      <trkpt lat="44.79608" lon="6.98103">
        <ele>2239.91699968</ele>
        <time>2020-02-16T14:55:28.010Z</time>
      </trkpt>
      <trkpt lat="44.79618" lon="6.98096">
        <ele>2237.17900416</ele>
        <time>2020-02-16T14:55:31.010Z</time>
      </trkpt>
      <trkpt lat="44.79629" lon="6.98093">
        <ele>2231.97900416</ele>
        <time>2020-02-16T14:55:35.010Z</time>
      </trkpt>
      <trkpt lat="44.7964" lon="6.98084">
        <ele>2228.07900416</ele>
        <time>2020-02-16T14:55:38.010Z</time>
      </trkpt>
      <trkpt lat="44.79649" lon="6.98082">
        <ele>2223.31100544</ele>
        <time>2020-02-16T14:55:41.010Z</time>
      </trkpt>
      <trkpt lat="44.79658" lon="6.98076">
        <ele>2219.91100544</ele>
        <time>2020-02-16T14:55:43.010Z</time>
      </trkpt>
      <trkpt lat="44.79667" lon="6.98066">
        <ele>2214.81100544</ele>
        <time>2020-02-16T14:55:46.010Z</time>
      </trkpt>
      <trkpt lat="44.79672" lon="6.98049">
        <ele>2209.76200448</ele>
        <time>2020-02-16T14:55:49.010Z</time>
      </trkpt>
      <trkpt lat="44.79677" lon="6.98037">
        <ele>2206.96200448</ele>
        <time>2020-02-16T14:55:51.010Z</time>
      </trkpt>
      <trkpt lat="44.79689" lon="6.98029">
        <ele>2204.16200448</ele>
        <time>2020-02-16T14:55:53.010Z</time>
      </trkpt>
      <trkpt lat="44.79699" lon="6.98021">
        <ele>2201.36200448</ele>
        <time>2020-02-16T14:55:55.010Z</time>
      </trkpt>
      <trkpt lat="44.79706" lon="6.9801">
        <ele>2198.56200448</ele>
        <time>2020-02-16T14:55:57.010Z</time>
      </trkpt>
      <trkpt lat="44.79714" lon="6.98">
        <ele>2195.71100544</ele>
        <time>2020-02-16T14:55:59.010Z</time>
      </trkpt>
      <trkpt lat="44.79725" lon="6.97992">
        <ele>2192.31100544</ele>
        <time>2020-02-16T14:56:01.010Z</time>
      </trkpt>
      <trkpt lat="44.79732" lon="6.97985">
        <ele>2188.91100544</ele>
        <time>2020-02-16T14:56:03.010Z</time>
      </trkpt>
      <trkpt lat="44.79739" lon="6.97974">
        <ele>2185.51100544</ele>
        <time>2020-02-16T14:56:05.010Z</time>
      </trkpt>
      <trkpt lat="44.79748" lon="6.97968">
        <ele>2182.11100544</ele>
        <time>2020-02-16T14:56:07.010Z</time>
      </trkpt>
      <trkpt lat="44.79758" lon="6.97958">
        <ele>2178.86400256</ele>
        <time>2020-02-16T14:56:09.010Z</time>
      </trkpt>
      <trkpt lat="44.79764" lon="6.97947">
        <ele>2177.26400256</ele>
        <time>2020-02-16T14:56:11.010Z</time>
      </trkpt>
      <trkpt lat="44.79771" lon="6.97934">
        <ele>2175.66400256</ele>
        <time>2020-02-16T14:56:13.010Z</time>
      </trkpt>
      <trkpt lat="44.79778" lon="6.97921">
        <ele>2174.06400256</ele>
        <time>2020-02-16T14:56:15.010Z</time>
      </trkpt>
      <trkpt lat="44.79784" lon="6.97906">
        <ele>2172.46400256</ele>
        <time>2020-02-16T14:56:17.010Z</time>
      </trkpt>
      <trkpt lat="44.7979" lon="6.97891">
        <ele>2170.84700288</ele>
        <time>2020-02-16T14:56:19.010Z</time>
      </trkpt>
      <trkpt lat="44.79795" lon="6.97874">
        <ele>2169.04700288</ele>
        <time>2020-02-16T14:56:21.010Z</time>
      </trkpt>
      <trkpt lat="44.798" lon="6.97858">
        <ele>2167.24700288</ele>
        <time>2020-02-16T14:56:23.010Z</time>
      </trkpt>
      <trkpt lat="44.79804" lon="6.97842">
        <ele>2165.44700288</ele>
        <time>2020-02-16T14:56:25.010Z</time>
      </trkpt>
      <trkpt lat="44.79807" lon="6.97828">
        <ele>2163.64700288</ele>
        <time>2020-02-16T14:56:27.010Z</time>
      </trkpt>
      <trkpt lat="44.7981" lon="6.97814">
        <ele>2161.96600064</ele>
        <time>2020-02-16T14:56:29.010Z</time>
      </trkpt>
      <trkpt lat="44.79811" lon="6.97801">
        <ele>2161.56600064</ele>
        <time>2020-02-16T14:56:31.010Z</time>
      </trkpt>
      <trkpt lat="44.79813" lon="6.97787">
        <ele>2160.96600064</ele>
        <time>2020-02-16T14:56:34.010Z</time>
      </trkpt>
      <trkpt lat="44.79814" lon="6.97774">
        <ele>2160.16600064</ele>
        <time>2020-02-16T14:56:38.010Z</time>
      </trkpt>
      <trkpt lat="44.79812" lon="6.9776">
        <ele>2160</ele>
        <time>2020-02-16T14:56:46.010Z</time>
      </trkpt>
      <trkpt lat="44.79805" lon="6.97752">
        <ele>2159</ele>
        <time>2020-02-16T14:57:01.980Z</time>
      </trkpt>
      <trkpt lat="44.79797" lon="6.97745">
        <ele>2159.38300032</ele>
        <time>2020-02-16T14:57:35.010Z</time>
      </trkpt>
      <trkpt lat="44.79798" lon="6.97732">
        <ele>2159</ele>
        <time>2020-02-16T14:57:54.010Z</time>
      </trkpt>
      <trkpt lat="44.79807" lon="6.9772">
        <ele>2159</ele>
        <time>2020-02-16T14:57:57.010Z</time>
      </trkpt>
      <trkpt lat="44.79817" lon="6.97712">
        <ele>2158.72800512</ele>
        <time>2020-02-16T14:57:59.010Z</time>
      </trkpt>
      <trkpt lat="44.79827" lon="6.97706">
        <ele>2155.52800512</ele>
        <time>2020-02-16T14:58:01.010Z</time>
      </trkpt>
      <trkpt lat="44.79835" lon="6.97699">
        <ele>2152.32800512</ele>
        <time>2020-02-16T14:58:03.010Z</time>
      </trkpt>
      <trkpt lat="44.79842" lon="6.9769">
        <ele>2149.12800512</ele>
        <time>2020-02-16T14:58:05.010Z</time>
      </trkpt>
      <trkpt lat="44.79844" lon="6.97676">
        <ele>2144.32800512</ele>
        <time>2020-02-16T14:58:08.010Z</time>
      </trkpt>
      <trkpt lat="44.79845" lon="6.97662">
        <ele>2142.34900096</ele>
        <time>2020-02-16T14:58:11.010Z</time>
      </trkpt>
      <trkpt lat="44.7985" lon="6.9765">
        <ele>2141.44900096</ele>
        <time>2020-02-16T14:58:14.010Z</time>
      </trkpt>
      <trkpt lat="44.7986" lon="6.97651">
        <ele>2140.24900096</ele>
        <time>2020-02-16T14:58:18.010Z</time>
      </trkpt>
      <trkpt lat="44.79853" lon="6.97644">
        <ele>2139</ele>
        <time>2020-02-16T14:58:53.010Z</time>
      </trkpt>
      <trkpt lat="44.79842" lon="6.97641">
        <ele>2139.92</ele>
        <time>2020-02-16T14:59:08.040Z</time>
      </trkpt>
      <trkpt lat="44.79835" lon="6.97633">
        <ele>2140</ele>
        <time>2020-02-16T14:59:09.010Z</time>
      </trkpt>
      <trkpt lat="44.79824" lon="6.97626">
        <ele>2138</ele>
        <time>2020-02-16T15:00:21.010Z</time>
      </trkpt>
      <trkpt lat="44.79812" lon="6.97617">
        <ele>2138</ele>
        <time>2020-02-16T15:00:22.010Z</time>
      </trkpt>
      <trkpt lat="44.798" lon="6.97615">
        <ele>2138</ele>
        <time>2020-02-16T15:00:23.010Z</time>
      </trkpt>
      <trkpt lat="44.7979" lon="6.97613">
        <ele>2138</ele>
        <time>2020-02-16T15:00:26.010Z</time>
      </trkpt>
      <trkpt lat="44.79799" lon="6.97604">
        <ele>2138</ele>
        <time>2020-02-16T15:01:18.010Z</time>
      </trkpt>
      <trkpt lat="44.79812" lon="6.97607">
        <ele>2136.26400256</ele>
        <time>2020-02-16T15:01:21.010Z</time>
      </trkpt>
      <trkpt lat="44.79822" lon="6.97612">
        <ele>2134.66400256</ele>
        <time>2020-02-16T15:01:23.010Z</time>
      </trkpt>
      <trkpt lat="44.79832" lon="6.9761">
        <ele>2133.06400256</ele>
        <time>2020-02-16T15:01:25.010Z</time>
      </trkpt>
      <trkpt lat="44.79843" lon="6.97606">
        <ele>2130.66400256</ele>
        <time>2020-02-16T15:01:28.010Z</time>
      </trkpt>
      <trkpt lat="44.79854" lon="6.97599">
        <ele>2126.5383910546</ele>
        <time>2020-02-16T15:01:31.010Z</time>
      </trkpt>
      <trkpt lat="44.79866" lon="6.97591">
        <ele>2121.7527495106</ele>
        <time>2020-02-16T15:01:34.010Z</time>
      </trkpt>
      <trkpt lat="44.79876" lon="6.97594">
        <ele>2118.5623218146</ele>
        <time>2020-02-16T15:01:36.010Z</time>
      </trkpt>
      <trkpt lat="44.79886" lon="6.97591">
        <ele>2115.3718941186</ele>
        <time>2020-02-16T15:01:38.010Z</time>
      </trkpt>
      <trkpt lat="44.79894" lon="6.97585">
        <ele>2112.9709181852</ele>
        <time>2020-02-16T15:01:40.010Z</time>
      </trkpt>
      <trkpt lat="44.79904" lon="6.97576">
        <ele>2110.2627929429</ele>
        <time>2020-02-16T15:01:43.010Z</time>
      </trkpt>
      <trkpt lat="44.79914" lon="6.97571">
        <ele>2107.5546677006</ele>
        <time>2020-02-16T15:01:46.010Z</time>
      </trkpt>
      <trkpt lat="44.79925" lon="6.97571">
        <ele>2104.9320691891</ele>
        <time>2020-02-16T15:01:49.010Z</time>
      </trkpt>
      <trkpt lat="44.79935" lon="6.97576">
        <ele>2103.3336670797</ele>
        <time>2020-02-16T15:01:53.010Z</time>
      </trkpt>
      <trkpt lat="44.79946" lon="6.97571">
        <ele>2101</ele>
        <time>2020-02-16T15:02:00.010Z</time>
      </trkpt>
      <trkpt lat="44.79955" lon="6.97572">
        <ele>2101</ele>
        <time>2020-02-16T15:02:06.010Z</time>
      </trkpt>
      <trkpt lat="44.79953" lon="6.97559">
        <ele>2101</ele>
        <time>2020-02-16T15:02:13.040Z</time>
      </trkpt>
      <trkpt lat="44.79944" lon="6.97554">
        <ele>2101</ele>
        <time>2020-02-16T15:02:16.010Z</time>
      </trkpt>
      <trkpt lat="44.79937" lon="6.97543">
        <ele>2101</ele>
        <time>2020-02-16T15:02:20.060Z</time>
      </trkpt>
      <trkpt lat="44.79939" lon="6.9753">
        <ele>2101</ele>
        <time>2020-02-16T15:02:24.010Z</time>
      </trkpt>
      <trkpt lat="44.79949" lon="6.97523">
        <ele>2101</ele>
        <time>2020-02-16T15:02:28.010Z</time>
      </trkpt>
      <trkpt lat="44.79961" lon="6.97517">
        <ele>2099.26400256</ele>
        <time>2020-02-16T15:02:31.010Z</time>
      </trkpt>
      <trkpt lat="44.79971" lon="6.97512">
        <ele>2097.66400256</ele>
        <time>2020-02-16T15:02:33.010Z</time>
      </trkpt>
      <trkpt lat="44.79982" lon="6.97508">
        <ele>2096.06400256</ele>
        <time>2020-02-16T15:02:35.010Z</time>
      </trkpt>
      <trkpt lat="44.79993" lon="6.97508">
        <ele>2094.46400256</ele>
        <time>2020-02-16T15:02:37.010Z</time>
      </trkpt>
      <trkpt lat="44.80005" lon="6.97508">
        <ele>2092.76200448</ele>
        <time>2020-02-16T15:02:39.010Z</time>
      </trkpt>
      <trkpt lat="44.80015" lon="6.97505">
        <ele>2088.56200448</ele>
        <time>2020-02-16T15:02:42.010Z</time>
      </trkpt>
      <trkpt lat="44.80025" lon="6.97498">
        <ele>2084.36200448</ele>
        <time>2020-02-16T15:02:45.010Z</time>
      </trkpt>
      <trkpt lat="44.80035" lon="6.97491">
        <ele>2081.56200448</ele>
        <time>2020-02-16T15:02:47.010Z</time>
      </trkpt>
      <trkpt lat="44.80045" lon="6.97483">
        <ele>2078.77900416</ele>
        <time>2020-02-16T15:02:49.010Z</time>
      </trkpt>
      <trkpt lat="44.80053" lon="6.97474">
        <ele>2076.17900416</ele>
        <time>2020-02-16T15:02:51.010Z</time>
      </trkpt>
      <trkpt lat="44.80062" lon="6.97464">
        <ele>2073.57900416</ele>
        <time>2020-02-16T15:02:53.010Z</time>
      </trkpt>
      <trkpt lat="44.80068" lon="6.97454">
        <ele>2070.97900416</ele>
        <time>2020-02-16T15:02:55.010Z</time>
      </trkpt>
      <trkpt lat="44.80076" lon="6.97447">
        <ele>2068.37900416</ele>
        <time>2020-02-16T15:02:57.010Z</time>
      </trkpt>
      <trkpt lat="44.80088" lon="6.97444">
        <ele>2065.1328681344</ele>
        <time>2020-02-16T15:03:01.010Z</time>
      </trkpt>
      <trkpt lat="44.80099" lon="6.97448">
        <ele>2063.9340665524</ele>
        <time>2020-02-16T15:03:04.010Z</time>
      </trkpt>
      <trkpt lat="44.80108" lon="6.97468">
        <ele>2062</ele>
        <time>2020-02-16T15:04:28.010Z</time>
      </trkpt>
      <trkpt lat="44.80115" lon="6.97477">
        <ele>2062</ele>
        <time>2020-02-16T15:04:53.010Z</time>
      </trkpt>
      <trkpt lat="44.80124" lon="6.97479">
        <ele>2060</ele>
        <time>2020-02-16T15:05:44.010Z</time>
      </trkpt>
      <trkpt lat="44.80133" lon="6.97473">
        <ele>2060</ele>
        <time>2020-02-16T15:05:48.010Z</time>
      </trkpt>
      <trkpt lat="44.80144" lon="6.97463">
        <ele>2056.5405416487</ele>
        <time>2020-02-16T15:05:51.010Z</time>
      </trkpt>
      <trkpt lat="44.80153" lon="6.9746">
        <ele>2053.3373394715</ele>
        <time>2020-02-16T15:05:53.010Z</time>
      </trkpt>
      <trkpt lat="44.80163" lon="6.97456">
        <ele>2048.5325362058</ele>
        <time>2020-02-16T15:05:56.010Z</time>
      </trkpt>
      <trkpt lat="44.80173" lon="6.97447">
        <ele>2042.36200448</ele>
        <time>2020-02-16T15:06:00.010Z</time>
      </trkpt>
      <trkpt lat="44.80185" lon="6.97442">
        <ele>2038.16200448</ele>
        <time>2020-02-16T15:06:03.010Z</time>
      </trkpt>
      <trkpt lat="44.80195" lon="6.97439">
        <ele>2035.36200448</ele>
        <time>2020-02-16T15:06:05.010Z</time>
      </trkpt>
      <trkpt lat="44.802" lon="6.97451">
        <ele>2028.94700288</ele>
        <time>2020-02-16T15:06:10.010Z</time>
      </trkpt>
      <trkpt lat="44.80201" lon="6.97464">
        <ele>2026.24700288</ele>
        <time>2020-02-16T15:06:13.010Z</time>
      </trkpt>
      <trkpt lat="44.80202" lon="6.97479">
        <ele>2023.54700288</ele>
        <time>2020-02-16T15:06:16.010Z</time>
      </trkpt>
      <trkpt lat="44.80208" lon="6.97491">
        <ele>2017.7768150642</ele>
        <time>2020-02-16T15:06:23.010Z</time>
      </trkpt>
      <trkpt lat="44.80218" lon="6.9749">
        <ele>2013.0849734582</ele>
        <time>2020-02-16T15:06:30.010Z</time>
      </trkpt>
      <trkpt lat="44.80207" lon="6.97478">
        <ele>2013.16</ele>
        <time>2020-02-16T15:06:57.240Z</time>
      </trkpt>
      <trkpt lat="44.802" lon="6.97469">
        <ele>2011.76</ele>
        <time>2020-02-16T15:07:05.040Z</time>
      </trkpt>
      <trkpt lat="44.802" lon="6.97456">
        <ele>2011</ele>
        <time>2020-02-16T15:07:18.010Z</time>
      </trkpt>
      <trkpt lat="44.80209" lon="6.97451">
        <ele>2010.0781634169</ele>
        <time>2020-02-16T15:07:40.010Z</time>
      </trkpt>
      <trkpt lat="44.80218" lon="6.97454">
        <ele>2003.6653336531</ele>
        <time>2020-02-16T15:07:48.010Z</time>
      </trkpt>
      <trkpt lat="44.80225" lon="6.97445">
        <ele>1998.41300352</ele>
        <time>2020-02-16T15:07:53.010Z</time>
      </trkpt>
      <trkpt lat="44.80235" lon="6.97445">
        <ele>1989.6153873696</ele>
        <time>2020-02-16T15:08:01.010Z</time>
      </trkpt>
      <trkpt lat="44.80244" lon="6.9745">
        <ele>1984.1208801186</ele>
        <time>2020-02-16T15:08:06.010Z</time>
      </trkpt>
      <trkpt lat="44.80253" lon="6.97456">
        <ele>1977.6686697358</ele>
        <time>2020-02-16T15:08:13.010Z</time>
      </trkpt>
      <trkpt lat="44.80253" lon="6.97472">
        <ele>1974.4654675586</ele>
        <time>2020-02-16T15:08:17.010Z</time>
      </trkpt>
      <trkpt lat="44.80256" lon="6.97488">
        <ele>1971.26400256</ele>
        <time>2020-02-16T15:08:21.010Z</time>
      </trkpt>
      <trkpt lat="44.80263" lon="6.975">
        <ele>1968.86400256</ele>
        <time>2020-02-16T15:08:24.010Z</time>
      </trkpt>
      <trkpt lat="44.80271" lon="6.97508">
        <ele>1966.46400256</ele>
        <time>2020-02-16T15:08:27.010Z</time>
      </trkpt>
      <trkpt lat="44.80278" lon="6.97516">
        <ele>1964.04900096</ele>
        <time>2020-02-16T15:08:32.010Z</time>
      </trkpt>
      <trkpt lat="44.80286" lon="6.97506">
        <ele>1961.06400256</ele>
        <time>2020-02-16T15:08:40.010Z</time>
      </trkpt>
      <trkpt lat="44.80294" lon="6.97494">
        <ele>1957.86400256</ele>
        <time>2020-02-16T15:08:44.010Z</time>
      </trkpt>
      <trkpt lat="44.80296" lon="6.97481">
        <ele>1955.46400256</ele>
        <time>2020-02-16T15:08:47.010Z</time>
      </trkpt>
      <trkpt lat="44.80297" lon="6.97467">
        <ele>1953.58300032</ele>
        <time>2020-02-16T15:08:53.010Z</time>
      </trkpt>
      <trkpt lat="44.80303" lon="6.97457">
        <ele>1951</ele>
        <time>2020-02-16T15:09:26.010Z</time>
      </trkpt>
      <trkpt lat="44.80312" lon="6.97451">
        <ele>1944.1283805405</ele>
        <time>2020-02-16T15:09:39.010Z</time>
      </trkpt>
      <trkpt lat="44.80321" lon="6.97446">
        <ele>1942.0238605809</ele>
        <time>2020-02-16T15:09:43.010Z</time>
      </trkpt>
      <trkpt lat="44.80328" lon="6.97434">
        <ele>1939.4304995851</ele>
        <time>2020-02-16T15:09:48.010Z</time>
      </trkpt>
      <trkpt lat="44.80331" lon="6.97419">
        <ele>1939</ele>
        <time>2020-02-16T15:09:55.010Z</time>
      </trkpt>
      <trkpt lat="44.80338" lon="6.97405">
        <ele>1937.9150016</ele>
        <time>2020-02-16T15:10:01.010Z</time>
      </trkpt>
      <trkpt lat="44.80344" lon="6.97392">
        <ele>1936.4150016</ele>
        <time>2020-02-16T15:10:04.010Z</time>
      </trkpt>
      <trkpt lat="44.80353" lon="6.97377">
        <ele>1934.9150016</ele>
        <time>2020-02-16T15:10:07.010Z</time>
      </trkpt>
      <trkpt lat="44.80367" lon="6.97361">
        <ele>1933.04</ele>
        <time>2020-02-16T15:10:10.040Z</time>
      </trkpt>
      <trkpt lat="44.8038" lon="6.97338">
        <ele>1932.24</ele>
        <time>2020-02-16T15:10:11.040Z</time>
      </trkpt>
      <trkpt lat="44.80395" lon="6.97328">
        <ele>1931.46400256</ele>
        <time>2020-02-16T15:10:12.010Z</time>
      </trkpt>
      <trkpt lat="44.80396" lon="6.97313">
        <ele>1929.86400256</ele>
        <time>2020-02-16T15:10:14.010Z</time>
      </trkpt>
      <trkpt lat="44.80401" lon="6.97301">
        <ele>1926.66400256</ele>
        <time>2020-02-16T15:10:18.010Z</time>
      </trkpt>
      <trkpt lat="44.80408" lon="6.97289">
        <ele>1923.78100224</ele>
        <time>2020-02-16T15:10:22.010Z</time>
      </trkpt>
      <trkpt lat="44.80417" lon="6.97277">
        <ele>1920.98100224</ele>
        <time>2020-02-16T15:10:26.010Z</time>
      </trkpt>
      <trkpt lat="44.80425" lon="6.97272">
        <ele>1918.89800192</ele>
        <time>2020-02-16T15:10:29.010Z</time>
      </trkpt>
      <trkpt lat="44.80436" lon="6.97269">
        <ele>1917.09800192</ele>
        <time>2020-02-16T15:10:32.010Z</time>
      </trkpt>
      <trkpt lat="44.80449" lon="6.97264">
        <ele>1915.29800192</ele>
        <time>2020-02-16T15:10:35.010Z</time>
      </trkpt>
      <trkpt lat="44.80462" lon="6.97257">
        <ele>1912.76</ele>
        <time>2020-02-16T15:10:40.040Z</time>
      </trkpt>
      <trkpt lat="44.80465" lon="6.97245">
        <ele>1911.56600064</ele>
        <time>2020-02-16T15:10:46.010Z</time>
      </trkpt>
      <trkpt lat="44.80472" lon="6.97234">
        <ele>1909.9150016</ele>
        <time>2020-02-16T15:10:51.010Z</time>
      </trkpt>
      <trkpt lat="44.80481" lon="6.97222">
        <ele>1908.4150016</ele>
        <time>2020-02-16T15:10:54.010Z</time>
      </trkpt>
      <trkpt lat="44.80491" lon="6.97219">
        <ele>1904.26400256</ele>
        <time>2020-02-16T15:11:01.010Z</time>
      </trkpt>
      <trkpt lat="44.805" lon="6.97222">
        <ele>1900.26400256</ele>
        <time>2020-02-16T15:11:06.010Z</time>
      </trkpt>
      <trkpt lat="44.80509" lon="6.97215">
        <ele>1897.13200128</ele>
        <time>2020-02-16T15:11:11.010Z</time>
      </trkpt>
      <trkpt lat="44.8052" lon="6.97212">
        <ele>1894.73200128</ele>
        <time>2020-02-16T15:11:17.010Z</time>
      </trkpt>
      <trkpt lat="44.8053" lon="6.97209">
        <ele>1891.9150016</ele>
        <time>2020-02-16T15:11:23.010Z</time>
      </trkpt>
      <trkpt lat="44.80538" lon="6.97201">
        <ele>1889.4150016</ele>
        <time>2020-02-16T15:11:28.010Z</time>
      </trkpt>
      <trkpt lat="44.80548" lon="6.97193">
        <ele>1886.14700288</ele>
        <time>2020-02-16T15:11:32.010Z</time>
      </trkpt>
      <trkpt lat="44.80558" lon="6.97192">
        <ele>1883.44700288</ele>
        <time>2020-02-16T15:11:35.010Z</time>
      </trkpt>
      <trkpt lat="44.80567" lon="6.97188">
        <ele>1880.74700288</ele>
        <time>2020-02-16T15:11:38.010Z</time>
      </trkpt>
      <trkpt lat="44.80577" lon="6.97182">
        <ele>1878.73200128</ele>
        <time>2020-02-16T15:11:42.010Z</time>
      </trkpt>
      <trkpt lat="44.80586" lon="6.97177">
        <ele>1877.13200128</ele>
        <time>2020-02-16T15:11:46.010Z</time>
      </trkpt>
      <trkpt lat="44.80591" lon="6.97166">
        <ele>1875.34900096</ele>
        <time>2020-02-16T15:11:51.010Z</time>
      </trkpt>
      <trkpt lat="44.80598" lon="6.97154">
        <ele>1874.14900096</ele>
        <time>2020-02-16T15:11:55.010Z</time>
      </trkpt>
      <trkpt lat="44.80606" lon="6.97145">
        <ele>1872.5672988818</ele>
        <time>2020-02-16T15:12:01.010Z</time>
      </trkpt>
      <trkpt lat="44.80614" lon="6.97136">
        <ele>1871.1714867648</ele>
        <time>2020-02-16T15:12:08.010Z</time>
      </trkpt>
      <trkpt lat="44.80624" lon="6.97128">
        <ele>1869.1524587049</ele>
        <time>2020-02-16T15:12:15.010Z</time>
      </trkpt>
      <trkpt lat="44.80633" lon="6.97129">
        <ele>1867.53200128</ele>
        <time>2020-02-16T15:12:20.010Z</time>
      </trkpt>
      <trkpt lat="44.80641" lon="6.9712">
        <ele>1859.69800192</ele>
        <time>2020-02-16T15:12:36.010Z</time>
      </trkpt>
      <trkpt lat="44.8065" lon="6.9712">
        <ele>1856.9496624045</ele>
        <time>2020-02-16T15:12:41.010Z</time>
      </trkpt>
      <trkpt lat="44.80662" lon="6.97117">
        <ele>1854.5295261272</ele>
        <time>2020-02-16T15:12:46.010Z</time>
      </trkpt>
      <trkpt lat="44.80667" lon="6.97106">
        <ele>1852.3050674482</ele>
        <time>2020-02-16T15:12:50.010Z</time>
      </trkpt>
      <trkpt lat="44.80678" lon="6.97102">
        <ele>1848.9958648204</ele>
        <time>2020-02-16T15:12:54.010Z</time>
      </trkpt>
      <trkpt lat="44.80688" lon="6.97099">
        <ele>1844.9150016</ele>
        <time>2020-02-16T15:12:59.010Z</time>
      </trkpt>
      <trkpt lat="44.80697" lon="6.971">
        <ele>1843.4150016</ele>
        <time>2020-02-16T15:13:02.010Z</time>
      </trkpt>
      <trkpt lat="44.80707" lon="6.97101">
        <ele>1840.4150016</ele>
        <time>2020-02-16T15:13:08.010Z</time>
      </trkpt>
      <trkpt lat="44.80718" lon="6.97102">
        <ele>1838.74900096</ele>
        <time>2020-02-16T15:13:13.010Z</time>
      </trkpt>
      <trkpt lat="44.8073" lon="6.97104">
        <ele>1837.24900096</ele>
        <time>2020-02-16T15:13:18.010Z</time>
      </trkpt>
      <trkpt lat="44.8074" lon="6.97106">
        <ele>1834.9212385496</ele>
        <time>2020-02-16T15:13:23.010Z</time>
      </trkpt>
      <trkpt lat="44.80751" lon="6.97104">
        <ele>1832.9272212396</ele>
        <time>2020-02-16T15:13:27.010Z</time>
      </trkpt>
      <trkpt lat="44.8076" lon="6.97097">
        <ele>1830.4252785317</ele>
        <time>2020-02-16T15:13:32.010Z</time>
      </trkpt>
      <trkpt lat="44.8077" lon="6.97092">
        <ele>1828.4192598337</ele>
        <time>2020-02-16T15:13:36.010Z</time>
      </trkpt>
      <trkpt lat="44.80779" lon="6.97087">
        <ele>1826.34900096</ele>
        <time>2020-02-16T15:13:41.010Z</time>
      </trkpt>
      <trkpt lat="44.80789" lon="6.97083">
        <ele>1825.44900096</ele>
        <time>2020-02-16T15:13:44.010Z</time>
      </trkpt>
      <trkpt lat="44.80798" lon="6.97078">
        <ele>1824.54900096</ele>
        <time>2020-02-16T15:13:47.010Z</time>
      </trkpt>
      <trkpt lat="44.80807" lon="6.97071">
        <ele>1823.76600064</ele>
        <time>2020-02-16T15:13:50.010Z</time>
      </trkpt>
      <trkpt lat="44.80817" lon="6.97064">
        <ele>1822.76600064</ele>
        <time>2020-02-16T15:13:55.010Z</time>
      </trkpt>
      <trkpt lat="44.80825" lon="6.97059">
        <ele>1821.98300032</ele>
        <time>2020-02-16T15:13:59.010Z</time>
      </trkpt>
      <trkpt lat="44.80839" lon="6.97037">
        <ele>1820.52</ele>
        <time>2020-02-16T15:14:10.040Z</time>
      </trkpt>
      <trkpt lat="44.80866" lon="6.97024">
        <ele>1820.12</ele>
        <time>2020-02-16T15:14:11.040Z</time>
      </trkpt>
      <trkpt lat="44.8088" lon="6.97015">
        <ele>1817.27999744</ele>
        <time>2020-02-16T15:14:18.140Z</time>
      </trkpt>
      <trkpt lat="44.80893" lon="6.97006">
        <ele>1816.88300032</ele>
        <time>2020-02-16T15:14:20.010Z</time>
      </trkpt>
      <trkpt lat="44.80904" lon="6.97005">
        <ele>1816.58300032</ele>
        <time>2020-02-16T15:14:23.010Z</time>
      </trkpt>
      <trkpt lat="44.80915" lon="6.96998">
        <ele>1816.08</ele>
        <time>2020-02-16T15:14:28.040Z</time>
      </trkpt>
      <trkpt lat="44.80919" lon="6.96985">
        <ele>1814.4505499143</ele>
        <time>2020-02-16T15:14:34.010Z</time>
      </trkpt>
      <trkpt lat="44.80922" lon="6.96973">
        <ele>1812.7677678422</ele>
        <time>2020-02-16T15:14:40.010Z</time>
      </trkpt>
      <trkpt lat="44.80926" lon="6.96961">
        <ele>1809.8323392688</ele>
        <time>2020-02-16T15:14:50.010Z</time>
      </trkpt>
      <trkpt lat="44.80937" lon="6.96959">
        <ele>1803.8443191414</ele>
        <time>2020-02-16T15:14:56.010Z</time>
      </trkpt>
      <trkpt lat="44.80948" lon="6.96958">
        <ele>1800.3093144113</ele>
        <time>2020-02-16T15:15:00.010Z</time>
      </trkpt>
      <trkpt lat="44.80953" lon="6.96942">
        <ele>1798.5075108781</ele>
        <time>2020-02-16T15:15:03.010Z</time>
      </trkpt>
      <trkpt lat="44.80959" lon="6.96928">
        <ele>1796.7057073448</ele>
        <time>2020-02-16T15:15:06.010Z</time>
      </trkpt>
      <trkpt lat="44.80964" lon="6.96917">
        <ele>1794.9519519673</ele>
        <time>2020-02-16T15:15:09.010Z</time>
      </trkpt>
      <trkpt lat="44.80971" lon="6.96908">
        <ele>1792</ele>
        <time>2020-02-16T15:16:01.030Z</time>
      </trkpt>
      <trkpt lat="44.8098" lon="6.96904">
        <ele>1792</ele>
        <time>2020-02-16T15:16:04.010Z</time>
      </trkpt>
      <trkpt lat="44.80991" lon="6.96895">
        <ele>1792</ele>
        <time>2020-02-16T15:16:07.010Z</time>
      </trkpt>
      <trkpt lat="44.81" lon="6.96887">
        <ele>1791.89800192</ele>
        <time>2020-02-16T15:16:09.010Z</time>
      </trkpt>
      <trkpt lat="44.81009" lon="6.96877">
        <ele>1790.69800192</ele>
        <time>2020-02-16T15:16:11.010Z</time>
      </trkpt>
      <trkpt lat="44.81018" lon="6.96869">
        <ele>1789.49800192</ele>
        <time>2020-02-16T15:16:13.010Z</time>
      </trkpt>
      <trkpt lat="44.81027" lon="6.96862">
        <ele>1788.29800192</ele>
        <time>2020-02-16T15:16:15.010Z</time>
      </trkpt>
      <trkpt lat="44.81035" lon="6.96855">
        <ele>1787.09800192</ele>
        <time>2020-02-16T15:16:17.010Z</time>
      </trkpt>
      <trkpt lat="44.81044" lon="6.96848">
        <ele>1785.86400256</ele>
        <time>2020-02-16T15:16:19.010Z</time>
      </trkpt>
      <trkpt lat="44.81054" lon="6.96843">
        <ele>1784.26400256</ele>
        <time>2020-02-16T15:16:21.010Z</time>
      </trkpt>
      <trkpt lat="44.81065" lon="6.96841">
        <ele>1782.66400256</ele>
        <time>2020-02-16T15:16:23.010Z</time>
      </trkpt>
      <trkpt lat="44.81075" lon="6.96845">
        <ele>1781.06400256</ele>
        <time>2020-02-16T15:16:25.010Z</time>
      </trkpt>
      <trkpt lat="44.81085" lon="6.9685">
        <ele>1779.46400256</ele>
        <time>2020-02-16T15:16:27.010Z</time>
      </trkpt>
      <trkpt lat="44.81095" lon="6.96853">
        <ele>1777.94900096</ele>
        <time>2020-02-16T15:16:29.010Z</time>
      </trkpt>
      <trkpt lat="44.81105" lon="6.96851">
        <ele>1777.34900096</ele>
        <time>2020-02-16T15:16:31.010Z</time>
      </trkpt>
      <trkpt lat="44.81116" lon="6.96844">
        <ele>1776.74900096</ele>
        <time>2020-02-16T15:16:33.010Z</time>
      </trkpt>
      <trkpt lat="44.81125" lon="6.96835">
        <ele>1776.14900096</ele>
        <time>2020-02-16T15:16:35.010Z</time>
      </trkpt>
      <trkpt lat="44.81132" lon="6.96826">
        <ele>1775.54900096</ele>
        <time>2020-02-16T15:16:37.010Z</time>
      </trkpt>
      <trkpt lat="44.81139" lon="6.96816">
        <ele>1774.89800192</ele>
        <time>2020-02-16T15:16:39.010Z</time>
      </trkpt>
      <trkpt lat="44.81145" lon="6.96806">
        <ele>1773.69800192</ele>
        <time>2020-02-16T15:16:41.010Z</time>
      </trkpt>
      <trkpt lat="44.8115" lon="6.96794">
        <ele>1772.49800192</ele>
        <time>2020-02-16T15:16:43.010Z</time>
      </trkpt>
      <trkpt lat="44.81156" lon="6.96781">
        <ele>1771.29800192</ele>
        <time>2020-02-16T15:16:45.010Z</time>
      </trkpt>
      <trkpt lat="44.8116" lon="6.96769">
        <ele>1770.09800192</ele>
        <time>2020-02-16T15:16:47.010Z</time>
      </trkpt>
      <trkpt lat="44.81165" lon="6.96754">
        <ele>1768.6497017806</ele>
        <time>2020-02-16T15:16:50.010Z</time>
      </trkpt>
      <trkpt lat="44.81168" lon="6.96739">
        <ele>1767.7514987615</ele>
        <time>2020-02-16T15:16:53.010Z</time>
      </trkpt>
      <trkpt lat="44.81168" lon="6.96724">
        <ele>1766.8532957424</ele>
        <time>2020-02-16T15:16:56.010Z</time>
      </trkpt>
      <trkpt lat="44.81173" lon="6.9671">
        <ele>1765.9849708922</ele>
        <time>2020-02-16T15:16:59.010Z</time>
      </trkpt>
      <trkpt lat="44.81182" lon="6.96702">
        <ele>1765.684369497</ele>
        <time>2020-02-16T15:17:02.010Z</time>
      </trkpt>
      <trkpt lat="44.81191" lon="6.96699">
        <ele>1765.3837681018</ele>
        <time>2020-02-16T15:17:05.010Z</time>
      </trkpt>
      <trkpt lat="44.81201" lon="6.96699">
        <ele>1764.88300032</ele>
        <time>2020-02-16T15:17:10.010Z</time>
      </trkpt>
      <trkpt lat="44.8121" lon="6.96694">
        <ele>1765</ele>
        <time>2020-02-16T15:17:37.010Z</time>
      </trkpt>
      <trkpt lat="44.81214" lon="6.96682">
        <ele>1768.6163834937</ele>
        <time>2020-02-16T15:18:35.010Z</time>
      </trkpt>
      <trkpt lat="44.81221" lon="6.96674">
        <ele>1784.58300032</ele>
        <time>2020-02-16T15:20:43.010Z</time>
      </trkpt>
      <trkpt lat="44.81212" lon="6.96676">
        <ele>1789</ele>
        <time>2020-02-16T15:22:43.010Z</time>
      </trkpt>
      <trkpt lat="44.81215" lon="6.96664">
        <ele>1789.2851451134</ele>
        <time>2020-02-16T15:23:06.010Z</time>
      </trkpt>
      <trkpt lat="44.81211" lon="6.96652">
        <ele>1789</ele>
        <time>2020-02-16T15:23:11.010Z</time>
      </trkpt>
      <trkpt lat="44.81207" lon="6.9664">
        <ele>1789</ele>
        <time>2020-02-16T15:23:16.010Z</time>
      </trkpt>
      <trkpt lat="44.81203" lon="6.96626">
        <ele>1789</ele>
        <time>2020-02-16T15:23:20.010Z</time>
      </trkpt>
      <trkpt lat="44.812" lon="6.96613">
        <ele>1789</ele>
        <time>2020-02-16T15:23:23.010Z</time>
      </trkpt>
      <trkpt lat="44.81196" lon="6.966">
        <ele>1789</ele>
        <time>2020-02-16T15:23:26.010Z</time>
      </trkpt>
      <trkpt lat="44.81192" lon="6.96586">
        <ele>1788.9839839891</ele>
        <time>2020-02-16T15:23:29.010Z</time>
      </trkpt>
      <trkpt lat="44.8119" lon="6.96574">
        <ele>1788.683683785</ele>
        <time>2020-02-16T15:23:32.010Z</time>
      </trkpt>
      <trkpt lat="44.81186" lon="6.96559">
        <ele>1788.1831834448</ele>
        <time>2020-02-16T15:23:37.010Z</time>
      </trkpt>
      <trkpt lat="44.81184" lon="6.96545">
        <ele>1788.31699968</ele>
        <time>2020-02-16T15:23:42.010Z</time>
      </trkpt>
      <trkpt lat="44.81182" lon="6.96532">
        <ele>1788.61699968</ele>
        <time>2020-02-16T15:23:45.010Z</time>
      </trkpt>
      <trkpt lat="44.8118" lon="6.96518">
        <ele>1789</ele>
        <time>2020-02-16T15:23:50.010Z</time>
      </trkpt>
      <trkpt lat="44.81177" lon="6.96506">
        <ele>1789</ele>
        <time>2020-02-16T15:23:55.010Z</time>
      </trkpt>
      <trkpt lat="44.81176" lon="6.9649">
        <ele>1788.96600064</ele>
        <time>2020-02-16T15:23:59.010Z</time>
      </trkpt>
      <trkpt lat="44.81176" lon="6.96477">
        <ele>1788.36600064</ele>
        <time>2020-02-16T15:24:02.010Z</time>
      </trkpt>
      <trkpt lat="44.81175" lon="6.96463">
        <ele>1787.76600064</ele>
        <time>2020-02-16T15:24:05.010Z</time>
      </trkpt>
      <trkpt lat="44.81173" lon="6.96448">
        <ele>1787.16600064</ele>
        <time>2020-02-16T15:24:08.010Z</time>
      </trkpt>
      <trkpt lat="44.81172" lon="6.96433">
        <ele>1787.21699968</ele>
        <time>2020-02-16T15:24:11.010Z</time>
      </trkpt>
      <trkpt lat="44.81173" lon="6.9642">
        <ele>1787.51699968</ele>
        <time>2020-02-16T15:24:14.010Z</time>
      </trkpt>
      <trkpt lat="44.81173" lon="6.96405">
        <ele>1787.81699968</ele>
        <time>2020-02-16T15:24:17.010Z</time>
      </trkpt>
      <trkpt lat="44.81172" lon="6.96389">
        <ele>1787.76600064</ele>
        <time>2020-02-16T15:24:20.010Z</time>
      </trkpt>
      <trkpt lat="44.81173" lon="6.96376">
        <ele>1787.16600064</ele>
        <time>2020-02-16T15:24:23.010Z</time>
      </trkpt>
      <trkpt lat="44.81174" lon="6.96361">
        <ele>1786.56600064</ele>
        <time>2020-02-16T15:24:26.010Z</time>
      </trkpt>
      <trkpt lat="44.81175" lon="6.96343">
        <ele>1786.01699968</ele>
        <time>2020-02-16T15:24:29.010Z</time>
      </trkpt>
      <trkpt lat="44.81174" lon="6.96326">
        <ele>1786.31699968</ele>
        <time>2020-02-16T15:24:32.010Z</time>
      </trkpt>
      <trkpt lat="44.81174" lon="6.96309">
        <ele>1786.61699968</ele>
        <time>2020-02-16T15:24:35.010Z</time>
      </trkpt>
      <trkpt lat="44.81177" lon="6.96292">
        <ele>1786.91699968</ele>
        <time>2020-02-16T15:24:38.010Z</time>
      </trkpt>
      <trkpt lat="44.8118" lon="6.96278">
        <ele>1787</ele>
        <time>2020-02-16T15:24:41.010Z</time>
      </trkpt>
      <trkpt lat="44.81183" lon="6.96266">
        <ele>1787</ele>
        <time>2020-02-16T15:24:44.010Z</time>
      </trkpt>
      <trkpt lat="44.8119" lon="6.96253">
        <ele>1787</ele>
        <time>2020-02-16T15:24:47.010Z</time>
      </trkpt>
      <trkpt lat="44.81197" lon="6.9624">
        <ele>1786.53200128</ele>
        <time>2020-02-16T15:24:50.010Z</time>
      </trkpt>
      <trkpt lat="44.81204" lon="6.96226">
        <ele>1785.33200128</ele>
        <time>2020-02-16T15:24:53.010Z</time>
      </trkpt>
      <trkpt lat="44.81207" lon="6.96212">
        <ele>1784.13200128</ele>
        <time>2020-02-16T15:24:56.010Z</time>
      </trkpt>
      <trkpt lat="44.8121" lon="6.96196">
        <ele>1783</ele>
        <time>2020-02-16T15:24:59.010Z</time>
      </trkpt>
      <trkpt lat="44.81213" lon="6.96182">
        <ele>1783</ele>
        <time>2020-02-16T15:25:02.010Z</time>
      </trkpt>
      <trkpt lat="44.81214" lon="6.96168">
        <ele>1783</ele>
        <time>2020-02-16T15:25:05.010Z</time>
      </trkpt>
      <trkpt lat="44.8121" lon="6.96152">
        <ele>1782.9719170221</ele>
        <time>2020-02-16T15:25:09.010Z</time>
      </trkpt>
      <trkpt lat="44.81208" lon="6.96138">
        <ele>1782.3701114127</ele>
        <time>2020-02-16T15:25:12.010Z</time>
      </trkpt>
      <trkpt lat="44.81201" lon="6.96117">
        <ele>1781.7803406316</ele>
        <time>2020-02-16T15:25:14.950Z</time>
      </trkpt>
      <trkpt lat="44.81195" lon="6.96108">
        <ele>1781.5677039335</ele>
        <time>2020-02-16T15:25:16.010Z</time>
      </trkpt>
      <trkpt lat="44.81188" lon="6.96091">
        <ele>1781.1665001939</ele>
        <time>2020-02-16T15:25:18.010Z</time>
      </trkpt>
      <trkpt lat="44.81184" lon="6.96073">
        <ele>1780.4342378744</ele>
        <time>2020-02-16T15:25:20.010Z</time>
      </trkpt>
      <trkpt lat="44.81183" lon="6.96059">
        <ele>1779.4671204846</ele>
        <time>2020-02-16T15:25:22.010Z</time>
      </trkpt>
      <trkpt lat="44.81187" lon="6.96042">
        <ele>1778.0164443999</ele>
        <time>2020-02-16T15:25:25.010Z</time>
      </trkpt>
      <trkpt lat="44.81192" lon="6.96031">
        <ele>1777.0493270101</ele>
        <time>2020-02-16T15:25:27.010Z</time>
      </trkpt>
      <trkpt lat="44.81197" lon="6.96019">
        <ele>1776.0822096203</ele>
        <time>2020-02-16T15:25:29.010Z</time>
      </trkpt>
      <trkpt lat="44.81203" lon="6.96006">
        <ele>1774.863359247</ele>
        <time>2020-02-16T15:25:31.010Z</time>
      </trkpt>
      <trkpt lat="44.81208" lon="6.95994">
        <ele>1773.6211223991</ele>
        <time>2020-02-16T15:25:33.010Z</time>
      </trkpt>
      <trkpt lat="44.81214" lon="6.95982">
        <ele>1772.3788855512</ele>
        <time>2020-02-16T15:25:35.010Z</time>
      </trkpt>
      <trkpt lat="44.8122" lon="6.9597">
        <ele>1771.1366487034</ele>
        <time>2020-02-16T15:25:37.010Z</time>
      </trkpt>
      <trkpt lat="44.81225" lon="6.95958">
        <ele>1769.88100224</ele>
        <time>2020-02-16T15:25:39.010Z</time>
      </trkpt>
      <trkpt lat="44.8123" lon="6.95945">
        <ele>1768.48100224</ele>
        <time>2020-02-16T15:25:41.010Z</time>
      </trkpt>
      <trkpt lat="44.81234" lon="6.95931">
        <ele>1767.08100224</ele>
        <time>2020-02-16T15:25:43.010Z</time>
      </trkpt>
      <trkpt lat="44.81235" lon="6.95917">
        <ele>1765.68100224</ele>
        <time>2020-02-16T15:25:45.010Z</time>
      </trkpt>
      <trkpt lat="44.81235" lon="6.95903">
        <ele>1764.28100224</ele>
        <time>2020-02-16T15:25:47.010Z</time>
      </trkpt>
      <trkpt lat="44.81234" lon="6.95889">
        <ele>1762.93200128</ele>
        <time>2020-02-16T15:25:49.010Z</time>
      </trkpt>
      <trkpt lat="44.81233" lon="6.95872">
        <ele>1761.73200128</ele>
        <time>2020-02-16T15:25:52.010Z</time>
      </trkpt>
      <trkpt lat="44.81232" lon="6.95859">
        <ele>1760.93200128</ele>
        <time>2020-02-16T15:25:54.010Z</time>
      </trkpt>
      <trkpt lat="44.81233" lon="6.95842">
        <ele>1759.73200128</ele>
        <time>2020-02-16T15:25:57.010Z</time>
      </trkpt>
      <trkpt lat="44.81235" lon="6.95828">
        <ele>1758.98300032</ele>
        <time>2020-02-16T15:25:59.010Z</time>
      </trkpt>
      <trkpt lat="44.81237" lon="6.95812">
        <ele>1758.78300032</ele>
        <time>2020-02-16T15:26:01.010Z</time>
      </trkpt>
      <trkpt lat="44.8124" lon="6.95798">
        <ele>1758.58300032</ele>
        <time>2020-02-16T15:26:03.010Z</time>
      </trkpt>
      <trkpt lat="44.81241" lon="6.95783">
        <ele>1758.28300032</ele>
        <time>2020-02-16T15:26:06.010Z</time>
      </trkpt>
      <trkpt lat="44.81242" lon="6.95768">
        <ele>1757.9830511719</ele>
        <time>2020-02-16T15:26:09.010Z</time>
      </trkpt>
      <trkpt lat="44.81243" lon="6.95751">
        <ele>1757.6839485754</ele>
        <time>2020-02-16T15:26:12.010Z</time>
      </trkpt>
      <trkpt lat="44.81242" lon="6.95732">
        <ele>1757.3848459789</ele>
        <time>2020-02-16T15:26:15.010Z</time>
      </trkpt>
      <trkpt lat="44.81242" lon="6.95719">
        <ele>1757.1854442479</ele>
        <time>2020-02-16T15:26:17.010Z</time>
      </trkpt>
      <trkpt lat="44.81241" lon="6.95706">
        <ele>1756.915835457</ele>
        <time>2020-02-16T15:26:19.010Z</time>
      </trkpt>
      <trkpt lat="44.8124" lon="6.95693">
        <ele>1755.7134298763</ele>
        <time>2020-02-16T15:26:21.010Z</time>
      </trkpt>
      <trkpt lat="44.81238" lon="6.9568">
        <ele>1754.5110242957</ele>
        <time>2020-02-16T15:26:23.010Z</time>
      </trkpt>
      <trkpt lat="44.81235" lon="6.95664">
        <ele>1752.7074159246</ele>
        <time>2020-02-16T15:26:26.010Z</time>
      </trkpt>
      <trkpt lat="44.81235" lon="6.9565">
        <ele>1751.0160160109</ele>
        <time>2020-02-16T15:26:29.010Z</time>
      </trkpt>
      <trkpt lat="44.81234" lon="6.95635">
        <ele>1751.316316215</ele>
        <time>2020-02-16T15:26:32.010Z</time>
      </trkpt>
      <trkpt lat="44.81233" lon="6.95621">
        <ele>1751.6166164191</ele>
        <time>2020-02-16T15:26:35.010Z</time>
      </trkpt>
      <trkpt lat="44.81234" lon="6.95608">
        <ele>1751.9169166232</ele>
        <time>2020-02-16T15:26:38.010Z</time>
      </trkpt>
      <trkpt lat="44.81237" lon="6.95593">
        <ele>1749.8300032</ele>
        <time>2020-02-16T15:26:41.010Z</time>
      </trkpt>
      <trkpt lat="44.8124" lon="6.95579">
        <ele>1747.8300032</ele>
        <time>2020-02-16T15:26:43.010Z</time>
      </trkpt>
      <trkpt lat="44.81242" lon="6.95562">
        <ele>1745.8300032</ele>
        <time>2020-02-16T15:26:45.010Z</time>
      </trkpt>
      <trkpt lat="44.81244" lon="6.95543">
        <ele>1743.8300032</ele>
        <time>2020-02-16T15:26:47.010Z</time>
      </trkpt>
      <trkpt lat="44.81245" lon="6.95519">
        <ele>1741.55800832</ele>
        <time>2020-02-16T15:26:49.010Z</time>
      </trkpt>
      <trkpt lat="44.81247" lon="6.95496">
        <ele>1736.35800832</ele>
        <time>2020-02-16T15:26:51.010Z</time>
      </trkpt>
      <trkpt lat="44.81249" lon="6.95483">
        <ele>1733.75800832</ele>
        <time>2020-02-16T15:26:52.010Z</time>
      </trkpt>
      <trkpt lat="44.8125" lon="6.95468">
        <ele>1731.15800832</ele>
        <time>2020-02-16T15:26:53.010Z</time>
      </trkpt>
      <trkpt lat="44.81252" lon="6.95452">
        <ele>1728.55800832</ele>
        <time>2020-02-16T15:26:54.010Z</time>
      </trkpt>
      <trkpt lat="44.81253" lon="6.95437">
        <ele>1725.95800832</ele>
        <time>2020-02-16T15:26:55.010Z</time>
      </trkpt>
      <trkpt lat="44.81254" lon="6.95422">
        <ele>1723.35800832</ele>
        <time>2020-02-16T15:26:56.010Z</time>
      </trkpt>
      <trkpt lat="44.81256" lon="6.95408">
        <ele>1720.75800832</ele>
        <time>2020-02-16T15:26:57.010Z</time>
      </trkpt>
      <trkpt lat="44.81263" lon="6.95385">
        <ele>1715.72800512</ele>
        <time>2020-02-16T15:26:59.010Z</time>
      </trkpt>
      <trkpt lat="44.81267" lon="6.95374">
        <ele>1714.12800512</ele>
        <time>2020-02-16T15:27:00.010Z</time>
      </trkpt>
      <trkpt lat="44.81272" lon="6.95362">
        <ele>1712.52800512</ele>
        <time>2020-02-16T15:27:01.010Z</time>
      </trkpt>
      <trkpt lat="44.81276" lon="6.95351">
        <ele>1710.92800512</ele>
        <time>2020-02-16T15:27:02.010Z</time>
      </trkpt>
      <trkpt lat="44.81281" lon="6.9534">
        <ele>1709.32800512</ele>
        <time>2020-02-16T15:27:03.010Z</time>
      </trkpt>
      <trkpt lat="44.81286" lon="6.95329">
        <ele>1707.72800512</ele>
        <time>2020-02-16T15:27:04.010Z</time>
      </trkpt>
      <trkpt lat="44.81295" lon="6.95308">
        <ele>1704.52800512</ele>
        <time>2020-02-16T15:27:06.010Z</time>
      </trkpt>
      <trkpt lat="44.813" lon="6.95296">
        <ele>1702.92800512</ele>
        <time>2020-02-16T15:27:07.010Z</time>
      </trkpt>
      <trkpt lat="44.81306" lon="6.95285">
        <ele>1701.32800512</ele>
        <time>2020-02-16T15:27:08.010Z</time>
      </trkpt>
      <trkpt lat="44.8131" lon="6.95274">
        <ele>1699.84700288</ele>
        <time>2020-02-16T15:27:09.010Z</time>
      </trkpt>
      <trkpt lat="44.81319" lon="6.95253">
        <ele>1698.04700288</ele>
        <time>2020-02-16T15:27:11.010Z</time>
      </trkpt>
      <trkpt lat="44.81328" lon="6.95233">
        <ele>1696.24700288</ele>
        <time>2020-02-16T15:27:13.010Z</time>
      </trkpt>
      <trkpt lat="44.81337" lon="6.95215">
        <ele>1694.44700288</ele>
        <time>2020-02-16T15:27:15.010Z</time>
      </trkpt>
      <trkpt lat="44.81344" lon="6.952">
        <ele>1692.64700288</ele>
        <time>2020-02-16T15:27:17.010Z</time>
      </trkpt>
      <trkpt lat="44.81351" lon="6.95187">
        <ele>1690.9150016</ele>
        <time>2020-02-16T15:27:19.010Z</time>
      </trkpt>
      <trkpt lat="44.81359" lon="6.95171">
        <ele>1689.4150016</ele>
        <time>2020-02-16T15:27:22.010Z</time>
      </trkpt>
      <trkpt lat="44.81365" lon="6.95159">
        <ele>1688.4150016</ele>
        <time>2020-02-16T15:27:24.010Z</time>
      </trkpt>
      <trkpt lat="44.81371" lon="6.95145">
        <ele>1687.4150016</ele>
        <time>2020-02-16T15:27:26.010Z</time>
      </trkpt>
      <trkpt lat="44.81375" lon="6.95133">
        <ele>1686.4150016</ele>
        <time>2020-02-16T15:27:28.010Z</time>
      </trkpt>
      <trkpt lat="44.81379" lon="6.95121">
        <ele>1685.4150016</ele>
        <time>2020-02-16T15:27:30.010Z</time>
      </trkpt>
      <trkpt lat="44.81384" lon="6.95109">
        <ele>1684.4150016</ele>
        <time>2020-02-16T15:27:32.010Z</time>
      </trkpt>
      <trkpt lat="44.8139" lon="6.95095">
        <ele>1683.4150016</ele>
        <time>2020-02-16T15:27:34.010Z</time>
      </trkpt>
      <trkpt lat="44.81393" lon="6.95081">
        <ele>1682.4150016</ele>
        <time>2020-02-16T15:27:36.010Z</time>
      </trkpt>
      <trkpt lat="44.81397" lon="6.95069">
        <ele>1681.4150016</ele>
        <time>2020-02-16T15:27:38.010Z</time>
      </trkpt>
      <trkpt lat="44.81401" lon="6.95056">
        <ele>1680.64900096</ele>
        <time>2020-02-16T15:27:40.010Z</time>
      </trkpt>
      <trkpt lat="44.81407" lon="6.9504">
        <ele>1679.74900096</ele>
        <time>2020-02-16T15:27:43.010Z</time>
      </trkpt>
      <trkpt lat="44.81412" lon="6.95027">
        <ele>1679.14900096</ele>
        <time>2020-02-16T15:27:45.010Z</time>
      </trkpt>
      <trkpt lat="44.81416" lon="6.95014">
        <ele>1678.54900096</ele>
        <time>2020-02-16T15:27:47.010Z</time>
      </trkpt>
      <trkpt lat="44.8142" lon="6.95002">
        <ele>1677.93200128</ele>
        <time>2020-02-16T15:27:49.010Z</time>
      </trkpt>
      <trkpt lat="44.81426" lon="6.9499">
        <ele>1677.13200128</ele>
        <time>2020-02-16T15:27:51.010Z</time>
      </trkpt>
      <trkpt lat="44.81431" lon="6.9498">
        <ele>1676.33200128</ele>
        <time>2020-02-16T15:27:53.010Z</time>
      </trkpt>
      <trkpt lat="44.81437" lon="6.9497">
        <ele>1675.53200128</ele>
        <time>2020-02-16T15:27:55.010Z</time>
      </trkpt>
      <trkpt lat="44.81444" lon="6.94954">
        <ele>1674.33200128</ele>
        <time>2020-02-16T15:27:58.010Z</time>
      </trkpt>
      <trkpt lat="44.81451" lon="6.9494">
        <ele>1673.4150016</ele>
        <time>2020-02-16T15:28:00.010Z</time>
      </trkpt>
      <trkpt lat="44.81456" lon="6.94928">
        <ele>1672.4150016</ele>
        <time>2020-02-16T15:28:02.010Z</time>
      </trkpt>
      <trkpt lat="44.81462" lon="6.94915">
        <ele>1671.4150016</ele>
        <time>2020-02-16T15:28:04.010Z</time>
      </trkpt>
      <trkpt lat="44.81467" lon="6.94903">
        <ele>1670.4150016</ele>
        <time>2020-02-16T15:28:06.010Z</time>
      </trkpt>
      <trkpt lat="44.81473" lon="6.94892">
        <ele>1669.4150016</ele>
        <time>2020-02-16T15:28:08.010Z</time>
      </trkpt>
      <trkpt lat="44.81477" lon="6.94881">
        <ele>1668.76600064</ele>
        <time>2020-02-16T15:28:10.010Z</time>
      </trkpt>
      <trkpt lat="44.81481" lon="6.94867">
        <ele>1668.16600064</ele>
        <time>2020-02-16T15:28:13.010Z</time>
      </trkpt>
      <trkpt lat="44.81484" lon="6.94854">
        <ele>1667.56600064</ele>
        <time>2020-02-16T15:28:16.010Z</time>
      </trkpt>
      <trkpt lat="44.81487" lon="6.94841">
        <ele>1666.9150016</ele>
        <time>2020-02-16T15:28:19.010Z</time>
      </trkpt>
      <trkpt lat="44.81488" lon="6.94828">
        <ele>1665.4150016</ele>
        <time>2020-02-16T15:28:22.010Z</time>
      </trkpt>
      <trkpt lat="44.81489" lon="6.94814">
        <ele>1663.9150016</ele>
        <time>2020-02-16T15:28:25.010Z</time>
      </trkpt>
      <trkpt lat="44.81492" lon="6.94801">
        <ele>1662.9150016</ele>
        <time>2020-02-16T15:28:27.010Z</time>
      </trkpt>
      <trkpt lat="44.81496" lon="6.94786">
        <ele>1662</ele>
        <time>2020-02-16T15:28:30.010Z</time>
      </trkpt>
      <trkpt lat="44.81502" lon="6.94773">
        <ele>1662</ele>
        <time>2020-02-16T15:28:34.010Z</time>
      </trkpt>
      <trkpt lat="44.81508" lon="6.94762">
        <ele>1662</ele>
        <time>2020-02-16T15:28:38.010Z</time>
      </trkpt>
      <trkpt lat="44.81516" lon="6.94753">
        <ele>1661.7063082668</ele>
        <time>2020-02-16T15:28:42.010Z</time>
      </trkpt>
      <trkpt lat="44.81524" lon="6.94746">
        <ele>1661.3960705204</ele>
        <time>2020-02-16T15:28:45.010Z</time>
      </trkpt>
      <trkpt lat="44.81534" lon="6.94733">
        <ele>1661.0858327741</ele>
        <time>2020-02-16T15:28:48.010Z</time>
      </trkpt>
      <trkpt lat="44.81542" lon="6.94722">
        <ele>1660.29800192</ele>
        <time>2020-02-16T15:28:50.010Z</time>
      </trkpt>
      <trkpt lat="44.81552" lon="6.94697">
        <ele>1658.48</ele>
        <time>2020-02-16T15:28:53.040Z</time>
      </trkpt>
      <trkpt lat="44.81558" lon="6.94677">
        <ele>1657.88</ele>
        <time>2020-02-16T15:28:54.040Z</time>
      </trkpt>
      <trkpt lat="44.8156" lon="6.94659">
        <ele>1656.69800192</ele>
        <time>2020-02-16T15:28:56.010Z</time>
      </trkpt>
      <trkpt lat="44.81557" lon="6.94644">
        <ele>1655.49800192</ele>
        <time>2020-02-16T15:28:58.010Z</time>
      </trkpt>
      <trkpt lat="44.81554" lon="6.94627">
        <ele>1654.5664340672</ele>
        <time>2020-02-16T15:29:01.010Z</time>
      </trkpt>
      <trkpt lat="44.81556" lon="6.94613">
        <ele>1653.9670332762</ele>
        <time>2020-02-16T15:29:04.010Z</time>
      </trkpt>
      <trkpt lat="44.81561" lon="6.94601">
        <ele>1653.3676324852</ele>
        <time>2020-02-16T15:29:07.010Z</time>
      </trkpt>
      <trkpt lat="44.8157" lon="6.9459">
        <ele>1652.4194196054</ele>
        <time>2020-02-16T15:29:10.010Z</time>
      </trkpt>
      <trkpt lat="44.81585" lon="6.94581">
        <ele>1650.902901973</ele>
        <time>2020-02-16T15:29:13.040Z</time>
      </trkpt>
      <trkpt lat="44.81598" lon="6.94568">
        <ele>1649.9169179045</ele>
        <time>2020-02-16T15:29:15.010Z</time>
      </trkpt>
      <trkpt lat="44.8161" lon="6.94557">
        <ele>1648.9159172241</ele>
        <time>2020-02-16T15:29:17.010Z</time>
      </trkpt>
      <trkpt lat="44.81619" lon="6.94548">
        <ele>1647.76200448</ele>
        <time>2020-02-16T15:29:19.010Z</time>
      </trkpt>
      <trkpt lat="44.81627" lon="6.94537">
        <ele>1644.96200448</ele>
        <time>2020-02-16T15:29:21.010Z</time>
      </trkpt>
      <trkpt lat="44.81636" lon="6.94522">
        <ele>1642.16200448</ele>
        <time>2020-02-16T15:29:23.010Z</time>
      </trkpt>
      <trkpt lat="44.81646" lon="6.94504">
        <ele>1639.36200448</ele>
        <time>2020-02-16T15:29:25.010Z</time>
      </trkpt>
      <trkpt lat="44.81656" lon="6.94488">
        <ele>1636.56200448</ele>
        <time>2020-02-16T15:29:27.010Z</time>
      </trkpt>
      <trkpt lat="44.81666" lon="6.9447">
        <ele>1633.8300032</ele>
        <time>2020-02-16T15:29:29.010Z</time>
      </trkpt>
      <trkpt lat="44.81675" lon="6.94449">
        <ele>1631.8300032</ele>
        <time>2020-02-16T15:29:31.010Z</time>
      </trkpt>
      <trkpt lat="44.81677" lon="6.94428">
        <ele>1629.8300032</ele>
        <time>2020-02-16T15:29:33.010Z</time>
      </trkpt>
      <trkpt lat="44.81677" lon="6.94391">
        <ele>1625.8</ele>
        <time>2020-02-16T15:29:37.040Z</time>
      </trkpt>
      <trkpt lat="44.81678" lon="6.94377">
        <ele>1624.8</ele>
        <time>2020-02-16T15:29:38.040Z</time>
      </trkpt>
      <trkpt lat="44.81683" lon="6.94361">
        <ele>1623.76600064</ele>
        <time>2020-02-16T15:29:40.010Z</time>
      </trkpt>
      <trkpt lat="44.81692" lon="6.94356">
        <ele>1621</ele>
        <time>2020-02-16T15:30:42.950Z</time>
      </trkpt>
      <trkpt lat="44.81687" lon="6.9436">
        <ele>1621</ele>
        <time>2020-02-16T15:30:47.010Z</time>
      </trkpt>
    </trkseg>
  </trk>
</gpx>